Wetterdaten: Montag, 22.04.2019
Datum Zeit Temp. A. Pool Temp. Temp. 5cm Feuchte A. Luftdruck Regen Wind Richtung Richtung Sonnenschein ET UV Solar Taupunkt Windchill Windben Empfang
22.04.2019 00:00 11,8 C 15,0 C 7,8 C 43 % 1015,0 hPa 0,0 l/m 6,7 km/h (2 Bft) O-NO 57 0 min 0,000 mm 0,0 UV-I 0 W/m -0,4 C 11,6 C 8,0 km/h (2 Bft) 100,00 %
22.04.2019 00:02 11,6 C 15,0 C 7,8 C 45 % 1015,0 hPa 0,0 l/m 5,9 km/h (2 Bft) O-NO 62 0 min 0,000 mm 0,0 UV-I 0 W/m 0,1 C 11,6 C 8,0 km/h (2 Bft) 97,56 %
22.04.2019 00:04 11,4 C 15,0 C 7,2 C 44 % 1015,0 hPa 0,0 l/m 6,9 km/h (2 Bft) O-NO 57 0 min 0,000 mm 0,0 UV-I 0 W/m -0,4 C 11,1 C 9,7 km/h (2 Bft) 100,00 %
22.04.2019 00:06 11,4 C 15,0 C 7,2 C 44 % 1015,0 hPa 0,0 l/m 5,4 km/h (1 Bft) O-NO 64 0 min 0,000 mm 0,0 UV-I 0 W/m -0,4 C 11,4 C 8,0 km/h (2 Bft) 100,00 %
22.04.2019 00:08 11,4 C 15,0 C 7,2 C 44 % 1014,9 hPa 0,0 l/m 6,9 km/h (2 Bft) O-NO 63 0 min 0,000 mm 0,0 UV-I 0 W/m -0,4 C 11,1 C 9,7 km/h (2 Bft) 100,00 %
22.04.2019 00:10 11,4 C 15,0 C 7,2 C 44 % 1014,9 hPa 0,0 l/m 6,7 km/h (2 Bft) O-NO 76 0 min 0,000 mm 0,0 UV-I 0 W/m -0,4 C 11,2 C 11,3 km/h (2 Bft) 100,00 %
22.04.2019 00:12 11,4 C 15,0 C 7,2 C 45 % 1014,9 hPa 0,0 l/m 5,8 km/h (2 Bft) O-NO 67 0 min 0,000 mm 0,0 UV-I 0 W/m -0,1 C 11,4 C 9,7 km/h (2 Bft) 100,00 %
22.04.2019 00:14 11,3 C 15,0 C 7,2 C 45 % 1014,9 hPa 0,0 l/m 4,6 km/h (1 Bft) O 82 0 min 0,000 mm 0,0 UV-I 0 W/m -0,2 C 11,3 C 6,4 km/h (2 Bft) 98,00 %
22.04.2019 00:16 11,2 C 15,0 C 7,2 C 45 % 1014,8 hPa 0,0 l/m 5,4 km/h (1 Bft) O-NO 67 0 min 0,000 mm 0,0 UV-I 0 W/m -0,3 C 11,2 C 6,4 km/h (2 Bft) 97,37 %
22.04.2019 00:18 11,2 C 15,0 C 7,2 C 45 % 1014,8 hPa 0,0 l/m 6,9 km/h (2 Bft) O-NO 77 0 min 0,000 mm 0,0 UV-I 0 W/m -0,3 C 10,9 C 11,3 km/h (2 Bft) 100,00 %
22.04.2019 00:20 11,2 C 15,0 C 7,8 C 45 % 1014,8 hPa 0,0 l/m 5,9 km/h (2 Bft) O-NO 67 0 min 0,000 mm 0,0 UV-I 0 W/m -0,3 C 11,2 C 6,4 km/h (2 Bft) 100,00 %
22.04.2019 00:22 11,1 C 15,0 C 7,2 C 45 % 1014,8 hPa 0,0 l/m 4,9 km/h (1 Bft) O-NO 59 0 min 0,000 mm 0,0 UV-I 0 W/m -0,4 C 11,1 C 9,7 km/h (2 Bft) 100,00 %
22.04.2019 00:24 11,1 C 15,0 C 7,2 C 46 % 1014,8 hPa 0,0 l/m 5,0 km/h (1 Bft) O-NO 69 0 min 0,000 mm 0,0 UV-I 0 W/m -0,1 C 11,1 C 6,4 km/h (2 Bft) 94,44 %
22.04.2019 00:26 11,1 C 15,0 C 7,2 C 46 % 1014,8 hPa 0,0 l/m 5,0 km/h (1 Bft) O-NO 63 0 min 0,000 mm 0,0 UV-I 0 W/m -0,1 C 11,1 C 6,4 km/h (2 Bft) 98,00 %
22.04.2019 00:28 10,9 C 15,0 C 6,7 C 46 % 1014,7 hPa 0,0 l/m 5,2 km/h (1 Bft) O-NO 71 0 min 0,000 mm 0,0 UV-I 0 W/m -0,3 C 10,9 C 8,0 km/h (2 Bft) 97,87 %
22.04.2019 00:30 10,9 C 15,0 C 6,7 C 46 % 1014,7 hPa 0,0 l/m 5,0 km/h (1 Bft) O-NO 77 0 min 0,000 mm 0,0 UV-I 0 W/m -0,3 C 10,9 C 8,0 km/h (2 Bft) 98,00 %
22.04.2019 00:32 10,8 C 15,0 C 6,1 C 46 % 1014,7 hPa 0,0 l/m 5,4 km/h (1 Bft) O-NO 74 0 min 0,000 mm 0,0 UV-I 0 W/m -0,3 C 10,8 C 8,0 km/h (2 Bft) 97,87 %
22.04.2019 00:34 10,8 C 15,0 C 6,1 C 46 % 1014,7 hPa 0,0 l/m 4,2 km/h (1 Bft) O 92 0 min 0,000 mm 0,0 UV-I 0 W/m -0,3 C 10,8 C 6,4 km/h (2 Bft) 93,62 %
22.04.2019 00:36 10,8 C 15,0 C 6,1 C 46 % 1014,8 hPa 0,0 l/m 4,8 km/h (1 Bft) O-NO 76 0 min 0,000 mm 0,0 UV-I 0 W/m -0,3 C 10,8 C 6,4 km/h (2 Bft) 94,00 %
22.04.2019 00:38 10,7 C 15,0 C 5,6 C 46 % 1014,7 hPa 0,0 l/m 4,2 km/h (1 Bft) O-NO 58 0 min 0,000 mm 0,0 UV-I 0 W/m -0,4 C 10,7 C 6,4 km/h (2 Bft) 93,62 %
22.04.2019 00:40 10,7 C 15,0 C 5,6 C 46 % 1014,8 hPa 0,0 l/m 3,8 km/h (1 Bft) O-NO 77 0 min 0,000 mm 0,0 UV-I 0 W/m -0,4 C 10,7 C 6,4 km/h (2 Bft) 89,36 %
22.04.2019 00:42 10,8 C 15,0 C 5,0 C 46 % 1014,7 hPa 0,0 l/m 4,0 km/h (1 Bft) O 87 0 min 0,000 mm 0,0 UV-I 0 W/m -0,3 C 10,8 C 6,4 km/h (2 Bft) 93,62 %
22.04.2019 00:44 10,7 C 15,0 C 5,0 C 47 % 1014,7 hPa 0,0 l/m 4,0 km/h (1 Bft) O 82 0 min 0,000 mm 0,0 UV-I 0 W/m -0,1 C 10,7 C 4,8 km/h (1 Bft) 93,62 %
22.04.2019 00:46 10,7 C 15,0 C 4,4 C 47 % 1014,7 hPa 0,0 l/m 3,6 km/h (1 Bft) O 97 0 min 0,000 mm 0,0 UV-I 0 W/m -0,1 C 10,7 C 6,4 km/h (2 Bft) 93,62 %
22.04.2019 00:48 10,7 C 15,0 C 4,4 C 47 % 1014,7 hPa 0,0 l/m 5,1 km/h (1 Bft) O-SO 103 0 min 0,000 mm 0,0 UV-I 0 W/m -0,1 C 10,7 C 9,7 km/h (2 Bft) 95,74 %
22.04.2019 00:50 10,5 C 15,0 C 4,4 C 48 % 1014,7 hPa 0,0 l/m 5,1 km/h (1 Bft) O-SO 103 0 min 0,000 mm 0,0 UV-I 0 W/m -0,0 C 10,5 C 9,7 km/h (2 Bft) 95,74 %
22.04.2019 00:52 10,5 C 15,0 C 4,4 C 47 % 1014,7 hPa 0,0 l/m 5,5 km/h (1 Bft) O 96 0 min 0,000 mm 0,0 UV-I 0 W/m -0,3 C 10,5 C 6,4 km/h (2 Bft) 93,62 %
22.04.2019 00:54 10,6 C 15,0 C 4,4 C 47 % 1014,7 hPa 0,0 l/m 4,5 km/h (1 Bft) O 80 0 min 0,000 mm 0,0 UV-I 0 W/m -0,2 C 10,6 C 9,7 km/h (2 Bft) 91,49 %
22.04.2019 00:56 10,5 C 15,0 C 4,4 C 47 % 1014,7 hPa 0,0 l/m 4,3 km/h (1 Bft) O 98 0 min 0,000 mm 0,0 UV-I 0 W/m -0,3 C 10,5 C 6,4 km/h (2 Bft) 93,62 %
22.04.2019 00:58 10,4 C 15,0 C 4,4 C 47 % 1014,7 hPa 0,0 l/m 4,1 km/h (1 Bft) O 99 0 min 0,000 mm 0,0 UV-I 0 W/m -0,4 C 10,4 C 6,4 km/h (2 Bft) 94,44 %
22.04.2019 01:00 10,4 C 15,0 C 5,0 C 47 % 1014,7 hPa 0,0 l/m 4,6 km/h (1 Bft) O-NO 76 0 min 0,051 mm 0,0 UV-I 0 W/m -0,4 C 10,4 C 6,4 km/h (2 Bft) 92,00 %
22.04.2019 01:02 10,6 C 15,0 C 5,0 C 47 % 1014,7 hPa 0,0 l/m 4,2 km/h (1 Bft) O 82 0 min 0,000 mm 0,0 UV-I 0 W/m -0,2 C 10,6 C 6,4 km/h (2 Bft) 95,74 %
22.04.2019 01:04 10,6 C 15,0 C 5,0 C 47 % 1014,7 hPa 0,0 l/m 4,7 km/h (1 Bft) O-NO 76 0 min 0,000 mm 0,0 UV-I 0 W/m -0,2 C 10,6 C 6,4 km/h (2 Bft) 97,87 %
22.04.2019 01:06 10,5 C 15,0 C 4,4 C 47 % 1014,7 hPa 0,0 l/m 4,3 km/h (1 Bft) O-NO 74 0 min 0,000 mm 0,0 UV-I 0 W/m -0,3 C 10,5 C 4,8 km/h (1 Bft) 92,00 %
22.04.2019 01:08 10,5 C 15,0 C 3,9 C 47 % 1014,7 hPa 0,0 l/m 4,3 km/h (1 Bft) O-NO 78 0 min 0,000 mm 0,0 UV-I 0 W/m -0,3 C 10,5 C 6,4 km/h (2 Bft) 93,62 %
22.04.2019 01:10 10,6 C 15,0 C 3,9 C 46 % 1014,6 hPa 0,0 l/m 4,2 km/h (1 Bft) O 80 0 min 0,000 mm 0,0 UV-I 0 W/m -0,5 C 10,6 C 6,4 km/h (2 Bft) 97,87 %
22.04.2019 01:12 10,6 C 15,0 C 3,9 C 46 % 1014,7 hPa 0,0 l/m 4,2 km/h (1 Bft) O-NO 67 0 min 0,000 mm 0,0 UV-I 0 W/m -0,5 C 10,6 C 6,4 km/h (2 Bft) 94,00 %
22.04.2019 01:14 10,6 C 15,0 C 4,4 C 46 % 1014,6 hPa 0,0 l/m 4,6 km/h (1 Bft) O-NO 67 0 min 0,000 mm 0,0 UV-I 0 W/m -0,5 C 10,6 C 6,4 km/h (2 Bft) 97,87 %
22.04.2019 01:16 10,4 C 15,0 C 4,4 C 47 % 1014,6 hPa 0,0 l/m 5,0 km/h (1 Bft) O-NO 61 0 min 0,000 mm 0,0 UV-I 0 W/m -0,4 C 10,4 C 6,4 km/h (2 Bft) 95,74 %
22.04.2019 01:18 10,3 C 15,0 C 4,4 C 47 % 1014,6 hPa 0,0 l/m 5,4 km/h (1 Bft) NO 52 0 min 0,000 mm 0,0 UV-I 0 W/m -0,5 C 10,3 C 6,4 km/h (2 Bft) 93,62 %
22.04.2019 01:20 10,3 C 15,0 C 5,0 C 47 % 1014,6 hPa 0,0 l/m 4,8 km/h (1 Bft) NO 55 0 min 0,000 mm 0,0 UV-I 0 W/m -0,5 C 10,3 C 8,0 km/h (2 Bft) 97,87 %
22.04.2019 01:22 10,2 C 15,0 C 5,6 C 48 % 1014,6 hPa 0,0 l/m 5,5 km/h (1 Bft) NO 49 0 min 0,000 mm 0,0 UV-I 0 W/m -0,3 C 10,2 C 8,0 km/h (2 Bft) 97,87 %
22.04.2019 01:24 10,2 C 15,0 C 5,6 C 48 % 1014,5 hPa 0,0 l/m 4,7 km/h (1 Bft) NO 44 0 min 0,000 mm 0,0 UV-I 0 W/m -0,3 C 10,2 C 6,4 km/h (2 Bft) 97,87 %
22.04.2019 01:26 10,0 C 15,0 C 5,6 C 49 % 1014,5 hPa 0,0 l/m 4,0 km/h (1 Bft) NO 47 0 min 0,000 mm 0,0 UV-I 0 W/m -0,2 C 10,0 C 6,4 km/h (2 Bft) 97,87 %
22.04.2019 01:28 9,9 C 15,0 C 5,0 C 48 % 1014,5 hPa 0,0 l/m 3,4 km/h (1 Bft) NO 53 0 min 0,000 mm 0,0 UV-I 0 W/m -0,6 C 9,9 C 4,8 km/h (1 Bft) 95,74 %
22.04.2019 01:30 9,9 C 15,0 C 5,0 C 48 % 1014,5 hPa 0,0 l/m 3,2 km/h (1 Bft) O-NO 59 0 min 0,000 mm 0,0 UV-I 0 W/m -0,6 C 9,9 C 4,8 km/h (1 Bft) 95,74 %
22.04.2019 01:32 10,0 C 15,0 C 4,4 C 48 % 1014,5 hPa 0,0 l/m 3,2 km/h (1 Bft) O-NO 64 0 min 0,000 mm 0,0 UV-I 0 W/m -0,5 C 10,0 C 4,8 km/h (1 Bft) 100,00 %
22.04.2019 01:34 9,9 C 15,0 C 4,4 C 48 % 1014,4 hPa 0,0 l/m 3,3 km/h (1 Bft) O-NO 64 0 min 0,000 mm 0,0 UV-I 0 W/m -0,6 C 9,9 C 4,8 km/h (1 Bft) 100,00 %
22.04.2019 01:36 9,9 C 15,0 C 3,9 C 48 % 1014,4 hPa 0,0 l/m 3,6 km/h (1 Bft) O-NO 63 0 min 0,000 mm 0,0 UV-I 0 W/m -0,6 C 9,9 C 4,8 km/h (1 Bft) 97,96 %
22.04.2019 01:38 9,8 C 15,0 C 3,9 C 49 % 1014,4 hPa 0,0 l/m 4,6 km/h (1 Bft) O-NO 62 0 min 0,000 mm 0,0 UV-I 0 W/m -0,4 C 9,8 C 6,4 km/h (2 Bft) 100,00 %
22.04.2019 01:40 9,8 C 15,0 C 3,9 C 49 % 1014,4 hPa 0,0 l/m 3,9 km/h (1 Bft) O-NO 72 0 min 0,000 mm 0,0 UV-I 0 W/m -0,4 C 9,8 C 6,4 km/h (2 Bft) 100,00 %
22.04.2019 01:42 9,9 C 15,0 C 3,3 C 48 % 1014,4 hPa 0,0 l/m 2,4 km/h (1 Bft) O-NO 72 0 min 0,000 mm 0,0 UV-I 0 W/m -0,6 C 9,9 C 3,2 km/h (1 Bft) 95,74 %
22.04.2019 01:44 9,8 C 15,0 C 3,9 C 49 % 1014,3 hPa 0,0 l/m 2,1 km/h (1 Bft) O 80 0 min 0,000 mm 0,0 UV-I 0 W/m -0,4 C 9,8 C 4,8 km/h (1 Bft) 98,00 %
22.04.2019 01:46 9,8 C 15,0 C 3,3 C 49 % 1014,3 hPa 0,0 l/m 2,9 km/h (1 Bft) O 82 0 min 0,000 mm 0,0 UV-I 0 W/m -0,4 C 9,8 C 4,8 km/h (1 Bft) 97,87 %
22.04.2019 01:48 9,7 C 15,0 C 3,3 C 50 % 1014,2 hPa 0,0 l/m 3,2 km/h (1 Bft) O 86 0 min 0,000 mm 0,0 UV-I 0 W/m -0,2 C 9,7 C 4,8 km/h (1 Bft) 97,87 %
22.04.2019 01:50 9,5 C 15,0 C 3,9 C 50 % 1014,2 hPa 0,0 l/m 2,6 km/h (1 Bft) O 86 0 min 0,000 mm 0,0 UV-I 0 W/m -0,4 C 9,5 C 3,2 km/h (1 Bft) 95,74 %
22.04.2019 01:52 9,5 C 15,0 C 3,9 C 50 % 1014,2 hPa 0,0 l/m 3,5 km/h (1 Bft) O 90 0 min 0,000 mm 0,0 UV-I 0 W/m -0,4 C 9,5 C 4,8 km/h (1 Bft) 98,00 %
22.04.2019 01:54 9,4 C 15,0 C 3,9 C 51 % 1014,2 hPa 0,0 l/m 2,6 km/h (1 Bft) O 91 0 min 0,000 mm 0,0 UV-I 0 W/m -0,2 C 9,4 C 4,8 km/h (1 Bft) 97,14 %
22.04.2019 01:56 9,3 C 15,0 C 3,9 C 52 % 1014,1 hPa 0,0 l/m 1,9 km/h (1 Bft) O 91 0 min 0,000 mm 0,0 UV-I 0 W/m -0,0 C 9,3 C 3,2 km/h (1 Bft) 98,11 %
22.04.2019 01:58 9,0 C 15,0 C 3,9 C 53 % 1014,1 hPa 0,0 l/m 1,6 km/h (1 Bft) O 91 0 min 0,000 mm 0,0 UV-I 0 W/m -0,1 C 9,0 C 3,2 km/h (1 Bft) 95,74 %
22.04.2019 02:00 8,8 C 15,0 C 3,9 C 53 % 1014,1 hPa 0,0 l/m 1,7 km/h (1 Bft) O 91 0 min 0,025 mm 0,0 UV-I 0 W/m -0,2 C 8,8 C 3,2 km/h (1 Bft) 97,87 %
22.04.2019 02:02 8,7 C 15,0 C 3,9 C 55 % 1014,1 hPa 0,0 l/m 1,5 km/h (1 Bft) O 91 0 min 0,000 mm 0,0 UV-I 0 W/m 0,2 C 8,7 C 3,2 km/h (1 Bft) 97,87 %
22.04.2019 02:04 8,6 C 15,0 C 3,3 C 55 % 1014,1 hPa 0,0 l/m 0,7 km/h (0 Bft) O 91 0 min 0,000 mm 0,0 UV-I 0 W/m 0,1 C 8,6 C 1,6 km/h (1 Bft) 97,87 %
22.04.2019 02:06 8,7 C 15,0 C 3,3 C 54 % 1014,0 hPa 0,0 l/m 0,0 km/h (0 Bft) O 91 0 min 0,000 mm 0,0 UV-I 0 W/m -0,1 C 8,7 C 0,0 km/h (0 Bft) 100,00 %
22.04.2019 02:08 8,7 C 15,0 C 3,3 C 55 % 1014,0 hPa 0,0 l/m 0,3 km/h (0 Bft) O 91 0 min 0,000 mm 0,0 UV-I 0 W/m 0,2 C 8,7 C 1,6 km/h (1 Bft) 100,00 %
22.04.2019 02:10 8,7 C 15,0 C 2,8 C 55 % 1014,0 hPa 0,0 l/m 0,0 km/h (0 Bft) O 91 0 min 0,000 mm 0,0 UV-I 0 W/m 0,2 C 8,7 C 0,0 km/h (0 Bft) 97,87 %
22.04.2019 02:12 8,7 C 15,0 C 3,3 C 54 % 1013,9 hPa 0,0 l/m 0,5 km/h (0 Bft) O 91 0 min 0,000 mm 0,0 UV-I 0 W/m -0,1 C 8,7 C 1,6 km/h (1 Bft) 98,00 %
22.04.2019 02:14 8,7 C 15,0 C 3,3 C 54 % 1013,9 hPa 0,0 l/m 1,0 km/h (0 Bft) O 91 0 min 0,000 mm 0,0 UV-I 0 W/m -0,1 C 8,7 C 1,6 km/h (1 Bft) 100,00 %
22.04.2019 02:16 8,7 C 15,0 C 3,3 C 54 % 1013,9 hPa 0,0 l/m 1,6 km/h (1 Bft) O 91 0 min 0,000 mm 0,0 UV-I 0 W/m -0,1 C 8,7 C 3,2 km/h (1 Bft) 100,00 %
22.04.2019 02:18 8,7 C 15,0 C 2,8 C 53 % 1013,9 hPa 0,0 l/m 1,3 km/h (1 Bft) O 91 0 min 0,000 mm 0,0 UV-I 0 W/m -0,3 C 8,7 C 3,2 km/h (1 Bft) 100,00 %
22.04.2019 02:20 8,8 C 15,0 C 2,8 C 53 % 1013,9 hPa 0,0 l/m 0,7 km/h (0 Bft) O 91 0 min 0,000 mm 0,0 UV-I 0 W/m -0,2 C 8,8 C 1,6 km/h (1 Bft) 100,00 %
22.04.2019 02:22 8,8 C 15,0 C 2,8 C 54 % 1013,9 hPa 0,0 l/m 0,1 km/h (0 Bft) O 91 0 min 0,000 mm 0,0 UV-I 0 W/m 0,0 C 8,8 C 1,6 km/h (1 Bft) 100,00 %
22.04.2019 02:24 8,3 C 15,0 C 2,8 C 55 % 1013,8 hPa 0,0 l/m 0,0 km/h (0 Bft) O 91 0 min 0,000 mm 0,0 UV-I 0 W/m -0,2 C 8,3 C 0,0 km/h (0 Bft) 100,00 %
22.04.2019 02:26 8,0 C 15,0 C 2,8 C 56 % 1013,8 hPa 0,0 l/m 0,0 km/h (0 Bft) O 91 0 min 0,000 mm 0,0 UV-I 0 W/m -0,2 C 8,0 C 0,0 km/h (0 Bft) 98,00 %
22.04.2019 02:28 7,8 C 15,0 C 2,8 C 56 % 1013,7 hPa 0,0 l/m 0,0 km/h (0 Bft) O 91 0 min 0,000 mm 0,0 UV-I 0 W/m -0,4 C 7,8 C 0,0 km/h (0 Bft) 100,00 %
22.04.2019 02:30 7,9 C 15,0 C 2,8 C 56 % 1013,7 hPa 0,0 l/m 0,0 km/h (0 Bft) O 91 0 min 0,000 mm 0,0 UV-I 0 W/m -0,3 C 7,9 C 0,0 km/h (0 Bft) 100,00 %
22.04.2019 02:32 7,8 C 15,0 C 2,8 C 56 % 1013,7 hPa 0,0 l/m 0,0 km/h (0 Bft) O 91 0 min 0,000 mm 0,0 UV-I 0 W/m -0,4 C 7,8 C 0,0 km/h (0 Bft) 100,00 %
22.04.2019 02:34 7,9 C 15,0 C 2,8 C 56 % 1013,7 hPa 0,0 l/m 0,0 km/h (0 Bft) O 91 0 min 0,000 mm 0,0 UV-I 0 W/m -0,3 C 7,9 C 0,0 km/h (0 Bft) 100,00 %
22.04.2019 02:36 8,1 C 15,0 C 2,8 C 55 % 1013,7 hPa 0,0 l/m 0,3 km/h (0 Bft) O 91 0 min 0,000 mm 0,0 UV-I 0 W/m -0,4 C 8,1 C 1,6 km/h (1 Bft) 100,00 %
22.04.2019 02:38 8,1 C 15,0 C 2,8 C 55 % 1013,7 hPa 0,0 l/m 0,9 km/h (0 Bft) O 91 0 min 0,000 mm 0,0 UV-I 0 W/m -0,4 C 8,1 C 1,6 km/h (1 Bft) 100,00 %
22.04.2019 02:40 8,2 C 15,0 C 2,8 C 55 % 1013,7 hPa 0,0 l/m 1,4 km/h (1 Bft) O 91 0 min 0,000 mm 0,0 UV-I 0 W/m -0,3 C 8,2 C 1,6 km/h (1 Bft) 100,00 %
22.04.2019 02:42 8,3 C 15,0 C 2,2 C 54 % 1013,6 hPa 0,0 l/m 1,1 km/h (1 Bft) O 91 0 min 0,000 mm 0,0 UV-I 0 W/m -0,5 C 8,3 C 1,6 km/h (1 Bft) 100,00 %
22.04.2019 02:44 8,3 C 15,0 C 2,2 C 54 % 1013,6 hPa 0,0 l/m 1,0 km/h (0 Bft) O 91 0 min 0,000 mm 0,0 UV-I 0 W/m -0,5 C 8,3 C 1,6 km/h (1 Bft) 100,00 %
22.04.2019 02:46 8,4 C 15,0 C 1,7 C 53 % 1013,6 hPa 0,0 l/m 0,8 km/h (0 Bft) O 91 0 min 0,000 mm 0,0 UV-I 0 W/m -0,6 C 8,4 C 1,6 km/h (1 Bft) 100,00 %
22.04.2019 02:48 8,4 C 15,0 C 1,7 C 54 % 1013,6 hPa 0,0 l/m 0,1 km/h (0 Bft) O 91 0 min 0,000 mm 0,0 UV-I 0 W/m -0,4 C 8,4 C 1,6 km/h (1 Bft) 95,83 %
22.04.2019 02:50 8,3 C 15,0 C 1,7 C 54 % 1013,6 hPa 0,0 l/m 0,4 km/h (0 Bft) O 91 0 min 0,000 mm 0,0 UV-I 0 W/m -0,5 C 8,3 C 1,6 km/h (1 Bft) 100,00 %
22.04.2019 02:52 8,1 C 15,0 C 2,2 C 55 % 1013,6 hPa 0,0 l/m 0,0 km/h (0 Bft) O 91 0 min 0,000 mm 0,0 UV-I 0 W/m -0,4 C 8,1 C 0,0 km/h (0 Bft) 100,00 %
22.04.2019 02:54 8,2 C 15,0 C 1,7 C 54 % 1013,6 hPa 0,0 l/m 1,1 km/h (1 Bft) O 91 0 min 0,000 mm 0,0 UV-I 0 W/m -0,5 C 8,2 C 1,6 km/h (1 Bft) 95,74 %
22.04.2019 02:56 8,3 C 15,0 C 1,7 C 54 % 1013,6 hPa 0,0 l/m 2,0 km/h (1 Bft) O 91 0 min 0,000 mm 0,0 UV-I 0 W/m -0,5 C 8,3 C 3,2 km/h (1 Bft) 97,87 %
22.04.2019 02:58 8,3 C 15,0 C 1,7 C 53 % 1013,6 hPa 0,0 l/m 2,8 km/h (1 Bft) O 90 0 min 0,000 mm 0,0 UV-I 0 W/m -0,7 C 8,3 C 3,2 km/h (1 Bft) 97,87 %
22.04.2019 03:00 8,3 C 15,0 C 1,7 C 53 % 1013,5 hPa 0,0 l/m 3,7 km/h (1 Bft) O-NO 70 0 min 0,000 mm 0,0 UV-I 0 W/m -0,7 C 8,3 C 4,8 km/h (1 Bft) 93,62 %
22.04.2019 03:02 8,1 C 15,0 C 1,7 C 54 % 1013,5 hPa 0,0 l/m 4,3 km/h (1 Bft) NO 51 0 min 0,000 mm 0,0 UV-I 0 W/m -0,6 C 8,1 C 6,4 km/h (2 Bft) 95,74 %
22.04.2019 03:04 8,2 C 15,0 C 2,2 C 54 % 1013,5 hPa 0,0 l/m 4,7 km/h (1 Bft) NO 51 0 min 0,000 mm 0,0 UV-I 0 W/m -0,5 C 8,2 C 6,4 km/h (2 Bft) 91,49 %
22.04.2019 03:06 8,3 C 15,0 C 2,2 C 54 % 1013,5 hPa 0,0 l/m 4,3 km/h (1 Bft) O-NO 57 0 min 0,000 mm 0,0 UV-I 0 W/m -0,5 C 8,3 C 6,4 km/h (2 Bft) 95,74 %
22.04.2019 03:08 8,2 C 15,0 C 2,2 C 55 % 1013,5 hPa 0,0 l/m 3,8 km/h (1 Bft) O 83 0 min 0,000 mm 0,0 UV-I 0 W/m -0,3 C 8,2 C 6,4 km/h (2 Bft) 90,00 %
22.04.2019 03:10 8,1 C 15,0 C 2,2 C 55 % 1013,5 hPa 0,0 l/m 2,0 km/h (1 Bft) O 83 0 min 0,000 mm 0,0 UV-I 0 W/m -0,4 C 8,1 C 3,2 km/h (1 Bft) 95,74 %
22.04.2019 03:12 7,9 C 15,0 C 2,2 C 56 % 1013,5 hPa 0,0 l/m 2,1 km/h (1 Bft) O 88 0 min 0,000 mm 0,0 UV-I 0 W/m -0,3 C 7,9 C 3,2 km/h (1 Bft) 95,74 %
22.04.2019 03:14 7,8 C 15,0 C 2,2 C 57 % 1013,5 hPa 0,0 l/m 2,6 km/h (1 Bft) O 96 0 min 0,000 mm 0,0 UV-I 0 W/m -0,2 C 7,8 C 3,2 km/h (1 Bft) 95,74 %
22.04.2019 03:16 7,6 C 15,0 C 2,8 C 57 % 1013,5 hPa 0,0 l/m 3,0 km/h (1 Bft) SO 132 0 min 0,000 mm 0,0 UV-I 0 W/m -0,4 C 7,6 C 4,8 km/h (1 Bft) 95,74 %
22.04.2019 03:18 7,2 C 15,0 C 3,3 C 59 % 1013,5 hPa 0,0 l/m 2,7 km/h (1 Bft) SO 132 0 min 0,000 mm 0,0 UV-I 0 W/m -0,3 C 7,2 C 3,2 km/h (1 Bft) 95,74 %
22.04.2019 03:20 6,9 C 15,0 C 3,3 C 61 % 1013,5 hPa 0,0 l/m 1,0 km/h (0 Bft) SO 132 0 min 0,000 mm 0,0 UV-I 0 W/m -0,1 C 6,9 C 1,6 km/h (1 Bft) 97,56 %
22.04.2019 03:22 6,8 C 15,0 C 2,8 C 61 % 1013,4 hPa 0,0 l/m 1,8 km/h (1 Bft) SO 132 0 min 0,000 mm 0,0 UV-I 0 W/m -0,2 C 6,8 C 4,8 km/h (1 Bft) 91,49 %
22.04.2019 03:24 6,9 C 15,0 C 2,8 C 60 % 1013,4 hPa 0,0 l/m 2,9 km/h (1 Bft) SO 132 0 min 0,000 mm 0,0 UV-I 0 W/m -0,3 C 6,9 C 4,8 km/h (1 Bft) 95,92 %
22.04.2019 03:26 7,7 C 15,0 C 2,2 C 58 % 1013,3 hPa 0,0 l/m 2,8 km/h (1 Bft) SO 132 0 min 0,000 mm 0,0 UV-I 0 W/m -0,0 C 7,7 C 3,2 km/h (1 Bft) 96,00 %
22.04.2019 03:28 8,3 C 15,0 C 2,2 C 55 % 1013,3 hPa 0,0 l/m 2,5 km/h (1 Bft) SO 132 0 min 0,000 mm 0,0 UV-I 0 W/m -0,2 C 8,3 C 3,2 km/h (1 Bft) 97,87 %
22.04.2019 03:30 8,6 C 14,4 C 2,2 C 53 % 1013,3 hPa 0,0 l/m 2,6 km/h (1 Bft) SO 132 0 min 0,000 mm 0,0 UV-I 0 W/m -0,4 C 8,6 C 3,2 km/h (1 Bft) 97,87 %
22.04.2019 03:32 8,8 C 14,4 C 1,7 C 53 % 1013,3 hPa 0,0 l/m 0,8 km/h (0 Bft) SO 132 0 min 0,000 mm 0,0 UV-I 0 W/m -0,2 C 8,8 C 3,2 km/h (1 Bft) 93,62 %
22.04.2019 03:34 8,3 C 14,4 C 2,2 C 55 % 1013,4 hPa 0,0 l/m 0,0 km/h (0 Bft) SO 132 0 min 0,000 mm 0,0 UV-I 0 W/m -0,2 C 8,3 C 0,0 km/h (0 Bft) 97,96 %
22.04.2019 03:36 7,5 C 14,4 C 2,8 C 58 % 1013,4 hPa 0,0 l/m 0,1 km/h (0 Bft) SO 132 0 min 0,000 mm 0,0 UV-I 0 W/m -0,2 C 7,5 C 1,6 km/h (1 Bft) 100,00 %
22.04.2019 03:38 6,9 C 14,4 C 2,8 C 60 % 1013,4 hPa 0,0 l/m 0,2 km/h (0 Bft) SO 132 0 min 0,000 mm 0,0 UV-I 0 W/m -0,3 C 6,9 C 1,6 km/h (1 Bft) 100,00 %
22.04.2019 03:40 6,7 C 14,4 C 2,2 C 61 % 1013,4 hPa 0,0 l/m 1,0 km/h (0 Bft) SO 132 0 min 0,000 mm 0,0 UV-I 0 W/m -0,3 C 6,7 C 1,6 km/h (1 Bft) 97,87 %
22.04.2019 03:42 6,6 C 14,4 C 2,2 C 62 % 1013,3 hPa 0,0 l/m 0,2 km/h (0 Bft) SO 132 0 min 0,000 mm 0,0 UV-I 0 W/m -0,1 C 6,6 C 1,6 km/h (1 Bft) 100,00 %
22.04.2019 03:44 6,5 C 14,4 C 2,2 C 63 % 1013,3 hPa 0,0 l/m 0,6 km/h (0 Bft) SO 132 0 min 0,000 mm 0,0 UV-I 0 W/m -0,0 C 6,5 C 3,2 km/h (1 Bft) 100,00 %
22.04.2019 03:46 6,4 C 14,4 C 2,8 C 63 % 1013,3 hPa 0,0 l/m 2,6 km/h (1 Bft) SO 134 0 min 0,000 mm 0,0 UV-I 0 W/m -0,1 C 6,4 C 4,8 km/h (1 Bft) 98,00 %
22.04.2019 03:48 6,2 C 14,4 C 3,3 C 64 % 1013,3 hPa 0,0 l/m 6,0 km/h (2 Bft) S 173 0 min 0,000 mm 0,0 UV-I 0 W/m -0,1 C 6,2 C 8,0 km/h (2 Bft) 98,00 %
22.04.2019 03:50 6,1 C 14,4 C 3,3 C 64 % 1013,2 hPa 0,0 l/m 6,0 km/h (2 Bft) S 174 0 min 0,000 mm 0,0 UV-I 0 W/m -0,2 C 6,1 C 8,0 km/h (2 Bft) 98,00 %
22.04.2019 03:52 5,8 C 14,4 C 2,8 C 66 % 1013,2 hPa 0,0 l/m 5,8 km/h (2 Bft) S 175 0 min 0,000 mm 0,0 UV-I 0 W/m -0,0 C 5,8 C 8,0 km/h (2 Bft) 97,37 %
22.04.2019 03:54 5,6 C 14,4 C 2,8 C 66 % 1013,2 hPa 0,0 l/m 4,9 km/h (1 Bft) S 179 0 min 0,000 mm 0,0 UV-I 0 W/m -0,2 C 5,6 C 6,4 km/h (2 Bft) 98,00 %
22.04.2019 03:56 5,4 C 14,4 C 2,2 C 67 % 1013,2 hPa 0,0 l/m 4,8 km/h (1 Bft) S 179 0 min 0,000 mm 0,0 UV-I 0 W/m -0,2 C 5,4 C 6,4 km/h (2 Bft) 97,87 %
22.04.2019 03:58 5,3 C 14,4 C 2,2 C 68 % 1013,2 hPa 0,0 l/m 4,5 km/h (1 Bft) S 179 0 min 0,000 mm 0,0 UV-I 0 W/m -0,1 C 5,3 C 4,8 km/h (1 Bft) 97,87 %
22.04.2019 04:00 5,6 C 14,4 C 1,7 C 67 % 1013,2 hPa 0,0 l/m 4,5 km/h (1 Bft) S 179 0 min 0,026 mm 0,0 UV-I 0 W/m -0,0 C 5,6 C 4,8 km/h (1 Bft) 93,62 %
22.04.2019 04:02 5,7 C 14,4 C 1,7 C 67 % 1013,1 hPa 0,0 l/m 4,7 km/h (1 Bft) S 179 0 min 0,000 mm 0,0 UV-I 0 W/m 0,1 C 5,7 C 4,8 km/h (1 Bft) 100,00 %
22.04.2019 04:04 5,8 C 14,4 C 1,7 C 66 % 1013,1 hPa 0,0 l/m 4,3 km/h (1 Bft) S 179 0 min 0,000 mm 0,0 UV-I 0 W/m -0,0 C 5,8 C 4,8 km/h (1 Bft) 95,74 %
22.04.2019 04:06 5,9 C 14,4 C 1,1 C 65 % 1013,1 hPa 0,0 l/m 3,8 km/h (1 Bft) S 179 0 min 0,000 mm 0,0 UV-I 0 W/m -0,2 C 5,9 C 4,8 km/h (1 Bft) 97,87 %
22.04.2019 04:08 5,7 C 14,4 C 1,7 C 66 % 1013,1 hPa 0,0 l/m 4,0 km/h (1 Bft) S 179 0 min 0,000 mm 0,0 UV-I 0 W/m -0,1 C 5,7 C 4,8 km/h (1 Bft) 95,74 %
22.04.2019 04:10 5,6 C 14,4 C 1,1 C 67 % 1013,0 hPa 0,0 l/m 3,9 km/h (1 Bft) S 179 0 min 0,000 mm 0,0 UV-I 0 W/m -0,0 C 5,6 C 4,8 km/h (1 Bft) 96,00 %
22.04.2019 04:12 5,6 C 14,4 C 1,1 C 66 % 1013,0 hPa 0,0 l/m 3,1 km/h (1 Bft) S 179 0 min 0,000 mm 0,0 UV-I 0 W/m -0,2 C 5,6 C 4,8 km/h (1 Bft) 95,74 %
22.04.2019 04:14 5,6 C 14,4 C 1,7 C 66 % 1013,0 hPa 0,0 l/m 2,9 km/h (1 Bft) S 179 0 min 0,000 mm 0,0 UV-I 0 W/m -0,2 C 5,6 C 3,2 km/h (1 Bft) 91,67 %
22.04.2019 04:16 5,8 C 14,4 C 1,7 C 66 % 1012,9 hPa 0,0 l/m 1,8 km/h (1 Bft) S 179 0 min 0,000 mm 0,0 UV-I 0 W/m -0,0 C 5,8 C 3,2 km/h (1 Bft) 93,55 %
22.04.2019 04:18 5,8 C 14,4 C 1,7 C 65 % 1013,0 hPa 0,0 l/m 2,5 km/h (1 Bft) S 178 0 min 0,000 mm 0,0 UV-I 0 W/m -0,3 C 5,8 C 4,8 km/h (1 Bft) 93,62 %
22.04.2019 04:20 5,9 C 14,4 C 1,7 C 65 % 1013,0 hPa 0,0 l/m 2,5 km/h (1 Bft) S 177 0 min 0,000 mm 0,0 UV-I 0 W/m -0,2 C 5,9 C 3,2 km/h (1 Bft) 93,62 %
22.04.2019 04:22 6,1 C 14,4 C 1,7 C 64 % 1012,9 hPa 0,0 l/m 3,1 km/h (1 Bft) S 177 0 min 0,000 mm 0,0 UV-I 0 W/m -0,2 C 6,1 C 4,8 km/h (1 Bft) 89,36 %
22.04.2019 04:24 6,2 C 14,4 C 1,1 C 64 % 1012,9 hPa 0,0 l/m 2,2 km/h (1 Bft) S 178 0 min 0,000 mm 0,0 UV-I 0 W/m -0,1 C 6,2 C 3,2 km/h (1 Bft) 96,00 %
22.04.2019 04:26 6,2 C 14,4 C 1,1 C 64 % 1012,8 hPa 0,0 l/m 2,1 km/h (1 Bft) S 177 0 min 0,000 mm 0,0 UV-I 0 W/m -0,1 C 6,2 C 3,2 km/h (1 Bft) 95,74 %
22.04.2019 04:28 6,4 C 14,4 C 1,1 C 64 % 1012,9 hPa 0,0 l/m 2,4 km/h (1 Bft) S 177 0 min 0,000 mm 0,0 UV-I 0 W/m 0,1 C 6,4 C 3,2 km/h (1 Bft) 96,00 %
22.04.2019 04:30 6,8 C 14,4 C 1,1 C 62 % 1012,9 hPa 0,0 l/m 2,1 km/h (1 Bft) S 177 0 min 0,000 mm 0,0 UV-I 0 W/m 0,0 C 6,8 C 3,2 km/h (1 Bft) 94,00 %
22.04.2019 04:32 6,9 C 14,4 C 1,1 C 62 % 1012,9 hPa 0,0 l/m 0,1 km/h (0 Bft) S 177 0 min 0,000 mm 0,0 UV-I 0 W/m 0,1 C 6,9 C 1,6 km/h (1 Bft) 95,74 %
22.04.2019 04:34 6,6 C 14,4 C 1,7 C 63 % 1012,8 hPa 0,0 l/m 0,3 km/h (0 Bft) S 177 0 min 0,000 mm 0,0 UV-I 0 W/m 0,1 C 6,6 C 1,6 km/h (1 Bft) 97,87 %
22.04.2019 04:36 6,1 C 14,4 C 2,2 C 64 % 1012,8 hPa 0,0 l/m 1,9 km/h (1 Bft) S 177 0 min 0,000 mm 0,0 UV-I 0 W/m -0,2 C 6,1 C 3,2 km/h (1 Bft) 97,14 %
22.04.2019 04:38 5,8 C 14,4 C 1,7 C 65 % 1012,8 hPa 0,0 l/m 1,3 km/h (1 Bft) S 177 0 min 0,000 mm 0,0 UV-I 0 W/m -0,3 C 5,8 C 3,2 km/h (1 Bft) 95,74 %
22.04.2019 04:40 5,6 C 14,4 C 1,7 C 67 % 1012,8 hPa 0,0 l/m 0,7 km/h (0 Bft) S 177 0 min 0,000 mm 0,0 UV-I 0 W/m -0,0 C 5,6 C 1,6 km/h (1 Bft) 97,87 %
22.04.2019 04:42 5,7 C 14,4 C 1,7 C 67 % 1012,8 hPa 0,0 l/m 0,0 km/h (0 Bft) S 177 0 min 0,000 mm 0,0 UV-I 0 W/m 0,1 C 5,7 C 0,0 km/h (0 Bft) 100,00 %
22.04.2019 04:44 5,8 C 14,4 C 2,2 C 67 % 1012,8 hPa 0,0 l/m 0,4 km/h (0 Bft) S 177 0 min 0,000 mm 0,0 UV-I 0 W/m 0,2 C 5,8 C 1,6 km/h (1 Bft) 97,92 %
22.04.2019 04:46 5,8 C 14,4 C 2,2 C 67 % 1012,7 hPa 0,0 l/m 0,3 km/h (0 Bft) S 177 0 min 0,000 mm 0,0 UV-I 0 W/m 0,2 C 5,8 C 1,6 km/h (1 Bft) 93,62 %
22.04.2019 04:48 5,7 C 14,4 C 2,2 C 67 % 1012,8 hPa 0,0 l/m 0,1 km/h (0 Bft) S 177 0 min 0,000 mm 0,0 UV-I 0 W/m 0,1 C 5,7 C 1,6 km/h (1 Bft) 100,00 %
22.04.2019 04:50 5,6 C 14,4 C 2,2 C 67 % 1012,8 hPa 0,0 l/m 0,0 km/h (0 Bft) S 177 0 min 0,000 mm 0,0 UV-I 0 W/m -0,0 C 5,6 C 0,0 km/h (0 Bft) 97,87 %
22.04.2019 04:52 5,6 C 14,4 C 2,2 C 67 % 1012,7 hPa 0,0 l/m 0,0 km/h (0 Bft) S 177 0 min 0,000 mm 0,0 UV-I 0 W/m -0,0 C 5,6 C 0,0 km/h (0 Bft) 100,00 %
22.04.2019 04:54 5,5 C 14,4 C 2,2 C 67 % 1012,7 hPa 0,0 l/m 0,1 km/h (0 Bft) S 177 0 min 0,000 mm 0,0 UV-I 0 W/m -0,1 C 5,5 C 1,6 km/h (1 Bft) 97,87 %
22.04.2019 04:56 5,4 C 14,4 C 2,2 C 67 % 1012,7 hPa 0,0 l/m 1,2 km/h (1 Bft) S 177 0 min 0,000 mm 0,0 UV-I 0 W/m -0,2 C 5,4 C 1,6 km/h (1 Bft) 97,87 %
22.04.2019 04:58 5,3 C 14,4 C 2,2 C 67 % 1012,7 hPa 0,0 l/m 1,8 km/h (1 Bft) S 177 0 min 0,000 mm 0,0 UV-I 0 W/m -0,3 C 5,3 C 3,2 km/h (1 Bft) 100,00 %
22.04.2019 05:00 5,2 C 14,4 C 2,2 C 68 % 1012,7 hPa 0,0 l/m 1,1 km/h (1 Bft) S 177 0 min 0,000 mm 0,0 UV-I 0 W/m -0,2 C 5,2 C 1,6 km/h (1 Bft) 96,00 %
22.04.2019 05:02 5,0 C 14,4 C 2,2 C 69 % 1012,7 hPa 0,0 l/m 0,6 km/h (0 Bft) S 177 0 min 0,000 mm 0,0 UV-I 0 W/m -0,2 C 5,0 C 1,6 km/h (1 Bft) 100,00 %
22.04.2019 05:04 5,0 C 14,4 C 2,8 C 70 % 1012,6 hPa 0,0 l/m 0,3 km/h (0 Bft) S 177 0 min 0,000 mm 0,0 UV-I 0 W/m -0,0 C 5,0 C 1,6 km/h (1 Bft) 100,00 %
22.04.2019 05:06 5,1 C 14,4 C 2,2 C 69 % 1012,6 hPa 0,0 l/m 0,9 km/h (0 Bft) S 177 0 min 0,000 mm 0,0 UV-I 0 W/m -0,1 C 5,1 C 3,2 km/h (1 Bft) 97,87 %
22.04.2019 05:08 5,1 C 14,4 C 2,2 C 69 % 1012,6 hPa 0,0 l/m 2,7 km/h (1 Bft) S 177 0 min 0,000 mm 0,0 UV-I 0 W/m -0,1 C 5,1 C 3,2 km/h (1 Bft) 100,00 %
22.04.2019 05:10 5,1 C 14,4 C 1,7 C 69 % 1012,7 hPa 0,0 l/m 2,4 km/h (1 Bft) S 177 0 min 0,000 mm 0,0 UV-I 0 W/m -0,1 C 5,1 C 3,2 km/h (1 Bft) 100,00 %
22.04.2019 05:12 5,1 C 14,4 C 1,1 C 69 % 1012,6 hPa 0,0 l/m 2,9 km/h (1 Bft) S 177 0 min 0,000 mm 0,0 UV-I 0 W/m -0,1 C 5,1 C 3,2 km/h (1 Bft) 98,00 %
22.04.2019 05:14 5,0 C 14,4 C 1,7 C 69 % 1012,6 hPa 0,0 l/m 2,4 km/h (1 Bft) S 177 0 min 0,000 mm 0,0 UV-I 0 W/m -0,2 C 5,0 C 3,2 km/h (1 Bft) 100,00 %
22.04.2019 05:16 5,0 C 14,4 C 1,7 C 70 % 1012,6 hPa 0,0 l/m 3,8 km/h (1 Bft) S 182 0 min 0,000 mm 0,0 UV-I 0 W/m -0,0 C 5,0 C 6,4 km/h (2 Bft) 100,00 %
22.04.2019 05:18 4,9 C 14,4 C 2,2 C 70 % 1012,6 hPa 0,0 l/m 4,9 km/h (1 Bft) S 188 0 min 0,000 mm 0,0 UV-I 0 W/m -0,1 C 4,9 C 6,4 km/h (2 Bft) 100,00 %
22.04.2019 05:20 4,9 C 14,4 C 2,2 C 70 % 1012,6 hPa 0,0 l/m 4,3 km/h (1 Bft) S 188 0 min 0,000 mm 0,0 UV-I 0 W/m -0,1 C 4,9 C 6,4 km/h (2 Bft) 97,87 %
22.04.2019 05:22 4,8 C 14,4 C 2,2 C 71 % 1012,6 hPa 0,0 l/m 3,6 km/h (1 Bft) S 188 0 min 0,000 mm 0,0 UV-I 0 W/m -0,0 C 4,8 C 4,8 km/h (1 Bft) 96,00 %
22.04.2019 05:24 4,6 C 14,4 C 2,2 C 72 % 1012,6 hPa 0,0 l/m 3,2 km/h (1 Bft) S 188 0 min 0,000 mm 0,0 UV-I 0 W/m -0,0 C 4,6 C 4,8 km/h (1 Bft) 95,74 %
22.04.2019 05:26 4,6 C 14,4 C 1,7 C 72 % 1012,6 hPa 0,0 l/m 3,7 km/h (1 Bft) S 188 0 min 0,000 mm 0,0 UV-I 0 W/m -0,0 C 4,6 C 4,8 km/h (1 Bft) 95,74 %
22.04.2019 05:28 4,4 C 14,4 C 2,2 C 72 % 1012,6 hPa 0,0 l/m 2,8 km/h (1 Bft) S 188 0 min 0,000 mm 0,0 UV-I 0 W/m -0,2 C 4,4 C 3,2 km/h (1 Bft) 94,44 %
22.04.2019 05:30 4,3 C 14,4 C 1,7 C 73 % 1012,5 hPa 0,0 l/m 2,1 km/h (1 Bft) S 188 0 min 0,000 mm 0,0 UV-I 0 W/m -0,1 C 4,3 C 3,2 km/h (1 Bft) 97,87 %
22.04.2019 05:32 4,4 C 14,4 C 1,7 C 73 % 1012,5 hPa 0,0 l/m 1,4 km/h (1 Bft) S 188 0 min 0,000 mm 0,0 UV-I 0 W/m -0,0 C 4,4 C 3,2 km/h (1 Bft) 95,74 %
22.04.2019 05:34 4,5 C 14,4 C 1,7 C 73 % 1012,5 hPa 0,0 l/m 1,5 km/h (1 Bft) S 188 0 min 0,000 mm 0,0 UV-I 0 W/m 0,1 C 4,5 C 3,2 km/h (1 Bft) 97,87 %
22.04.2019 05:36 4,5 C 14,4 C 1,7 C 73 % 1012,5 hPa 0,0 l/m 2,0 km/h (1 Bft) S 188 0 min 0,000 mm 0,0 UV-I 0 W/m 0,1 C 4,5 C 3,2 km/h (1 Bft) 95,74 %
22.04.2019 05:38 4,6 C 14,4 C 2,2 C 72 % 1012,4 hPa 0,0 l/m 2,3 km/h (1 Bft) S 188 0 min 0,000 mm 0,0 UV-I 0 W/m -0,0 C 4,6 C 3,2 km/h (1 Bft) 98,00 %
22.04.2019 05:40 4,5 C 14,4 C 1,7 C 72 % 1012,4 hPa 0,0 l/m 2,4 km/h (1 Bft) S 188 0 min 0,000 mm 0,0 UV-I 0 W/m -0,1 C 4,5 C 3,2 km/h (1 Bft) 98,00 %
22.04.2019 05:42 4,3 C 14,4 C 1,7 C 73 % 1012,4 hPa 0,0 l/m 2,1 km/h (1 Bft) S 188 0 min 0,000 mm 0,0 UV-I 0 W/m -0,1 C 4,3 C 3,2 km/h (1 Bft) 95,74 %
22.04.2019 05:44 4,3 C 14,4 C 1,7 C 73 % 1012,4 hPa 0,0 l/m 1,3 km/h (1 Bft) S 188 0 min 0,000 mm 0,0 UV-I 0 W/m -0,1 C 4,3 C 3,2 km/h (1 Bft) 97,87 %
22.04.2019 05:46 4,3 C 14,4 C 1,1 C 73 % 1012,4 hPa 0,0 l/m 2,2 km/h (1 Bft) S 188 0 min 0,000 mm 0,0 UV-I 0 W/m -0,1 C 4,3 C 3,2 km/h (1 Bft) 97,87 %
22.04.2019 05:48 4,3 C 14,4 C 1,1 C 73 % 1012,4 hPa 0,0 l/m 1,7 km/h (1 Bft) S 188 0 min 0,000 mm 0,0 UV-I 3 W/m -0,1 C 4,3 C 3,2 km/h (1 Bft) 98,00 %
22.04.2019 05:50 4,4 C 14,4 C 1,1 C 74 % 1012,4 hPa 0,0 l/m 1,7 km/h (1 Bft) S 188 0 min 0,000 mm 0,0 UV-I 5 W/m 0,2 C 4,4 C 3,2 km/h (1 Bft) 97,87 %
22.04.2019 05:52 4,4 C 14,4 C 1,1 C 74 % 1012,4 hPa 0,0 l/m 1,9 km/h (1 Bft) S 188 0 min 0,000 mm 0,0 UV-I 5 W/m 0,2 C 4,4 C 3,2 km/h (1 Bft) 97,87 %
22.04.2019 05:54 4,5 C 14,4 C 1,1 C 73 % 1012,4 hPa 0,0 l/m 2,3 km/h (1 Bft) S 188 0 min 0,000 mm 0,0 UV-I 5 W/m 0,1 C 4,5 C 3,2 km/h (1 Bft) 97,87 %
22.04.2019 05:56 4,7 C 14,4 C 0,6 C 72 % 1012,4 hPa 0,0 l/m 2,9 km/h (1 Bft) SO 142 0 min 0,000 mm 0,0 UV-I 7 W/m 0,1 C 4,7 C 3,2 km/h (1 Bft) 97,14 %
22.04.2019 05:58 5,0 C 14,4 C 0,6 C 72 % 1012,4 hPa 0,0 l/m 3,2 km/h (1 Bft) SO 130 0 min 0,000 mm 0,0 UV-I 7 W/m 0,4 C 5,0 C 4,8 km/h (1 Bft) 98,00 %
22.04.2019 06:00 5,3 C 14,4 C 0,6 C 70 % 1012,4 hPa 0,0 l/m 2,5 km/h (1 Bft) SO 130 0 min 0,000 mm 0,0 UV-I 7 W/m 0,3 C 5,3 C 3,2 km/h (1 Bft) 93,75 %
22.04.2019 06:02 5,9 C 14,4 C 0,6 C 67 % 1012,4 hPa 0,0 l/m 2,5 km/h (1 Bft) SO 130 0 min 0,000 mm 0,0 UV-I 8 W/m 0,3 C 5,9 C 3,2 km/h (1 Bft) 95,92 %
22.04.2019 06:04 6,1 C 14,4 C 0,6 C 66 % 1012,3 hPa 0,0 l/m 2,4 km/h (1 Bft) SO 130 0 min 0,000 mm 0,0 UV-I 9 W/m 0,2 C 6,1 C 3,2 km/h (1 Bft) 93,75 %
22.04.2019 06:06 6,2 C 14,4 C 0,0 C 65 % 1012,3 hPa 0,0 l/m 2,4 km/h (1 Bft) SO 130 0 min 0,000 mm 0,0 UV-I 11 W/m 0,1 C 6,2 C 4,8 km/h (1 Bft) 98,00 %
22.04.2019 06:08 6,3 C 14,4 C 0,6 C 65 % 1012,3 hPa 0,0 l/m 2,4 km/h (1 Bft) SO 130 0 min 0,000 mm 0,0 UV-I 12 W/m 0,2 C 6,3 C 4,8 km/h (1 Bft) 97,87 %
22.04.2019 06:10 6,3 C 14,4 C 0,6 C 65 % 1012,3 hPa 0,0 l/m 2,6 km/h (1 Bft) SO 130 0 min 0,000 mm 0,0 UV-I 14 W/m 0,2 C 6,3 C 3,2 km/h (1 Bft) 97,37 %
22.04.2019 06:12 6,1 C 14,4 C 0,6 C 65 % 1012,3 hPa 0,0 l/m 3,6 km/h (1 Bft) SO 130 0 min 0,000 mm 0,0 UV-I 16 W/m 0,0 C 6,1 C 4,8 km/h (1 Bft) 97,87 %
22.04.2019 06:14 5,7 C 14,4 C 0,6 C 67 % 1012,2 hPa 0,0 l/m 4,6 km/h (1 Bft) SO 130 2 min 0,000 mm 0,0 UV-I 19 W/m 0,1 C 5,7 C 6,4 km/h (2 Bft) 98,11 %
22.04.2019 06:16 5,5 C 14,4 C 1,1 C 68 % 1012,2 hPa 0,0 l/m 4,1 km/h (1 Bft) O-SO 106 2 min 0,000 mm 0,0 UV-I 22 W/m 0,1 C 5,5 C 6,4 km/h (2 Bft) 95,74 %
22.04.2019 06:18 5,7 C 14,4 C 1,1 C 68 % 1012,2 hPa 0,0 l/m 4,1 km/h (1 Bft) O-SO 106 2 min 0,000 mm 0,0 UV-I 25 W/m 0,3 C 5,7 C 4,8 km/h (1 Bft) 97,87 %
22.04.2019 06:20 5,7 C 14,4 C 1,1 C 68 % 1012,2 hPa 0,0 l/m 4,0 km/h (1 Bft) O-SO 105 2 min 0,000 mm 0,0 UV-I 28 W/m 0,3 C 5,7 C 4,8 km/h (1 Bft) 97,87 %
22.04.2019 06:22 5,9 C 14,4 C 1,1 C 67 % 1012,2 hPa 0,0 l/m 3,7 km/h (1 Bft) O-SO 105 2 min 0,000 mm 0,0 UV-I 30 W/m 0,3 C 5,9 C 6,4 km/h (2 Bft) 97,87 %
22.04.2019 06:24 6,3 C 14,4 C 1,1 C 67 % 1012,2 hPa 0,0 l/m 3,8 km/h (1 Bft) O 86 2 min 0,000 mm 0,0 UV-I 32 W/m 0,6 C 6,3 C 6,4 km/h (2 Bft) 97,56 %
22.04.2019 06:26 6,7 C 14,4 C 1,7 C 65 % 1012,2 hPa 0,0 l/m 3,2 km/h (1 Bft) O-NO 72 0 min 0,000 mm 0,0 UV-I 26 W/m 0,6 C 6,7 C 4,8 km/h (1 Bft) 95,74 %
22.04.2019 06:28 6,9 C 14,4 C 1,7 C 64 % 1012,2 hPa 0,0 l/m 2,5 km/h (1 Bft) O-NO 72 2 min 0,000 mm 0,0 UV-I 37 W/m 0,6 C 6,9 C 3,2 km/h (1 Bft) 95,74 %
22.04.2019 06:30 7,1 C 14,4 C 1,7 C 64 % 1012,2 hPa 0,0 l/m 1,9 km/h (1 Bft) O-NO 72 2 min 0,000 mm 0,0 UV-I 49 W/m 0,8 C 7,1 C 3,2 km/h (1 Bft) 97,87 %
22.04.2019 06:32 7,2 C 14,4 C 1,7 C 63 % 1012,2 hPa 0,0 l/m 2,3 km/h (1 Bft) O-NO 72 2 min 0,000 mm 0,0 UV-I 53 W/m 0,6 C 7,2 C 3,2 km/h (1 Bft) 100,00 %
22.04.2019 06:34 7,0 C 14,4 C 1,7 C 64 % 1012,2 hPa 0,0 l/m 2,9 km/h (1 Bft) O-NO 76 2 min 0,000 mm 0,0 UV-I 57 W/m 0,7 C 7,0 C 4,8 km/h (1 Bft) 96,00 %
22.04.2019 06:36 6,9 C 14,4 C 2,2 C 64 % 1012,2 hPa 0,0 l/m 2,7 km/h (1 Bft) O 79 2 min 0,000 mm 0,0 UV-I 62 W/m 0,6 C 6,9 C 4,8 km/h (1 Bft) 97,87 %
22.04.2019 06:38 6,8 C 14,4 C 2,2 C 65 % 1012,1 hPa 0,0 l/m 2,8 km/h (1 Bft) O 80 2 min 0,000 mm 0,0 UV-I 56 W/m 0,7 C 6,8 C 4,8 km/h (1 Bft) 93,62 %
22.04.2019 06:40 6,7 C 14,4 C 2,2 C 65 % 1012,2 hPa 0,0 l/m 2,4 km/h (1 Bft) O 80 0 min 0,000 mm 0,0 UV-I 34 W/m 0,6 C 6,7 C 3,2 km/h (1 Bft) 95,74 %
22.04.2019 06:42 6,7 C 14,4 C 2,2 C 65 % 1012,2 hPa 0,0 l/m 1,7 km/h (1 Bft) O 80 0 min 0,000 mm 0,0 UV-I 30 W/m 0,6 C 6,7 C 3,2 km/h (1 Bft) 97,87 %
22.04.2019 06:44 6,8 C 14,4 C 2,8 C 66 % 1012,2 hPa 0,0 l/m 3,3 km/h (1 Bft) O 81 0 min 0,000 mm 0,0 UV-I 30 W/m 0,9 C 6,8 C 4,8 km/h (1 Bft) 95,74 %
22.04.2019 06:46 6,9 C 14,4 C 3,3 C 65 % 1012,2 hPa 0,0 l/m 3,4 km/h (1 Bft) O 90 0 min 0,000 mm 0,0 UV-I 50 W/m 0,8 C 6,9 C 4,8 km/h (1 Bft) 95,83 %
22.04.2019 06:48 7,2 C 14,4 C 3,3 C 64 % 1012,3 hPa 0,0 l/m 4,7 km/h (1 Bft) O-SO 103 2 min 0,000 mm 0,0 UV-I 85 W/m 0,9 C 7,2 C 9,7 km/h (2 Bft) 95,74 %
22.04.2019 06:51 7,3 C 14,4 C 3,9 C 64 % 1012,3 hPa 0,0 l/m 6,2 km/h (2 Bft) O-SO 105 3 min 0,000 mm 0,0 UV-I 93 W/m 1,0 C 7,3 C 11,3 km/h (2 Bft) 95,89 %
22.04.2019 06:52 7,3 C 14,4 C 3,9 C 64 % 1012,3 hPa 0,0 l/m 5,6 km/h (1 Bft) O-SO 104 1 min 0,000 mm 0,0 UV-I 97 W/m 1,0 C 7,3 C 9,7 km/h (2 Bft) 100,00 %
22.04.2019 06:54 7,4 C 14,4 C 4,4 C 63 % 1012,2 hPa 0,0 l/m 6,1 km/h (2 Bft) O 95 2 min 0,000 mm 0,0 UV-I 97 W/m 0,8 C 7,4 C 9,7 km/h (2 Bft) 100,00 %
22.04.2019 06:56 7,4 C 14,4 C 4,4 C 63 % 1012,2 hPa 0,0 l/m 5,4 km/h (1 Bft) O-NO 74 2 min 0,000 mm 0,0 UV-I 104 W/m 0,8 C 7,4 C 9,7 km/h (2 Bft) 100,00 %
22.04.2019 06:58 7,4 C 14,4 C 4,4 C 63 % 1012,3 hPa 0,0 l/m 3,6 km/h (1 Bft) O 81 2 min 0,000 mm 0,0 UV-I 110 W/m 0,8 C 7,4 C 6,4 km/h (2 Bft) 97,87 %
22.04.2019 07:00 7,4 C 14,4 C 4,4 C 64 % 1012,3 hPa 0,0 l/m 3,9 km/h (1 Bft) O-SO 112 2 min 0,025 mm 0,0 UV-I 114 W/m 1,0 C 7,4 C 6,4 km/h (2 Bft) 95,74 %
22.04.2019 07:02 7,4 C 14,4 C 4,4 C 65 % 1012,3 hPa 0,0 l/m 2,0 km/h (1 Bft) O-SO 112 2 min 0,000 mm 0,0 UV-I 120 W/m 1,3 C 7,4 C 6,4 km/h (2 Bft) 97,87 %
22.04.2019 07:04 7,0 C 14,4 C 4,4 C 66 % 1012,3 hPa 0,0 l/m 1,0 km/h (0 Bft) O-SO 112 2 min 0,000 mm 0,0 UV-I 125 W/m 1,1 C 7,0 C 1,6 km/h (1 Bft) 97,87 %
22.04.2019 07:06 6,8 C 14,4 C 4,4 C 67 % 1012,3 hPa 0,0 l/m 2,1 km/h (1 Bft) O-SO 123 2 min 0,000 mm 0,0 UV-I 130 W/m 1,1 C 6,8 C 6,4 km/h (2 Bft) 97,87 %
22.04.2019 07:08 6,7 C 14,4 C 4,4 C 68 % 1012,3 hPa 0,0 l/m 2,4 km/h (1 Bft) O-SO 123 2 min 0,000 mm 0,0 UV-I 135 W/m 1,2 C 6,7 C 4,8 km/h (1 Bft) 97,87 %
22.04.2019 07:10 6,9 C 14,4 C 4,4 C 68 % 1012,3 hPa 0,0 l/m 2,6 km/h (1 Bft) O-SO 119 2 min 0,000 mm 0,0 UV-I 140 W/m 1,4 C 6,9 C 4,8 km/h (1 Bft) 95,74 %
22.04.2019 07:12 7,1 C 14,4 C 4,4 C 68 % 1012,3 hPa 0,0 l/m 1,8 km/h (1 Bft) O-SO 119 2 min 0,000 mm 0,0 UV-I 146 W/m 1,6 C 7,1 C 3,2 km/h (1 Bft) 95,74 %
22.04.2019 07:14 7,3 C 14,4 C 4,4 C 67 % 1012,3 hPa 0,0 l/m 2,0 km/h (1 Bft) O-SO 119 2 min 0,000 mm 0,0 UV-I 150 W/m 1,6 C 7,3 C 3,2 km/h (1 Bft) 97,87 %
22.04.2019 07:16 7,6 C 14,4 C 4,4 C 66 % 1012,3 hPa 0,0 l/m 3,6 km/h (1 Bft) O-SO 119 2 min 0,000 mm 0,0 UV-I 156 W/m 1,7 C 7,6 C 6,4 km/h (2 Bft) 95,83 %
22.04.2019 07:18 7,9 C 14,4 C 5,0 C 64 % 1012,3 hPa 0,0 l/m 4,8 km/h (1 Bft) O 80 2 min 0,000 mm 0,0 UV-I 161 W/m 1,5 C 7,9 C 6,4 km/h (2 Bft) 97,87 %
22.04.2019 07:20 8,2 C 14,4 C 5,6 C 63 % 1012,3 hPa 0,0 l/m 5,3 km/h (1 Bft) O 80 2 min 0,000 mm 0,0 UV-I 167 W/m 1,6 C 8,2 C 9,7 km/h (2 Bft) 96,00 %
22.04.2019 07:22 8,4 C 14,4 C 5,6 C 62 % 1012,3 hPa 0,0 l/m 5,9 km/h (2 Bft) O 97 2 min 0,000 mm 0,0 UV-I 172 W/m 1,6 C 8,4 C 9,7 km/h (2 Bft) 95,74 %
22.04.2019 07:24 8,6 C 14,4 C 5,6 C 61 % 1012,3 hPa 0,0 l/m 5,3 km/h (1 Bft) O 95 2 min 0,000 mm 0,0 UV-I 179 W/m 1,5 C 8,6 C 9,7 km/h (2 Bft) 91,49 %
22.04.2019 07:26 8,7 C 14,4 C 6,1 C 61 % 1012,2 hPa 0,0 l/m 5,4 km/h (1 Bft) O-NO 65 2 min 0,000 mm 0,0 UV-I 184 W/m 1,6 C 8,7 C 9,7 km/h (2 Bft) 98,00 %
22.04.2019 07:28 8,7 C 14,4 C 6,1 C 61 % 1012,3 hPa 0,0 l/m 6,9 km/h (2 Bft) O 90 2 min 0,000 mm 0,0 UV-I 190 W/m 1,6 C 8,3 C 11,3 km/h (2 Bft) 95,74 %
22.04.2019 07:30 8,8 C 14,4 C 6,7 C 61 % 1012,3 hPa 0,0 l/m 5,0 km/h (1 Bft) O 83 2 min 0,000 mm 0,0 UV-I 196 W/m 1,7 C 8,8 C 6,4 km/h (2 Bft) 97,37 %
22.04.2019 07:32 8,8 C 14,4 C 6,7 C 61 % 1012,3 hPa 0,0 l/m 4,8 km/h (1 Bft) O 85 2 min 0,000 mm 0,0 UV-I 202 W/m 1,7 C 8,8 C 6,4 km/h (2 Bft) 95,74 %
22.04.2019 07:34 8,8 C 14,4 C 7,2 C 62 % 1012,3 hPa 0,0 l/m 6,3 km/h (2 Bft) O-NO 76 2 min 0,000 mm 0,0 UV-I 207 W/m 1,9 C 8,8 C 9,7 km/h (2 Bft) 95,74 %
22.04.2019 07:36 8,8 C 14,4 C 7,2 C 62 % 1012,2 hPa 0,0 l/m 6,6 km/h (2 Bft) O-NO 66 2 min 0,000 mm 0,0 UV-I 214 W/m 1,9 C 8,7 C 8,0 km/h (2 Bft) 98,00 %
22.04.2019 07:38 8,8 C 14,4 C 7,2 C 62 % 1012,2 hPa 0,0 l/m 6,4 km/h (2 Bft) O 81 2 min 0,000 mm 0,0 UV-I 218 W/m 1,9 C 8,8 C 8,0 km/h (2 Bft) 97,87 %
22.04.2019 07:40 8,9 C 14,4 C 7,2 C 62 % 1012,2 hPa 0,0 l/m 3,8 km/h (1 Bft) O 82 2 min 0,000 mm 0,0 UV-I 225 W/m 2,0 C 8,9 C 6,4 km/h (2 Bft) 93,62 %
22.04.2019 07:42 8,9 C 14,4 C 7,2 C 63 % 1012,2 hPa 0,0 l/m 3,8 km/h (1 Bft) O-NO 74 2 min 0,000 mm 0,0 UV-I 230 W/m 2,2 C 8,9 C 6,4 km/h (2 Bft) 92,00 %
22.04.2019 07:44 8,9 C 14,4 C 7,2 C 64 % 1012,2 hPa 0,0 l/m 3,6 km/h (1 Bft) O-NO 72 2 min 0,000 mm 0,0 UV-I 236 W/m 2,5 C 8,9 C 4,8 km/h (1 Bft) 95,74 %
22.04.2019 07:46 9,0 C 14,4 C 7,8 C 65 % 1012,2 hPa 0,0 l/m 5,0 km/h (1 Bft) O-NO 65 2 min 0,000 mm 0,0 UV-I 241 W/m 2,8 C 9,0 C 8,0 km/h (2 Bft) 91,49 %
22.04.2019 07:48 9,1 C 14,4 C 7,8 C 63 % 1012,1 hPa 0,0 l/m 4,4 km/h (1 Bft) O-NO 68 2 min 0,000 mm 0,0 UV-I 248 W/m 2,4 C 9,1 C 8,0 km/h (2 Bft) 93,62 %
22.04.2019 07:50 9,2 C 14,4 C 7,8 C 64 % 1012,1 hPa 0,0 l/m 5,8 km/h (2 Bft) O-NO 67 2 min 0,000 mm 0,0 UV-I 253 W/m 2,8 C 9,2 C 8,0 km/h (2 Bft) 93,62 %
22.04.2019 07:52 9,2 C 14,4 C 7,8 C 63 % 1012,1 hPa 0,0 l/m 4,4 km/h (1 Bft) O-NO 74 2 min 0,000 mm 0,0 UV-I 260 W/m 2,5 C 9,2 C 6,4 km/h (2 Bft) 91,49 %
22.04.2019 07:54 9,3 C 14,4 C 7,8 C 61 % 1012,1 hPa 0,0 l/m 7,6 km/h (2 Bft) O 88 2 min 0,000 mm 0,0 UV-I 261 W/m 2,2 C 8,4 C 11,3 km/h (2 Bft) 95,74 %
22.04.2019 07:56 9,4 C 14,4 C 7,8 C 61 % 1012,1 hPa 0,0 l/m 7,4 km/h (2 Bft) O-NO 72 2 min 0,000 mm 0,0 UV-I 272 W/m 2,3 C 8,7 C 11,3 km/h (2 Bft) 95,74 %
22.04.2019 07:58 9,4 C 14,4 C 8,3 C 62 % 1012,0 hPa 0,0 l/m 7,4 km/h (2 Bft) O-NO 65 2 min 0,000 mm 0,1 UV-I 278 W/m 2,5 C 8,7 C 11,3 km/h (2 Bft) 89,36 %
22.04.2019 08:00 9,6 C 14,4 C 8,3 C 61 % 1012,1 hPa 0,0 l/m 6,6 km/h (2 Bft) O 94 2 min 0,102 mm 0,5 UV-I 284 W/m 2,5 C 9,5 C 11,3 km/h (2 Bft) 93,75 %
22.04.2019 08:02 9,7 C 14,4 C 8,3 C 61 % 1012,1 hPa 0,0 l/m 8,3 km/h (2 Bft) O 80 2 min 0,000 mm 0,5 UV-I 289 W/m 2,5 C 8,3 C 12,9 km/h (3 Bft) 97,37 %
22.04.2019 08:04 9,7 C 14,4 C 8,3 C 61 % 1012,1 hPa 0,0 l/m 7,0 km/h (2 Bft) O 82 2 min 0,000 mm 0,5 UV-I 296 W/m 2,5 C 9,3 C 11,3 km/h (2 Bft) 92,00 %
22.04.2019 08:06 9,8 C 14,4 C 8,9 C 61 % 1012,1 hPa 0,0 l/m 8,0 km/h (2 Bft) O 96 2 min 0,000 mm 0,5 UV-I 302 W/m 2,6 C 8,6 C 14,5 km/h (3 Bft) 95,74 %
22.04.2019 08:08 10,0 C 14,4 C 8,9 C 60 % 1012,0 hPa 0,0 l/m 6,4 km/h (2 Bft) O-NO 74 2 min 0,000 mm 0,5 UV-I 308 W/m 2,6 C 10,0 C 9,7 km/h (2 Bft) 97,87 %
22.04.2019 08:10 10,1 C 14,4 C 8,9 C 60 % 1012,0 hPa 0,0 l/m 9,3 km/h (2 Bft) O-NO 73 2 min 0,000 mm 0,6 UV-I 313 W/m 2,7 C 8,1 C 12,9 km/h (3 Bft) 100,00 %
22.04.2019 08:12 10,2 C 14,4 C 8,9 C 60 % 1012,0 hPa 0,0 l/m 7,0 km/h (2 Bft) O 82 2 min 0,000 mm 0,6 UV-I 320 W/m 2,8 C 9,8 C 12,9 km/h (3 Bft) 97,37 %
22.04.2019 08:14 10,3 C 14,4 C 9,4 C 59 % 1012,0 hPa 0,0 l/m 8,1 km/h (2 Bft) O-NO 72 2 min 0,000 mm 0,6 UV-I 326 W/m 2,6 C 9,1 C 11,3 km/h (2 Bft) 100,00 %
22.04.2019 08:16 10,4 C 14,4 C 9,4 C 59 % 1012,0 hPa 0,0 l/m 6,5 km/h (2 Bft) NO 53 2 min 0,000 mm 0,6 UV-I 332 W/m 2,7 C 10,4 C 11,3 km/h (2 Bft) 97,87 %
22.04.2019 08:18 10,5 C 14,4 C 9,4 C 59 % 1012,0 hPa 0,0 l/m 6,4 km/h (2 Bft) O-NO 74 2 min 0,000 mm 0,6 UV-I 338 W/m 2,8 C 10,5 C 11,3 km/h (2 Bft) 97,87 %
22.04.2019 08:20 10,7 C 14,4 C 9,4 C 60 % 1012,0 hPa 0,0 l/m 5,8 km/h (2 Bft) O 87 2 min 0,000 mm 0,7 UV-I 344 W/m 3,3 C 10,7 C 11,3 km/h (2 Bft) 95,74 %
22.04.2019 08:22 10,8 C 14,4 C 9,4 C 59 % 1012,0 hPa 0,0 l/m 8,8 km/h (2 Bft) O 80 2 min 0,000 mm 0,7 UV-I 350 W/m 3,1 C 9,2 C 12,9 km/h (3 Bft) 98,00 %
22.04.2019 08:24 10,8 C 14,4 C 9,4 C 59 % 1012,0 hPa 0,0 l/m 8,4 km/h (2 Bft) O-NO 61 2 min 0,000 mm 0,7 UV-I 355 W/m 3,1 C 9,4 C 16,1 km/h (3 Bft) 98,00 %
22.04.2019 08:26 10,9 C 14,4 C 10,0 C 59 % 1011,9 hPa 0,0 l/m 8,3 km/h (2 Bft) O-NO 61 2 min 0,000 mm 0,7 UV-I 362 W/m 3,2 C 9,6 C 12,9 km/h (3 Bft) 97,37 %
22.04.2019 08:28 11,0 C 14,4 C 10,0 C 58 % 1012,0 hPa 0,0 l/m 8,8 km/h (2 Bft) NO 55 2 min 0,000 mm 0,7 UV-I 368 W/m 3,1 C 9,4 C 12,9 km/h (3 Bft) 97,87 %
22.04.2019 08:30 11,1 C 14,4 C 10,0 C 58 % 1012,0 hPa 0,0 l/m 8,5 km/h (2 Bft) O-NO 61 2 min 0,000 mm 0,7 UV-I 373 W/m 3,2 C 9,7 C 12,9 km/h (3 Bft) 98,00 %
22.04.2019 08:32 11,1 C 14,4 C 10,0 C 58 % 1011,9 hPa 0,0 l/m 11,4 km/h (2 Bft) NO 55 2 min 0,000 mm 0,8 UV-I 380 W/m 3,2 C 8,1 C 16,1 km/h (3 Bft) 97,87 %
22.04.2019 08:34 11,2 C 14,4 C 10,0 C 57 % 1011,9 hPa 0,0 l/m 10,0 km/h (2 Bft) O-NO 60 2 min 0,000 mm 0,8 UV-I 385 W/m 3,0 C 8,9 C 14,5 km/h (3 Bft) 94,34 %
22.04.2019 08:36 11,4 C 14,4 C 10,6 C 58 % 1011,9 hPa 0,0 l/m 10,1 km/h (2 Bft) NO 56 2 min 0,000 mm 0,8 UV-I 391 W/m 3,4 C 9,1 C 14,5 km/h (3 Bft) 97,87 %
22.04.2019 08:38 11,5 C 14,4 C 10,6 C 56 % 1011,8 hPa 0,0 l/m 9,6 km/h (2 Bft) O-NO 64 2 min 0,000 mm 0,8 UV-I 397 W/m 3,0 C 9,5 C 12,9 km/h (3 Bft) 97,22 %
22.04.2019 08:40 11,6 C 14,4 C 10,6 C 56 % 1011,9 hPa 0,0 l/m 10,9 km/h (2 Bft) O-NO 70 2 min 0,000 mm 0,9 UV-I 404 W/m 3,1 C 8,9 C 16,1 km/h (3 Bft) 98,00 %
22.04.2019 08:42 11,7 C 14,4 C 10,6 C 56 % 1011,8 hPa 0,0 l/m 12,1 km/h (2 Bft) O-NO 68 2 min 0,000 mm 0,9 UV-I 409 W/m 3,2 C 8,4 C 16,1 km/h (3 Bft) 95,74 %
22.04.2019 08:44 11,8 C 14,4 C 11,1 C 57 % 1011,8 hPa 0,0 l/m 11,0 km/h (2 Bft) N 5 2 min 0,000 mm 0,9 UV-I 415 W/m 3,6 C 9,1 C 16,1 km/h (3 Bft) 97,87 %
22.04.2019 08:46 11,8 C 14,4 C 11,1 C 55 % 1011,8 hPa 0,0 l/m 10,3 km/h (2 Bft) O 87 2 min 0,000 mm 0,9 UV-I 420 W/m 3,1 C 9,4 C 16,1 km/h (3 Bft) 100,00 %
22.04.2019 08:48 11,9 C 14,4 C 11,1 C 55 % 1011,8 hPa 0,0 l/m 11,3 km/h (2 Bft) O 83 2 min 0,000 mm 1,0 UV-I 426 W/m 3,2 C 9,0 C 16,1 km/h (3 Bft) 100,00 %
22.04.2019 08:50 11,9 C 14,4 C 11,1 C 55 % 1011,8 hPa 0,0 l/m 12,8 km/h (3 Bft) O 84 2 min 0,000 mm 1,0 UV-I 432 W/m 3,2 C 8,3 C 17,7 km/h (3 Bft) 97,87 %
22.04.2019 08:52 12,0 C 14,4 C 11,7 C 56 % 1011,7 hPa 0,0 l/m 13,0 km/h (3 Bft) O-NO 63 2 min 0,000 mm 1,0 UV-I 437 W/m 3,5 C 8,4 C 19,3 km/h (3 Bft) 98,00 %
22.04.2019 08:54 12,1 C 14,4 C 11,7 C 55 % 1011,7 hPa 0,0 l/m 11,8 km/h (2 Bft) O-NO 61 2 min 0,000 mm 1,0 UV-I 444 W/m 3,3 C 9,0 C 17,7 km/h (3 Bft) 95,74 %
22.04.2019 08:56 12,1 C 14,4 C 12,2 C 54 % 1011,7 hPa 0,0 l/m 14,3 km/h (3 Bft) O-NO 71 2 min 0,000 mm 1,1 UV-I 450 W/m 3,1 C 8,0 C 19,3 km/h (3 Bft) 97,87 %
22.04.2019 08:58 12,2 C 14,4 C 13,3 C 56 % 1011,6 hPa 0,0 l/m 14,2 km/h (3 Bft) O-NO 73 2 min 0,000 mm 1,1 UV-I 456 W/m 3,7 C 8,1 C 19,3 km/h (3 Bft) 98,00 %
22.04.2019 09:00 12,3 C 14,4 C 13,9 C 55 % 1011,6 hPa 0,0 l/m 14,3 km/h (3 Bft) O-NO 67 2 min 0,000 mm 1,1 UV-I 461 W/m 3,5 C 8,2 C 19,3 km/h (3 Bft) 94,29 %
22.04.2019 09:02 12,3 C 14,4 C 14,4 C 54 % 1011,6 hPa 0,0 l/m 14,6 km/h (3 Bft) O 83 2 min 0,228 mm 1,1 UV-I 468 W/m 3,3 C 8,1 C 17,7 km/h (3 Bft) 96,30 %
22.04.2019 09:04 12,3 C 14,4 C 15,0 C 54 % 1011,6 hPa 0,0 l/m 14,4 km/h (3 Bft) O-NO 69 2 min 0,000 mm 1,2 UV-I 473 W/m 3,3 C 8,2 C 19,3 km/h (3 Bft) 95,74 %
22.04.2019 09:06 12,4 C 14,4 C 16,1 C 55 % 1011,5 hPa 0,0 l/m 12,3 km/h (3 Bft) O-NO 74 2 min 0,000 mm 1,2 UV-I 478 W/m 3,6 C 9,1 C 19,3 km/h (3 Bft) 98,00 %
22.04.2019 09:08 12,5 C 14,4 C 16,7 C 54 % 1011,6 hPa 0,0 l/m 15,3 km/h (3 Bft) O-NO 71 2 min 0,000 mm 1,2 UV-I 484 W/m 3,5 C 8,1 C 22,5 km/h (4 Bft) 94,74 %
22.04.2019 09:10 12,6 C 14,4 C 17,8 C 54 % 1011,6 hPa 0,0 l/m 12,8 km/h (3 Bft) O 81 2 min 0,000 mm 1,3 UV-I 487 W/m 3,5 C 9,2 C 19,3 km/h (3 Bft) 97,92 %
22.04.2019 09:12 12,6 C 14,4 C 18,3 C 53 % 1011,6 hPa 0,0 l/m 15,2 km/h (3 Bft) O-NO 71 2 min 0,000 mm 1,3 UV-I 495 W/m 3,3 C 8,2 C 19,3 km/h (3 Bft) 97,87 %
22.04.2019 09:14 12,7 C 14,4 C 19,4 C 54 % 1011,6 hPa 0,0 l/m 15,4 km/h (3 Bft) O-NO 60 2 min 0,000 mm 1,3 UV-I 499 W/m 3,6 C 8,3 C 20,9 km/h (4 Bft) 97,83 %
22.04.2019 09:16 12,7 C 14,4 C 20,0 C 53 % 1011,5 hPa 0,0 l/m 15,6 km/h (3 Bft) O-NO 65 2 min 0,000 mm 1,3 UV-I 505 W/m 3,4 C 8,2 C 19,3 km/h (3 Bft) 98,11 %
22.04.2019 09:18 12,8 C 14,4 C 21,1 C 53 % 1011,5 hPa 0,0 l/m 14,9 km/h (3 Bft) O-NO 64 2 min 0,000 mm 1,4 UV-I 511 W/m 3,5 C 8,6 C 20,9 km/h (4 Bft) 97,87 %
22.04.2019 09:20 13,0 C 14,4 C 22,2 C 55 % 1011,5 hPa 0,0 l/m 15,4 km/h (3 Bft) O 83 2 min 0,000 mm 1,4 UV-I 515 W/m 4,2 C 8,6 C 19,3 km/h (3 Bft) 100,00 %
22.04.2019 09:22 13,2 C 14,4 C 23,3 C 54 % 1011,5 hPa 0,0 l/m 14,6 km/h (3 Bft) O-NO 68 2 min 0,000 mm 1,4 UV-I 521 W/m 4,1 C 9,2 C 19,3 km/h (3 Bft) 100,00 %
22.04.2019 09:24 13,3 C 14,4 C 23,3 C 53 % 1011,5 hPa 0,0 l/m 15,2 km/h (3 Bft) O 80 2 min 0,000 mm 1,4 UV-I 527 W/m 3,9 C 9,1 C 22,5 km/h (4 Bft) 98,00 %
22.04.2019 09:26 13,4 C 14,4 C 23,9 C 52 % 1011,5 hPa 0,0 l/m 14,3 km/h (3 Bft) O-NO 62 2 min 0,000 mm 1,5 UV-I 531 W/m 3,7 C 9,5 C 19,3 km/h (3 Bft) 100,00 %
22.04.2019 09:28 13,4 C 14,4 C 23,9 C 53 % 1011,5 hPa 0,0 l/m 15,4 km/h (3 Bft) O 81 2 min 0,000 mm 1,5 UV-I 537 W/m 4,0 C 9,1 C 20,9 km/h (4 Bft) 100,00 %
22.04.2019 09:30 13,6 C 14,4 C 23,9 C 51 % 1011,4 hPa 0,0 l/m 15,5 km/h (3 Bft) O-NO 74 2 min 0,000 mm 1,5 UV-I 544 W/m 3,7 C 9,3 C 20,9 km/h (4 Bft) 100,00 %
22.04.2019 09:32 13,6 C 14,4 C 24,4 C 52 % 1011,5 hPa 0,0 l/m 16,0 km/h (3 Bft) O-NO 63 2 min 0,000 mm 1,6 UV-I 548 W/m 3,9 C 9,2 C 22,5 km/h (4 Bft) 100,00 %
22.04.2019 09:34 13,8 C 14,4 C 24,4 C 51 % 1011,4 hPa 0,0 l/m 12,8 km/h (3 Bft) O-NO 71 2 min 0,000 mm 1,6 UV-I 553 W/m 3,8 C 10,6 C 20,9 km/h (4 Bft) 100,00 %
22.04.2019 09:36 14,0 C 14,4 C 25,0 C 52 % 1011,4 hPa 0,0 l/m 16,1 km/h (3 Bft) O-NO 75 2 min 0,000 mm 1,6 UV-I 558 W/m 4,3 C 9,6 C 24,1 km/h (4 Bft) 100,00 %
22.04.2019 09:38 14,1 C 14,4 C 25,0 C 50 % 1011,4 hPa 0,0 l/m 14,9 km/h (3 Bft) O-NO 78 2 min 0,000 mm 1,7 UV-I 563 W/m 3,8 C 10,1 C 20,9 km/h (4 Bft) 97,87 %
22.04.2019 09:40 14,2 C 14,4 C 26,1 C 50 % 1011,4 hPa 0,0 l/m 15,1 km/h (3 Bft) NO 37 2 min 0,000 mm 1,7 UV-I 569 W/m 3,9 C 10,2 C 20,9 km/h (4 Bft) 100,00 %
22.04.2019 09:42 14,3 C 14,4 C 26,1 C 50 % 1011,4 hPa 0,0 l/m 16,5 km/h (3 Bft) O-NO 65 2 min 0,000 mm 1,7 UV-I 574 W/m 4,0 C 9,9 C 20,9 km/h (4 Bft) 97,87 %
22.04.2019 09:44 14,3 C 14,4 C 25,6 C 50 % 1011,4 hPa 0,0 l/m 12,9 km/h (3 Bft) NO 55 2 min 0,000 mm 1,8 UV-I 579 W/m 4,0 C 11,1 C 22,5 km/h (4 Bft) 100,00 %
22.04.2019 09:46 14,3 C 14,4 C 25,6 C 49 % 1011,3 hPa 0,0 l/m 16,2 km/h (3 Bft) O 83 2 min 0,000 mm 1,8 UV-I 584 W/m 3,7 C 9,9 C 20,9 km/h (4 Bft) 98,00 %
22.04.2019 09:48 14,3 C 14,4 C 25,0 C 49 % 1011,3 hPa 0,0 l/m 14,5 km/h (3 Bft) O-NO 71 2 min 0,000 mm 1,8 UV-I 590 W/m 3,7 C 10,5 C 22,5 km/h (4 Bft) 100,00 %
22.04.2019 09:50 14,3 C 14,4 C 24,4 C 49 % 1011,3 hPa 0,0 l/m 15,8 km/h (3 Bft) O 84 2 min 0,000 mm 1,9 UV-I 596 W/m 3,7 C 10,1 C 22,5 km/h (4 Bft) 100,00 %
22.04.2019 09:52 14,3 C 14,4 C 25,0 C 48 % 1011,4 hPa 0,0 l/m 17,6 km/h (3 Bft) O 94 2 min 0,000 mm 1,9 UV-I 600 W/m 3,4 C 9,5 C 24,1 km/h (4 Bft) 97,44 %
22.04.2019 09:54 14,3 C 14,4 C 25,0 C 48 % 1011,4 hPa 0,0 l/m 17,9 km/h (3 Bft) O-NO 73 2 min 0,000 mm 1,9 UV-I 605 W/m 3,4 C 9,4 C 22,5 km/h (4 Bft) 100,00 %
22.04.2019 09:56 14,4 C 14,4 C 25,6 C 49 % 1011,4 hPa 0,0 l/m 16,7 km/h (3 Bft) O 91 2 min 0,000 mm 2,0 UV-I 610 W/m 3,8 C 9,9 C 24,1 km/h (4 Bft) 100,00 %
22.04.2019 09:58 14,6 C 14,4 C 25,6 C 50 % 1011,4 hPa 0,0 l/m 17,0 km/h (3 Bft) O-NO 61 2 min 0,000 mm 2,0 UV-I 614 W/m 4,3 C 10,1 C 20,9 km/h (4 Bft) 95,74 %
22.04.2019 10:00 14,7 C 14,4 C 26,1 C 49 % 1011,4 hPa 0,0 l/m 13,4 km/h (3 Bft) O 81 2 min 0,356 mm 2,0 UV-I 618 W/m 4,1 C 11,4 C 19,3 km/h (3 Bft) 97,87 %
22.04.2019 10:02 14,7 C 14,4 C 26,1 C 49 % 1011,3 hPa 0,0 l/m 14,0 km/h (3 Bft) O-NO 61 2 min 0,000 mm 2,1 UV-I 622 W/m 4,1 C 11,2 C 17,7 km/h (3 Bft) 97,87 %
22.04.2019 10:04 14,8 C 14,4 C 26,1 C 49 % 1011,3 hPa 0,0 l/m 13,7 km/h (3 Bft) O-NO 76 2 min 0,000 mm 2,1 UV-I 627 W/m 4,2 C 11,4 C 19,3 km/h (3 Bft) 96,00 %
22.04.2019 10:06 15,0 C 14,4 C 26,1 C 49 % 1011,3 hPa 0,0 l/m 14,8 km/h (3 Bft) O-NO 66 2 min 0,000 mm 2,1 UV-I 633 W/m 4,4 C 11,3 C 19,3 km/h (3 Bft) 96,00 %
22.04.2019 10:08 15,0 C 14,4 C 26,1 C 48 % 1011,2 hPa 0,0 l/m 16,2 km/h (3 Bft) O 87 2 min 0,000 mm 2,2 UV-I 633 W/m 4,1 C 10,8 C 22,5 km/h (4 Bft) 94,74 %
22.04.2019 10:10 15,1 C 14,4 C 26,1 C 48 % 1011,2 hPa 0,0 l/m 11,8 km/h (2 Bft) O-NO 65 2 min 0,000 mm 2,2 UV-I 641 W/m 4,2 C 12,5 C 20,9 km/h (4 Bft) 93,62 %
22.04.2019 10:12 15,1 C 14,4 C 26,7 C 48 % 1011,2 hPa 0,0 l/m 11,8 km/h (2 Bft) O-NO 57 2 min 0,000 mm 2,2 UV-I 634 W/m 4,2 C 12,5 C 17,7 km/h (3 Bft) 97,87 %
22.04.2019 10:14 15,2 C 14,4 C 27,2 C 49 % 1011,1 hPa 0,0 l/m 12,6 km/h (3 Bft) N-NO 24 2 min 0,000 mm 2,2 UV-I 630 W/m 4,6 C 12,3 C 19,3 km/h (3 Bft) 95,74 %
22.04.2019 10:16 15,4 C 14,4 C 27,8 C 51 % 1011,1 hPa 0,0 l/m 15,1 km/h (3 Bft) NO 41 2 min 0,000 mm 2,2 UV-I 640 W/m 5,3 C 11,6 C 19,3 km/h (3 Bft) 91,49 %
22.04.2019 10:18 15,6 C 14,4 C 27,2 C 50 % 1011,1 hPa 0,0 l/m 16,0 km/h (3 Bft) O-NO 60 2 min 0,000 mm 2,3 UV-I 645 W/m 5,2 C 11,6 C 22,5 km/h (4 Bft) 96,23 %
22.04.2019 10:20 15,7 C 14,4 C 26,7 C 47 % 1010,9 hPa 0,0 l/m 16,3 km/h (3 Bft) O-NO 78 2 min 0,000 mm 2,3 UV-I 651 W/m 4,4 C 11,6 C 20,9 km/h (4 Bft) 94,29 %
22.04.2019 10:22 15,7 C 14,4 C 27,2 C 47 % 1010,9 hPa 0,0 l/m 14,2 km/h (3 Bft) O 80 2 min 0,000 mm 2,4 UV-I 659 W/m 4,4 C 12,3 C 19,3 km/h (3 Bft) 94,00 %
22.04.2019 10:24 15,8 C 14,4 C 27,8 C 49 % 1010,9 hPa 0,0 l/m 18,8 km/h (3 Bft) O-NO 67 2 min 0,000 mm 2,4 UV-I 663 W/m 5,1 C 11,1 C 24,1 km/h (4 Bft) 94,44 %
22.04.2019 10:26 15,8 C 14,4 C 27,8 C 46 % 1010,9 hPa 0,0 l/m 12,1 km/h (2 Bft) O-NO 57 2 min 0,000 mm 2,5 UV-I 669 W/m 4,2 C 13,2 C 19,3 km/h (3 Bft) 96,77 %
22.04.2019 10:28 15,8 C 14,4 C 27,8 C 47 % 1010,9 hPa 0,0 l/m 17,4 km/h (3 Bft) O-NO 64 2 min 0,000 mm 2,5 UV-I 676 W/m 4,5 C 11,5 C 27,4 km/h (4 Bft) 93,62 %
22.04.2019 10:30 15,9 C 14,4 C 27,8 C 47 % 1010,9 hPa 0,0 l/m 15,7 km/h (3 Bft) O-SO 111 2 min 0,000 mm 2,5 UV-I 676 W/m 4,6 C 12,1 C 24,1 km/h (4 Bft) 91,49 %
22.04.2019 10:32 15,9 C 14,4 C 27,2 C 46 % 1010,9 hPa 0,0 l/m 14,3 km/h (3 Bft) N-NO 32 2 min 0,000 mm 2,5 UV-I 672 W/m 4,3 C 12,5 C 20,9 km/h (4 Bft) 92,00 %
22.04.2019 10:34 16,0 C 14,4 C 27,2 C 49 % 1010,8 hPa 0,0 l/m 13,6 km/h (3 Bft) O-NO 74 2 min 0,000 mm 2,6 UV-I 688 W/m 5,3 C 12,9 C 20,9 km/h (4 Bft) 93,62 %
22.04.2019 10:36 16,1 C 14,4 C 27,8 C 47 % 1010,8 hPa 0,0 l/m 18,5 km/h (3 Bft) O 88 2 min 0,000 mm 2,6 UV-I 692 W/m 4,8 C 11,5 C 24,1 km/h (4 Bft) 93,62 %
22.04.2019 10:38 16,1 C 14,4 C 27,8 C 47 % 1010,8 hPa 0,0 l/m 16,4 km/h (3 Bft) NO 55 2 min 0,000 mm 2,7 UV-I 696 W/m 4,8 C 12,1 C 24,1 km/h (4 Bft) 97,87 %
22.04.2019 10:40 16,1 C 15,0 C 27,2 C 45 % 1010,8 hPa 0,0 l/m 19,1 km/h (3 Bft) O 79 2 min 0,000 mm 2,7 UV-I 683 W/m 4,2 C 11,4 C 24,1 km/h (4 Bft) 97,87 %
22.04.2019 10:42 16,2 C 15,0 C 27,2 C 45 % 1010,7 hPa 0,0 l/m 20,6 km/h (4 Bft) O 82 2 min 0,000 mm 2,7 UV-I 671 W/m 4,3 C 11,2 C 25,7 km/h (4 Bft) 97,37 %
22.04.2019 10:44 16,3 C 15,0 C 26,7 C 45 % 1010,7 hPa 0,0 l/m 18,6 km/h (3 Bft) O-NO 75 2 min 0,000 mm 2,7 UV-I 657 W/m 4,3 C 11,8 C 24,1 km/h (4 Bft) 95,74 %
22.04.2019 10:46 16,3 C 15,0 C 27,8 C 45 % 1010,7 hPa 0,0 l/m 15,6 km/h (3 Bft) O-NO 75 2 min 0,000 mm 2,7 UV-I 673 W/m 4,3 C 12,6 C 22,5 km/h (4 Bft) 97,87 %
22.04.2019 10:48 16,5 C 15,0 C 27,8 C 48 % 1010,6 hPa 0,0 l/m 19,5 km/h (3 Bft) NO 44 2 min 0,000 mm 2,8 UV-I 682 W/m 5,5 C 11,8 C 30,6 km/h (5 Bft) 95,74 %
22.04.2019 10:50 16,7 C 15,0 C 27,8 C 44 % 1010,7 hPa 0,0 l/m 14,5 km/h (3 Bft) O-NO 64 2 min 0,000 mm 2,8 UV-I 700 W/m 4,4 C 13,4 C 25,7 km/h (4 Bft) 95,74 %
22.04.2019 10:52 16,8 C 15,0 C 27,8 C 44 % 1010,6 hPa 0,0 l/m 17,7 km/h (3 Bft) O-NO 62 2 min 0,000 mm 2,8 UV-I 700 W/m 4,5 C 12,6 C 25,7 km/h (4 Bft) 97,87 %
22.04.2019 10:54 16,8 C 15,0 C 27,8 C 44 % 1010,6 hPa 0,0 l/m 19,0 km/h (3 Bft) O-NO 72 2 min 0,000 mm 2,9 UV-I 706 W/m 4,5 C 12,3 C 25,7 km/h (4 Bft) 95,74 %
22.04.2019 10:56 16,9 C 15,0 C 28,3 C 42 % 1010,6 hPa 0,0 l/m 19,2 km/h (3 Bft) NO 46 2 min 0,000 mm 2,9 UV-I 711 W/m 3,9 C 12,4 C 27,4 km/h (4 Bft) 95,74 %
22.04.2019 10:58 16,9 C 15,0 C 27,8 C 42 % 1010,5 hPa 0,0 l/m 19,9 km/h (4 Bft) O 90 2 min 0,000 mm 2,9 UV-I 712 W/m 3,9 C 12,2 C 24,1 km/h (4 Bft) 97,87 %
22.04.2019 11:00 16,9 C 15,0 C 27,8 C 42 % 1010,6 hPa 0,0 l/m 17,2 km/h (3 Bft) O-NO 78 2 min 0,457 mm 3,0 UV-I 718 W/m 3,9 C 12,9 C 24,1 km/h (4 Bft) 97,87 %
22.04.2019 11:02 16,9 C 15,0 C 27,8 C 42 % 1010,5 hPa 0,0 l/m 18,6 km/h (3 Bft) O 90 2 min 0,000 mm 3,0 UV-I 722 W/m 3,9 C 12,5 C 27,4 km/h (4 Bft) 95,83 %
22.04.2019 11:04 17,0 C 15,0 C 28,3 C 42 % 1010,5 hPa 0,0 l/m 18,5 km/h (3 Bft) O-NO 75 2 min 0,000 mm 3,1 UV-I 727 W/m 4,0 C 12,7 C 24,1 km/h (4 Bft) 97,87 %
22.04.2019 11:06 17,2 C 15,0 C 29,4 C 44 % 1010,5 hPa 0,0 l/m 15,9 km/h (3 Bft) O 84 2 min 0,000 mm 3,1 UV-I 727 W/m 4,8 C 13,6 C 22,5 km/h (4 Bft) 98,00 %
22.04.2019 11:08 17,3 C 15,0 C 30,0 C 43 % 1010,4 hPa 0,0 l/m 17,6 km/h (3 Bft) O 90 2 min 0,000 mm 3,1 UV-I 731 W/m 4,6 C 13,3 C 30,6 km/h (5 Bft) 97,87 %
22.04.2019 11:10 17,4 C 15,0 C 29,4 C 40 % 1010,4 hPa 0,0 l/m 18,6 km/h (3 Bft) O 89 2 min 0,000 mm 3,1 UV-I 736 W/m 3,7 C 13,2 C 24,1 km/h (4 Bft) 97,87 %
22.04.2019 11:12 17,4 C 15,0 C 29,4 C 41 % 1010,3 hPa 0,0 l/m 19,7 km/h (3 Bft) O-NO 62 2 min 0,000 mm 3,2 UV-I 741 W/m 4,0 C 12,9 C 24,1 km/h (4 Bft) 97,87 %
22.04.2019 11:14 17,4 C 15,0 C 29,4 C 41 % 1010,3 hPa 0,0 l/m 16,2 km/h (3 Bft) O-NO 65 2 min 0,000 mm 3,2 UV-I 743 W/m 4,0 C 13,8 C 24,1 km/h (4 Bft) 93,62 %
22.04.2019 11:16 17,6 C 15,0 C 30,0 C 41 % 1010,3 hPa 0,0 l/m 19,7 km/h (3 Bft) O 80 2 min 0,000 mm 3,2 UV-I 750 W/m 4,2 C 13,2 C 25,7 km/h (4 Bft) 95,74 %
22.04.2019 11:18 17,8 C 15,0 C 30,6 C 45 % 1010,3 hPa 0,0 l/m 18,6 km/h (3 Bft) O-NO 69 2 min 0,000 mm 3,3 UV-I 754 W/m 5,7 C 13,7 C 29,0 km/h (5 Bft) 97,87 %
22.04.2019 11:20 18,1 C 15,0 C 30,6 C 41 % 1010,3 hPa 0,0 l/m 18,6 km/h (3 Bft) O 87 2 min 0,000 mm 3,3 UV-I 755 W/m 4,6 C 14,1 C 25,7 km/h (4 Bft) 98,00 %
22.04.2019 11:22 18,2 C 15,0 C 30,6 C 42 % 1010,2 hPa 0,0 l/m 16,6 km/h (3 Bft) O 91 2 min 0,000 mm 3,3 UV-I 752 W/m 5,1 C 14,7 C 25,7 km/h (4 Bft) 97,87 %
22.04.2019 11:24 18,4 C 15,0 C 30,6 C 41 % 1010,2 hPa 0,0 l/m 17,3 km/h (3 Bft) O-SO 111 2 min 0,000 mm 3,4 UV-I 753 W/m 4,9 C 14,7 C 25,7 km/h (4 Bft) 97,87 %
22.04.2019 11:26 18,3 C 15,0 C 30,6 C 41 % 1010,2 hPa 0,0 l/m 19,7 km/h (3 Bft) O 83 2 min 0,000 mm 3,4 UV-I 751 W/m 4,8 C 14,1 C 27,4 km/h (4 Bft) 97,87 %
22.04.2019 11:28 18,3 C 15,0 C 30,6 C 39 % 1010,2 hPa 0,0 l/m 19,9 km/h (4 Bft) O 93 2 min 0,000 mm 3,4 UV-I 751 W/m 4,1 C 14,0 C 32,2 km/h (5 Bft) 92,11 %
22.04.2019 11:30 18,2 C 15,0 C 30,0 C 39 % 1010,2 hPa 0,0 l/m 19,9 km/h (4 Bft) O 87 2 min 0,000 mm 3,4 UV-I 746 W/m 4,0 C 13,9 C 29,0 km/h (5 Bft) 97,87 %
22.04.2019 11:32 18,2 C 15,0 C 30,0 C 39 % 1010,2 hPa 0,0 l/m 17,7 km/h (3 Bft) O-NO 71 2 min 0,000 mm 3,5 UV-I 763 W/m 4,0 C 14,4 C 24,1 km/h (4 Bft) 95,74 %
22.04.2019 11:34 18,3 C 15,0 C 30,6 C 40 % 1010,2 hPa 0,0 l/m 17,5 km/h (3 Bft) O-NO 70 2 min 0,000 mm 3,5 UV-I 776 W/m 4,5 C 14,6 C 24,1 km/h (4 Bft) 95,74 %
22.04.2019 11:36 18,4 C 15,0 C 30,6 C 40 % 1010,1 hPa 0,0 l/m 17,2 km/h (3 Bft) O-NO 70 2 min 0,000 mm 3,6 UV-I 779 W/m 4,6 C 14,8 C 27,4 km/h (4 Bft) 98,00 %
22.04.2019 11:38 18,4 C 15,0 C 30,6 C 39 % 1010,1 hPa 0,0 l/m 22,5 km/h (4 Bft) O 94 2 min 0,000 mm 3,6 UV-I 773 W/m 4,2 C 13,7 C 30,6 km/h (5 Bft) 94,00 %
22.04.2019 11:40 18,4 C 15,0 C 30,6 C 40 % 1010,1 hPa 0,0 l/m 19,8 km/h (3 Bft) O 80 2 min 0,000 mm 3,6 UV-I 760 W/m 4,6 C 14,2 C 30,6 km/h (5 Bft) 91,49 %
22.04.2019 11:42 18,4 C 15,0 C 30,6 C 39 % 1010,2 hPa 0,0 l/m 22,7 km/h (4 Bft) O 101 2 min 0,000 mm 3,6 UV-I 770 W/m 4,2 C 13,6 C 30,6 km/h (5 Bft) 93,62 %
22.04.2019 11:44 18,5 C 15,0 C 30,0 C 39 % 1010,1 hPa 0,0 l/m 25,6 km/h (4 Bft) O 79 2 min 0,000 mm 3,6 UV-I 762 W/m 4,3 C 13,3 C 33,8 km/h (5 Bft) 93,62 %
22.04.2019 11:46 18,4 C 15,0 C 29,4 C 38 % 1010,1 hPa 0,0 l/m 23,8 km/h (4 Bft) O 82 2 min 0,000 mm 3,6 UV-I 770 W/m 3,8 C 13,4 C 35,4 km/h (5 Bft) 92,31 %
22.04.2019 11:48 18,4 C 15,0 C 29,4 C 39 % 1010,1 hPa 0,0 l/m 23,3 km/h (4 Bft) O-SO 107 2 min 0,000 mm 3,6 UV-I 759 W/m 4,2 C 13,5 C 32,2 km/h (5 Bft) 94,00 %
22.04.2019 11:50 18,4 C 15,0 C 29,4 C 38 % 1010,0 hPa 0,0 l/m 25,6 km/h (4 Bft) O 80 2 min 0,000 mm 3,7 UV-I 763 W/m 3,8 C 13,1 C 32,2 km/h (5 Bft) 94,00 %
22.04.2019 11:52 18,4 C 15,0 C 29,4 C 39 % 1010,0 hPa 0,0 l/m 22,7 km/h (4 Bft) NO 44 2 min 0,000 mm 3,7 UV-I 764 W/m 4,2 C 13,6 C 29,0 km/h (5 Bft) 93,62 %
22.04.2019 11:54 18,6 C 15,0 C 29,4 C 39 % 1010,0 hPa 0,0 l/m 19,5 km/h (3 Bft) O-NO 72 2 min 0,000 mm 3,7 UV-I 760 W/m 4,4 C 14,5 C 27,4 km/h (4 Bft) 91,49 %
22.04.2019 11:56 18,5 C 15,0 C 28,9 C 40 % 1009,9 hPa 0,0 l/m 21,2 km/h (4 Bft) O 79 2 min 0,000 mm 3,7 UV-I 753 W/m 4,6 C 14,0 C 25,7 km/h (4 Bft) 93,62 %
22.04.2019 11:58 18,6 C 15,0 C 29,4 C 40 % 1009,9 hPa 0,0 l/m 17,6 km/h (3 Bft) O-NO 76 2 min 0,000 mm 3,8 UV-I 796 W/m 4,7 C 14,9 C 22,5 km/h (4 Bft) 89,36 %
22.04.2019 12:00 18,7 C 15,0 C 30,0 C 40 % 1009,8 hPa 0,0 l/m 17,9 km/h (3 Bft) O 94 2 min 0,000 mm 3,8 UV-I 782 W/m 4,8 C 15,0 C 25,7 km/h (4 Bft) 94,29 %
22.04.2019 12:02 18,8 C 15,0 C 30,6 C 39 % 1009,8 hPa 0,0 l/m 20,9 km/h (4 Bft) O-NO 78 2 min 0,584 mm 3,8 UV-I 777 W/m 4,6 C 14,5 C 29,0 km/h (5 Bft) 94,00 %
22.04.2019 12:04 18,9 C 15,0 C 31,1 C 41 % 1009,7 hPa 0,0 l/m 13,3 km/h (3 Bft) O-NO 59 2 min 0,000 mm 3,9 UV-I 786 W/m 5,4 C 16,4 C 20,9 km/h (4 Bft) 97,87 %
22.04.2019 12:06 19,2 C 15,0 C 31,7 C 38 % 1009,7 hPa 0,0 l/m 21,9 km/h (4 Bft) O-SO 119 2 min 0,000 mm 3,9 UV-I 784 W/m 4,5 C 14,8 C 30,6 km/h (5 Bft) 96,00 %
22.04.2019 12:08 19,2 C 15,0 C 31,7 C 38 % 1009,7 hPa 0,0 l/m 21,5 km/h (4 Bft) O 81 2 min 0,000 mm 3,9 UV-I 785 W/m 4,5 C 14,9 C 33,8 km/h (5 Bft) 98,00 %
22.04.2019 12:10 19,2 C 15,0 C 31,7 C 39 % 1009,7 hPa 0,0 l/m 24,6 km/h (4 Bft) O 96 2 min 0,000 mm 4,0 UV-I 800 W/m 4,9 C 14,4 C 32,2 km/h (5 Bft) 95,74 %
22.04.2019 12:12 19,2 C 15,0 C 31,1 C 37 % 1009,6 hPa 0,0 l/m 19,3 km/h (3 Bft) O-SO 104 2 min 0,000 mm 4,0 UV-I 807 W/m 4,2 C 15,3 C 29,0 km/h (5 Bft) 100,00 %
22.04.2019 12:14 19,1 C 15,0 C 31,1 C 39 % 1009,6 hPa 0,0 l/m 20,8 km/h (4 Bft) O 80 2 min 0,000 mm 4,0 UV-I 811 W/m 4,8 C 14,9 C 29,0 km/h (5 Bft) 100,00 %
22.04.2019 12:16 19,2 C 15,0 C 31,1 C 38 % 1009,5 hPa 0,0 l/m 20,3 km/h (4 Bft) O-SO 106 2 min 0,000 mm 4,0 UV-I 812 W/m 4,5 C 15,1 C 29,0 km/h (5 Bft) 100,00 %
22.04.2019 12:18 19,3 C 15,0 C 31,7 C 39 % 1009,5 hPa 0,0 l/m 22,5 km/h (4 Bft) O 101 2 min 0,000 mm 4,1 UV-I 818 W/m 5,0 C 14,8 C 32,2 km/h (5 Bft) 100,00 %
22.04.2019 12:20 19,4 C 15,0 C 32,2 C 38 % 1009,5 hPa 0,0 l/m 22,4 km/h (4 Bft) O-NO 63 2 min 0,000 mm 4,1 UV-I 824 W/m 4,7 C 15,0 C 33,8 km/h (5 Bft) 97,92 %
22.04.2019 12:22 19,5 C 15,0 C 32,2 C 39 % 1009,4 hPa 0,0 l/m 22,1 km/h (4 Bft) O-NO 69 2 min 0,000 mm 4,1 UV-I 820 W/m 5,2 C 15,2 C 29,0 km/h (5 Bft) 95,74 %
22.04.2019 12:24 19,6 C 15,0 C 32,2 C 38 % 1009,5 hPa 0,0 l/m 17,8 km/h (3 Bft) O-NO 72 2 min 0,000 mm 4,1 UV-I 806 W/m 4,9 C 16,1 C 24,1 km/h (4 Bft) 100,00 %
22.04.2019 12:26 19,6 C 15,0 C 31,7 C 39 % 1009,4 hPa 0,0 l/m 19,5 km/h (3 Bft) O 90 2 min 0,000 mm 4,1 UV-I 800 W/m 5,3 C 15,8 C 29,0 km/h (5 Bft) 100,00 %
22.04.2019 12:28 19,6 C 15,0 C 31,1 C 41 % 1009,3 hPa 0,0 l/m 21,8 km/h (4 Bft) O-NO 68 2 min 0,000 mm 4,1 UV-I 810 W/m 6,0 C 15,4 C 32,2 km/h (5 Bft) 100,00 %
22.04.2019 12:30 19,7 C 15,0 C 30,6 C 39 % 1009,3 hPa 0,0 l/m 21,5 km/h (4 Bft) O 98 2 min 0,000 mm 4,1 UV-I 814 W/m 5,4 C 15,5 C 32,2 km/h (5 Bft) 100,00 %
22.04.2019 12:32 19,8 C 15,0 C 31,1 C 38 % 1009,3 hPa 0,0 l/m 17,0 km/h (3 Bft) NO 48 2 min 0,000 mm 4,1 UV-I 802 W/m 5,1 C 16,6 C 27,4 km/h (4 Bft) 97,87 %
22.04.2019 12:34 19,8 C 15,0 C 30,6 C 37 % 1009,2 hPa 0,0 l/m 25,9 km/h (4 Bft) O-NO 67 2 min 0,000 mm 4,1 UV-I 808 W/m 4,7 C 15,0 C 33,8 km/h (5 Bft) 100,00 %
22.04.2019 12:36 19,8 C 15,0 C 30,6 C 38 % 1009,2 hPa 0,0 l/m 19,0 km/h (3 Bft) O-NO 73 2 min 0,000 mm 4,2 UV-I 815 W/m 5,1 C 16,1 C 24,1 km/h (4 Bft) 97,87 %
22.04.2019 12:38 19,8 C 15,0 C 31,1 C 38 % 1009,2 hPa 0,0 l/m 23,1 km/h (4 Bft) O 93 2 min 0,000 mm 4,1 UV-I 798 W/m 5,1 C 15,4 C 33,8 km/h (5 Bft) 97,87 %
22.04.2019 12:40 19,8 C 15,0 C 31,7 C 37 % 1009,2 hPa 0,0 l/m 20,0 km/h (4 Bft) O 94 2 min 0,000 mm 4,2 UV-I 808 W/m 4,7 C 15,9 C 29,0 km/h (5 Bft) 97,87 %
22.04.2019 12:42 19,7 C 15,0 C 31,7 C 38 % 1009,2 hPa 0,0 l/m 22,2 km/h (4 Bft) O-SO 107 2 min 0,000 mm 4,2 UV-I 801 W/m 5,0 C 15,4 C 29,0 km/h (5 Bft) 100,00 %
22.04.2019 12:44 19,8 C 15,0 C 32,8 C 40 % 1009,1 hPa 0,0 l/m 19,9 km/h (4 Bft) O-SO 113 2 min 0,000 mm 4,1 UV-I 793 W/m 5,8 C 16,0 C 27,4 km/h (4 Bft) 100,00 %
22.04.2019 12:46 19,9 C 15,6 C 32,2 C 41 % 1009,1 hPa 0,0 l/m 20,1 km/h (4 Bft) O 84 2 min 0,000 mm 4,1 UV-I 779 W/m 6,3 C 16,1 C 38,6 km/h (5 Bft) 95,74 %
22.04.2019 12:48 19,9 C 15,6 C 31,1 C 37 % 1009,1 hPa 0,0 l/m 16,8 km/h (3 Bft) NO 42 2 min 0,000 mm 4,0 UV-I 764 W/m 4,8 C 16,7 C 27,4 km/h (4 Bft) 100,00 %
22.04.2019 12:50 20,0 C 15,6 C 31,1 C 37 % 1009,0 hPa 0,0 l/m 20,4 km/h (4 Bft) O 86 2 min 0,000 mm 4,1 UV-I 800 W/m 4,9 C 16,1 C 27,4 km/h (4 Bft) 98,00 %
22.04.2019 12:52 20,0 C 15,6 C 30,0 C 34 % 1009,0 hPa 0,0 l/m 26,1 km/h (4 Bft) O-NO 66 2 min 0,000 mm 4,2 UV-I 817 W/m 3,7 C 15,2 C 37,0 km/h (5 Bft) 100,00 %
22.04.2019 12:54 19,8 C 15,6 C 28,9 C 36 % 1009,0 hPa 0,0 l/m 23,0 km/h (4 Bft) NO 36 2 min 0,000 mm 4,1 UV-I 783 W/m 4,3 C 15,4 C 32,2 km/h (5 Bft) 100,00 %
22.04.2019 12:56 19,9 C 15,6 C 30,0 C 37 % 1008,9 hPa 0,0 l/m 20,1 km/h (4 Bft) NO 42 2 min 0,000 mm 4,1 UV-I 779 W/m 4,8 C 16,1 C 33,8 km/h (5 Bft) 100,00 %
22.04.2019 12:58 19,9 C 15,6 C 30,0 C 37 % 1008,9 hPa 0,0 l/m 21,1 km/h (4 Bft) O-NO 68 2 min 0,000 mm 4,1 UV-I 775 W/m 4,8 C 15,9 C 27,4 km/h (4 Bft) 100,00 %
22.04.2019 13:00 19,9 C 15,6 C 30,0 C 36 % 1008,9 hPa 0,0 l/m 23,1 km/h (4 Bft) O-NO 76 2 min 0,635 mm 4,1 UV-I 780 W/m 4,4 C 15,5 C 32,2 km/h (5 Bft) 100,00 %
22.04.2019 13:02 20,0 C 15,6 C 30,6 C 36 % 1008,8 hPa 0,0 l/m 20,7 km/h (4 Bft) O-NO 62 2 min 0,000 mm 4,1 UV-I 776 W/m 4,5 C 16,1 C 30,6 km/h (5 Bft) 100,00 %
22.04.2019 13:04 19,9 C 15,6 C 30,0 C 36 % 1008,9 hPa 0,0 l/m 24,4 km/h (4 Bft) O-NO 70 2 min 0,000 mm 4,2 UV-I 792 W/m 4,4 C 15,3 C 32,2 km/h (5 Bft) 98,00 %
22.04.2019 13:06 19,9 C 15,6 C 29,4 C 37 % 1008,8 hPa 0,0 l/m 22,2 km/h (4 Bft) O 86 2 min 0,000 mm 4,2 UV-I 809 W/m 4,8 C 15,7 C 29,0 km/h (5 Bft) 97,37 %
22.04.2019 13:08 19,9 C 15,6 C 30,0 C 37 % 1008,7 hPa 0,0 l/m 21,7 km/h (4 Bft) NO 46 2 min 0,000 mm 4,3 UV-I 829 W/m 4,8 C 15,8 C 30,6 km/h (5 Bft) 95,74 %
22.04.2019 13:10 19,9 C 15,6 C 30,6 C 37 % 1008,7 hPa 0,0 l/m 23,3 km/h (4 Bft) O 89 2 min 0,000 mm 4,3 UV-I 833 W/m 4,8 C 15,5 C 30,6 km/h (5 Bft) 95,74 %
22.04.2019 13:12 20,0 C 15,6 C 30,6 C 36 % 1008,7 hPa 0,0 l/m 25,6 km/h (4 Bft) O 79 2 min 0,000 mm 4,3 UV-I 830 W/m 4,5 C 15,3 C 33,8 km/h (5 Bft) 95,74 %
22.04.2019 13:14 20,0 C 15,6 C 30,0 C 36 % 1008,6 hPa 0,0 l/m 23,5 km/h (4 Bft) O-NO 69 2 min 0,000 mm 4,3 UV-I 828 W/m 4,5 C 15,6 C 37,0 km/h (5 Bft) 97,87 %
22.04.2019 13:16 20,0 C 15,6 C 30,0 C 36 % 1008,6 hPa 0,0 l/m 23,2 km/h (4 Bft) O-NO 75 2 min 0,000 mm 4,3 UV-I 820 W/m 4,5 C 15,7 C 30,6 km/h (5 Bft) 95,74 %
22.04.2019 13:18 20,1 C 15,6 C 30,6 C 37 % 1008,6 hPa 0,0 l/m 22,2 km/h (4 Bft) O 89 2 min 0,000 mm 4,3 UV-I 830 W/m 5,0 C 16,0 C 32,2 km/h (5 Bft) 95,74 %
22.04.2019 13:20 20,2 C 15,6 C 30,6 C 37 % 1008,5 hPa 0,0 l/m 22,1 km/h (4 Bft) NO 53 2 min 0,000 mm 4,3 UV-I 837 W/m 5,0 C 16,1 C 33,8 km/h (5 Bft) 97,87 %
22.04.2019 13:22 20,4 C 15,6 C 31,1 C 38 % 1008,5 hPa 0,0 l/m 20,5 km/h (4 Bft) O 84 2 min 0,000 mm 4,3 UV-I 840 W/m 5,6 C 16,6 C 29,0 km/h (5 Bft) 98,00 %
22.04.2019 13:24 20,5 C 15,6 C 32,2 C 39 % 1008,5 hPa 0,0 l/m 15,3 km/h (3 Bft) O-NO 71 2 min 0,000 mm 4,2 UV-I 811 W/m 6,1 C 17,8 C 22,5 km/h (4 Bft) 95,74 %
22.04.2019 13:26 20,6 C 15,6 C 31,7 C 36 % 1008,5 hPa 0,0 l/m 24,7 km/h (4 Bft) O 82 2 min 0,000 mm 4,1 UV-I 771 W/m 5,0 C 16,2 C 37,0 km/h (5 Bft) 97,87 %
22.04.2019 13:28 20,6 C 15,6 C 31,1 C 37 % 1008,4 hPa 0,0 l/m 23,2 km/h (4 Bft) O-SO 104 2 min 0,000 mm 4,1 UV-I 787 W/m 5,4 C 16,5 C 37,0 km/h (5 Bft) 95,74 %
22.04.2019 13:30 20,6 C 15,6 C 31,7 C 38 % 1008,4 hPa 0,0 l/m 24,6 km/h (4 Bft) O 96 2 min 0,000 mm 4,1 UV-I 779 W/m 5,8 C 16,3 C 30,6 km/h (5 Bft) 96,00 %
22.04.2019 13:32 20,5 C 15,6 C 30,6 C 36 % 1008,4 hPa 0,0 l/m 24,7 km/h (4 Bft) O-NO 78 2 min 0,000 mm 4,1 UV-I 791 W/m 4,9 C 16,1 C 37,0 km/h (5 Bft) 95,74 %
22.04.2019 13:34 20,4 C 15,6 C 30,6 C 34 % 1008,4 hPa 0,0 l/m 25,9 km/h (4 Bft) O-NO 73 2 min 0,000 mm 4,2 UV-I 817 W/m 4,0 C 15,8 C 33,8 km/h (5 Bft) 100,00 %
22.04.2019 13:36 20,4 C 15,6 C 31,1 C 34 % 1008,4 hPa 0,0 l/m 23,1 km/h (4 Bft) O 96 2 min 0,000 mm 4,2 UV-I 818 W/m 4,0 C 16,2 C 30,6 km/h (5 Bft) 95,83 %
22.04.2019 13:38 20,4 C 15,6 C 31,1 C 35 % 1008,4 hPa 0,0 l/m 24,1 km/h (4 Bft) O 92 2 min 0,000 mm 4,2 UV-I 819 W/m 4,4 C 16,1 C 32,2 km/h (5 Bft) 94,74 %
22.04.2019 13:40 20,5 C 15,6 C 31,1 C 35 % 1008,2 hPa 0,0 l/m 22,7 km/h (4 Bft) O-NO 73 2 min 0,000 mm 4,2 UV-I 798 W/m 4,5 C 16,4 C 30,6 km/h (5 Bft) 96,00 %
22.04.2019 13:42 20,6 C 15,6 C 31,1 C 36 % 1008,3 hPa 0,0 l/m 19,9 km/h (4 Bft) O-NO 71 2 min 0,000 mm 4,1 UV-I 788 W/m 5,0 C 17,0 C 29,0 km/h (5 Bft) 95,74 %
22.04.2019 13:44 20,6 C 15,6 C 30,6 C 34 % 1008,2 hPa 0,0 l/m 27,0 km/h (4 Bft) O-NO 75 2 min 0,000 mm 4,1 UV-I 792 W/m 4,2 C 15,9 C 38,6 km/h (5 Bft) 97,87 %
22.04.2019 13:46 20,6 C 15,6 C 30,0 C 34 % 1008,2 hPa 0,0 l/m 24,9 km/h (4 Bft) O-NO 71 2 min 0,000 mm 4,1 UV-I 797 W/m 4,2 C 16,2 C 35,4 km/h (5 Bft) 95,74 %
22.04.2019 13:48 20,6 C 15,6 C 30,6 C 34 % 1008,2 hPa 0,0 l/m 20,5 km/h (4 Bft) O-NO 61 2 min 0,000 mm 4,1 UV-I 797 W/m 4,2 C 16,9 C 32,2 km/h (5 Bft) 95,74 %
22.04.2019 13:50 20,7 C 15,6 C 31,1 C 34 % 1008,2 hPa 0,0 l/m 23,7 km/h (4 Bft) O 96 2 min 0,000 mm 4,1 UV-I 810 W/m 4,3 C 16,5 C 32,2 km/h (5 Bft) 97,87 %
22.04.2019 13:52 20,7 C 15,6 C 31,7 C 34 % 1008,1 hPa 0,0 l/m 21,1 km/h (4 Bft) O 84 2 min 0,000 mm 4,1 UV-I 820 W/m 4,3 C 16,9 C 32,2 km/h (5 Bft) 97,87 %
22.04.2019 13:54 20,7 C 15,6 C 31,1 C 33 % 1008,1 hPa 0,0 l/m 25,1 km/h (4 Bft) O 92 2 min 0,000 mm 4,1 UV-I 806 W/m 3,9 C 16,3 C 33,8 km/h (5 Bft) 97,87 %
22.04.2019 13:56 20,8 C 15,6 C 31,7 C 34 % 1008,1 hPa 0,0 l/m 22,3 km/h (4 Bft) O-NO 77 2 min 0,000 mm 4,1 UV-I 822 W/m 4,4 C 16,9 C 30,6 km/h (5 Bft) 97,87 %
22.04.2019 13:58 20,9 C 15,6 C 31,7 C 33 % 1008,1 hPa 0,0 l/m 20,5 km/h (4 Bft) O-SO 105 2 min 0,000 mm 4,0 UV-I 791 W/m 4,0 C 17,3 C 29,0 km/h (5 Bft) 97,14 %
22.04.2019 14:00 20,9 C 15,6 C 31,7 C 33 % 1008,1 hPa 0,0 l/m 22,9 km/h (4 Bft) O 84 2 min 0,661 mm 3,9 UV-I 718 W/m 4,0 C 16,9 C 29,0 km/h (5 Bft) 98,39 %
22.04.2019 14:02 20,9 C 15,6 C 31,7 C 33 % 1008,1 hPa 0,0 l/m 21,6 km/h (4 Bft) O 81 2 min 0,000 mm 3,8 UV-I 726 W/m 4,0 C 17,1 C 32,2 km/h (5 Bft) 100,00 %
22.04.2019 14:04 20,9 C 15,6 C 31,1 C 32 % 1008,1 hPa 0,0 l/m 22,0 km/h (4 Bft) O 97 2 min 0,000 mm 3,8 UV-I 714 W/m 3,6 C 17,0 C 30,6 km/h (5 Bft) 97,87 %
22.04.2019 14:06 20,9 C 15,6 C 30,6 C 31 % 1008,1 hPa 0,0 l/m 26,9 km/h (4 Bft) O 82 2 min 0,000 mm 3,8 UV-I 712 W/m 3,1 C 16,4 C 37,0 km/h (5 Bft) 100,00 %
22.04.2019 14:08 20,8 C 15,6 C 30,0 C 31 % 1008,1 hPa 0,0 l/m 26,2 km/h (4 Bft) O 81 2 min 0,000 mm 4,0 UV-I 782 W/m 3,1 C 16,3 C 37,0 km/h (5 Bft) 100,00 %
22.04.2019 14:10 20,8 C 15,6 C 30,6 C 32 % 1008,1 hPa 0,0 l/m 24,4 km/h (4 Bft) NO 49 2 min 0,000 mm 4,0 UV-I 792 W/m 3,5 C 16,6 C 32,2 km/h (5 Bft) 95,74 %
22.04.2019 14:12 20,8 C 15,6 C 30,6 C 32 % 1008,0 hPa 0,0 l/m 22,6 km/h (4 Bft) O 81 2 min 0,000 mm 3,9 UV-I 775 W/m 3,5 C 16,8 C 30,6 km/h (5 Bft) 100,00 %
22.04.2019 14:14 20,8 C 15,6 C 30,6 C 32 % 1008,0 hPa 0,0 l/m 21,5 km/h (4 Bft) O 80 2 min 0,000 mm 3,8 UV-I 755 W/m 3,5 C 17,0 C 33,8 km/h (5 Bft) 100,00 %
22.04.2019 14:16 20,9 C 15,6 C 30,6 C 32 % 1008,0 hPa 0,0 l/m 21,5 km/h (4 Bft) O 82 2 min 0,000 mm 3,8 UV-I 756 W/m 3,6 C 17,1 C 32,2 km/h (5 Bft) 97,87 %
22.04.2019 14:18 20,9 C 15,6 C 30,6 C 31 % 1008,0 hPa 0,0 l/m 22,8 km/h (4 Bft) O-NO 77 2 min 0,000 mm 3,8 UV-I 770 W/m 3,1 C 16,9 C 30,6 km/h (5 Bft) 95,74 %
22.04.2019 14:20 20,9 C 15,6 C 30,0 C 31 % 1008,0 hPa 0,0 l/m 25,9 km/h (4 Bft) O-NO 63 2 min 0,000 mm 3,7 UV-I 731 W/m 3,1 C 16,5 C 33,8 km/h (5 Bft) 100,00 %
22.04.2019 14:22 20,9 C 15,6 C 30,0 C 31 % 1008,0 hPa 0,0 l/m 21,8 km/h (4 Bft) O-NO 63 2 min 0,000 mm 3,7 UV-I 723 W/m 3,1 C 17,1 C 27,4 km/h (4 Bft) 100,00 %
22.04.2019 14:24 20,9 C 15,6 C 30,0 C 34 % 1007,9 hPa 0,0 l/m 17,8 km/h (3 Bft) O-NO 76 2 min 0,000 mm 3,7 UV-I 739 W/m 4,4 C 17,8 C 25,7 km/h (4 Bft) 100,00 %
22.04.2019 14:26 21,1 C 15,6 C 30,0 C 32 % 1007,9 hPa 0,0 l/m 20,3 km/h (4 Bft) O 96 2 min 0,000 mm 3,7 UV-I 738 W/m 3,8 C 17,6 C 33,8 km/h (5 Bft) 98,00 %
22.04.2019 14:28 21,1 C 15,6 C 30,0 C 33 % 1008,0 hPa 0,0 l/m 25,6 km/h (4 Bft) NO 35 2 min 0,000 mm 3,6 UV-I 706 W/m 4,2 C 16,8 C 32,2 km/h (5 Bft) 100,00 %
22.04.2019 14:30 21,2 C 15,6 C 31,1 C 32 % 1007,9 hPa 0,0 l/m 19,6 km/h (3 Bft) NO 51 2 min 0,000 mm 3,6 UV-I 730 W/m 3,8 C 17,8 C 27,4 km/h (4 Bft) 100,00 %
22.04.2019 14:32 21,2 C 15,6 C 31,1 C 33 % 1007,8 hPa 0,0 l/m 22,8 km/h (4 Bft) O-NO 63 2 min 0,000 mm 3,6 UV-I 738 W/m 4,3 C 17,3 C 33,8 km/h (5 Bft) 100,00 %
22.04.2019 14:34 21,2 C 15,6 C 31,7 C 32 % 1007,8 hPa 0,0 l/m 20,4 km/h (4 Bft) O 84 2 min 0,000 mm 3,6 UV-I 733 W/m 3,8 C 17,7 C 32,2 km/h (5 Bft) 100,00 %
22.04.2019 14:36 21,2 C 15,6 C 31,7 C 32 % 1007,8 hPa 0,0 l/m 23,3 km/h (4 Bft) O-NO 76 2 min 0,000 mm 3,6 UV-I 731 W/m 3,8 C 17,2 C 29,0 km/h (5 Bft) 97,87 %
22.04.2019 14:38 21,3 C 15,6 C 31,7 C 32 % 1007,8 hPa 0,0 l/m 20,6 km/h (4 Bft) O-NO 61 2 min 0,000 mm 3,6 UV-I 758 W/m 3,9 C 17,8 C 29,0 km/h (5 Bft) 95,74 %
22.04.2019 14:40 21,4 C 15,6 C 32,2 C 31 % 1007,7 hPa 0,0 l/m 22,0 km/h (4 Bft) O 88 2 min 0,000 mm 3,6 UV-I 776 W/m 3,6 C 17,7 C 29,0 km/h (5 Bft) 97,87 %
22.04.2019 14:42 21,4 C 15,6 C 31,1 C 33 % 1007,7 hPa 0,0 l/m 24,3 km/h (4 Bft) O 80 2 min 0,000 mm 3,5 UV-I 746 W/m 4,5 C 17,4 C 35,4 km/h (5 Bft) 98,00 %
22.04.2019 14:44 21,3 C 15,6 C 31,1 C 31 % 1007,7 hPa 0,0 l/m 21,2 km/h (4 Bft) O 88 2 min 0,000 mm 3,5 UV-I 743 W/m 3,5 C 17,7 C 32,2 km/h (5 Bft) 97,44 %
22.04.2019 14:46 21,3 C 15,6 C 30,6 C 32 % 1007,6 hPa 0,0 l/m 24,6 km/h (4 Bft) O-NO 76 2 min 0,000 mm 3,4 UV-I 715 W/m 3,9 C 17,2 C 33,8 km/h (5 Bft) 97,87 %
22.04.2019 14:48 21,3 C 15,6 C 30,6 C 32 % 1007,6 hPa 0,0 l/m 23,1 km/h (4 Bft) O 89 2 min 0,000 mm 3,4 UV-I 707 W/m 3,9 C 17,4 C 37,0 km/h (5 Bft) 98,00 %
22.04.2019 14:50 21,3 C 15,6 C 30,6 C 32 % 1007,6 hPa 0,0 l/m 22,8 km/h (4 Bft) NO 47 2 min 0,000 mm 3,4 UV-I 708 W/m 3,9 C 17,5 C 32,2 km/h (5 Bft) 95,74 %
22.04.2019 14:52 21,3 C 15,6 C 30,6 C 32 % 1007,6 hPa 0,0 l/m 24,1 km/h (4 Bft) O 90 2 min 0,000 mm 3,3 UV-I 703 W/m 3,9 C 17,3 C 29,0 km/h (5 Bft) 95,74 %
22.04.2019 14:54 21,3 C 15,6 C 30,6 C 32 % 1007,5 hPa 0,0 l/m 23,1 km/h (4 Bft) O-NO 71 2 min 0,000 mm 3,3 UV-I 706 W/m 3,9 C 17,4 C 30,6 km/h (5 Bft) 97,87 %
22.04.2019 14:56 21,3 C 16,1 C 31,1 C 34 % 1007,5 hPa 0,0 l/m 19,6 km/h (3 Bft) O-SO 112 2 min 0,000 mm 3,2 UV-I 690 W/m 4,8 C 18,0 C 32,2 km/h (5 Bft) 95,74 %
22.04.2019 14:59 21,3 C 16,1 C 31,1 C 32 % 1007,4 hPa 0,0 l/m 23,8 km/h (4 Bft) O-SO 104 3 min 0,000 mm 3,2 UV-I 678 W/m 3,9 C 17,3 C 38,6 km/h (5 Bft) 98,68 %
22.04.2019 15:00 21,3 C 16,1 C 31,1 C 33 % 1007,4 hPa 0,0 l/m 22,3 km/h (4 Bft) O-SO 109 1 min 0,000 mm 3,1 UV-I 658 W/m 4,4 C 17,5 C 32,2 km/h (5 Bft) 100,00 %
22.04.2019 15:02 21,3 C 16,1 C 31,7 C 32 % 1007,4 hPa 0,0 l/m 22,7 km/h (4 Bft) O-NO 74 2 min 0,635 mm 3,1 UV-I 667 W/m 3,9 C 17,5 C 32,2 km/h (5 Bft) 97,37 %
22.04.2019 15:04 21,3 C 16,1 C 31,1 C 32 % 1007,4 hPa 0,0 l/m 20,6 km/h (4 Bft) O 90 2 min 0,000 mm 3,1 UV-I 663 W/m 3,9 C 17,8 C 32,2 km/h (5 Bft) 98,00 %
22.04.2019 15:06 21,3 C 16,1 C 30,6 C 34 % 1007,4 hPa 0,0 l/m 22,1 km/h (4 Bft) O-SO 112 2 min 0,000 mm 3,1 UV-I 656 W/m 4,8 C 17,6 C 29,0 km/h (5 Bft) 97,87 %
22.04.2019 15:08 21,3 C 16,1 C 30,6 C 33 % 1007,3 hPa 0,0 l/m 20,8 km/h (4 Bft) O 98 2 min 0,000 mm 3,0 UV-I 626 W/m 4,4 C 17,8 C 30,6 km/h (5 Bft) 97,56 %
22.04.2019 15:10 21,3 C 16,1 C 30,6 C 31 % 1007,3 hPa 0,0 l/m 22,3 km/h (4 Bft) O-NO 61 2 min 0,000 mm 2,9 UV-I 621 W/m 3,5 C 17,5 C 29,0 km/h (5 Bft) 100,00 %
22.04.2019 15:12 21,3 C 16,1 C 30,0 C 31 % 1007,3 hPa 0,0 l/m 22,6 km/h (4 Bft) O 90 2 min 0,000 mm 2,9 UV-I 617 W/m 3,5 C 17,5 C 32,2 km/h (5 Bft) 97,87 %
22.04.2019 15:14 21,3 C 16,1 C 30,0 C 31 % 1007,2 hPa 0,0 l/m 26,6 km/h (4 Bft) O-SO 105 2 min 0,000 mm 2,9 UV-I 631 W/m 3,5 C 16,9 C 38,6 km/h (5 Bft) 100,00 %
22.04.2019 15:16 21,2 C 16,1 C 29,4 C 31 % 1007,3 hPa 0,0 l/m 24,4 km/h (4 Bft) O 98 2 min 0,000 mm 2,9 UV-I 642 W/m 3,4 C 17,1 C 37,0 km/h (5 Bft) 97,87 %
22.04.2019 15:18 21,2 C 16,1 C 29,4 C 32 % 1007,2 hPa 0,0 l/m 23,0 km/h (4 Bft) O 95 2 min 0,000 mm 2,8 UV-I 627 W/m 3,8 C 17,3 C 32,2 km/h (5 Bft) 97,37 %
22.04.2019 15:20 21,3 C 16,1 C 30,0 C 32 % 1007,2 hPa 0,0 l/m 19,6 km/h (3 Bft) O 87 2 min 0,000 mm 2,8 UV-I 617 W/m 3,9 C 18,0 C 29,0 km/h (5 Bft) 100,00 %
22.04.2019 15:22 21,2 C 16,1 C 30,0 C 32 % 1007,2 hPa 0,0 l/m 23,5 km/h (4 Bft) O-SO 107 2 min 0,000 mm 2,7 UV-I 613 W/m 3,8 C 17,2 C 30,6 km/h (5 Bft) 97,87 %
22.04.2019 15:24 21,2 C 16,1 C 29,4 C 33 % 1007,1 hPa 0,0 l/m 24,7 km/h (4 Bft) O 80 2 min 0,000 mm 2,7 UV-I 599 W/m 4,3 C 17,0 C 30,6 km/h (5 Bft) 98,00 %
22.04.2019 15:26 21,2 C 16,1 C 29,4 C 33 % 1007,0 hPa 0,0 l/m 21,0 km/h (4 Bft) O 80 2 min 0,000 mm 2,7 UV-I 603 W/m 4,3 C 17,6 C 30,6 km/h (5 Bft) 97,92 %
22.04.2019 15:28 21,2 C 16,1 C 28,9 C 33 % 1007,1 hPa 0,0 l/m 20,5 km/h (4 Bft) O-NO 69 2 min 0,000 mm 2,7 UV-I 612 W/m 4,3 C 17,7 C 33,8 km/h (5 Bft) 97,87 %
22.04.2019 15:30 21,2 C 16,1 C 28,9 C 32 % 1007,0 hPa 0,0 l/m 20,9 km/h (4 Bft) O-NO 78 2 min 0,000 mm 2,7 UV-I 609 W/m 3,8 C 17,6 C 30,6 km/h (5 Bft) 96,00 %
22.04.2019 15:32 21,1 C 16,1 C 28,3 C 32 % 1007,0 hPa 0,0 l/m 28,4 km/h (4 Bft) O-SO 107 2 min 0,000 mm 2,7 UV-I 621 W/m 3,8 C 16,4 C 37,0 km/h (5 Bft) 95,74 %
22.04.2019 15:34 21,1 C 16,1 C 28,9 C 33 % 1007,0 hPa 0,0 l/m 23,1 km/h (4 Bft) O 99 2 min 0,000 mm 2,6 UV-I 592 W/m 4,2 C 17,1 C 32,2 km/h (5 Bft) 97,87 %
22.04.2019 15:36 21,1 C 16,1 C 29,4 C 33 % 1007,0 hPa 0,0 l/m 25,5 km/h (4 Bft) O-NO 71 2 min 0,000 mm 2,5 UV-I 576 W/m 4,2 C 16,8 C 35,4 km/h (5 Bft) 95,74 %
22.04.2019 15:38 21,1 C 16,1 C 29,4 C 32 % 1007,0 hPa 0,0 l/m 24,7 km/h (4 Bft) O-SO 105 2 min 0,000 mm 2,5 UV-I 606 W/m 3,8 C 16,9 C 30,6 km/h (5 Bft) 94,74 %
22.04.2019 15:40 21,1 C 16,1 C 30,0 C 32 % 1006,9 hPa 0,0 l/m 20,4 km/h (4 Bft) O-NO 78 2 min 0,000 mm 2,5 UV-I 602 W/m 3,8 C 17,6 C 30,6 km/h (5 Bft) 98,00 %
22.04.2019 15:42 21,1 C 16,1 C 30,0 C 33 % 1006,8 hPa 0,0 l/m 29,7 km/h (5 Bft) O-SO 112 2 min 0,000 mm 2,5 UV-I 613 W/m 4,2 C 16,3 C 41,8 km/h (6 Bft) 96,00 %
22.04.2019 15:44 21,1 C 16,1 C 30,0 C 33 % 1006,9 hPa 0,0 l/m 25,5 km/h (4 Bft) O-SO 104 2 min 0,000 mm 2,5 UV-I 619 W/m 4,2 C 16,8 C 32,2 km/h (5 Bft) 97,87 %
22.04.2019 15:46 21,2 C 16,1 C 30,0 C 32 % 1006,9 hPa 0,0 l/m 26,4 km/h (4 Bft) O 92 2 min 0,000 mm 2,5 UV-I 639 W/m 3,8 C 16,8 C 38,6 km/h (5 Bft) 98,00 %
22.04.2019 15:48 21,2 C 16,1 C 30,0 C 31 % 1006,8 hPa 0,0 l/m 26,6 km/h (4 Bft) O 96 2 min 0,000 mm 2,5 UV-I 635 W/m 3,4 C 16,8 C 40,2 km/h (6 Bft) 95,74 %
22.04.2019 15:50 21,2 C 16,1 C 30,0 C 31 % 1006,8 hPa 0,0 l/m 28,6 km/h (4 Bft) O-SO 106 2 min 0,000 mm 2,5 UV-I 626 W/m 3,4 C 16,6 C 38,6 km/h (5 Bft) 97,87 %
22.04.2019 15:52 21,2 C 16,1 C 30,0 C 31 % 1006,8 hPa 0,0 l/m 26,2 km/h (4 Bft) O 92 2 min 0,000 mm 2,4 UV-I 619 W/m 3,4 C 16,9 C 37,0 km/h (5 Bft) 100,00 %
22.04.2019 15:54 21,2 C 16,1 C 30,0 C 32 % 1006,8 hPa 0,0 l/m 24,0 km/h (4 Bft) O 85 2 min 0,000 mm 2,4 UV-I 614 W/m 3,8 C 17,1 C 33,8 km/h (5 Bft) 98,04 %
22.04.2019 15:56 21,2 C 16,1 C 30,0 C 32 % 1006,8 hPa 0,0 l/m 24,4 km/h (4 Bft) O 97 2 min 0,000 mm 2,3 UV-I 596 W/m 3,8 C 17,1 C 38,6 km/h (5 Bft) 95,74 %
22.04.2019 15:58 21,2 C 16,1 C 29,4 C 32 % 1006,8 hPa 0,0 l/m 21,9 km/h (4 Bft) O 90 2 min 0,000 mm 2,2 UV-I 542 W/m 3,8 C 17,5 C 32,2 km/h (5 Bft) 95,74 %
22.04.2019 16:00 21,2 C 16,1 C 29,4 C 32 % 1006,7 hPa 0,0 l/m 24,8 km/h (4 Bft) O 92 2 min 0,000 mm 2,2 UV-I 546 W/m 3,8 C 17,0 C 33,8 km/h (5 Bft) 97,92 %
22.04.2019 16:02 21,2 C 16,1 C 28,9 C 32 % 1006,6 hPa 0,0 l/m 25,0 km/h (4 Bft) O-NO 67 2 min 0,584 mm 2,1 UV-I 522 W/m 3,8 C 17,0 C 33,8 km/h (5 Bft) 97,87 %
22.04.2019 16:04 21,2 C 16,1 C 28,9 C 32 % 1006,6 hPa 0,0 l/m 21,2 km/h (4 Bft) O-NO 78 2 min 0,000 mm 2,1 UV-I 508 W/m 3,8 C 17,6 C 37,0 km/h (5 Bft) 97,87 %
22.04.2019 16:06 21,2 C 16,1 C 28,3 C 32 % 1006,6 hPa 0,0 l/m 24,3 km/h (4 Bft) O-SO 109 2 min 0,000 mm 2,1 UV-I 546 W/m 3,8 C 17,1 C 32,2 km/h (5 Bft) 96,00 %
22.04.2019 16:08 21,2 C 16,1 C 28,9 C 33 % 1006,6 hPa 0,0 l/m 22,3 km/h (4 Bft) O 97 2 min 0,000 mm 2,1 UV-I 545 W/m 4,3 C 17,4 C 33,8 km/h (5 Bft) 93,62 %
22.04.2019 16:10 21,2 C 16,1 C 28,9 C 33 % 1006,6 hPa 0,0 l/m 23,3 km/h (4 Bft) O 80 2 min 0,000 mm 2,1 UV-I 537 W/m 4,3 C 17,2 C 30,6 km/h (5 Bft) 94,00 %
22.04.2019 16:12 21,2 C 16,1 C 28,3 C 32 % 1006,6 hPa 0,0 l/m 26,3 km/h (4 Bft) O-SO 113 2 min 0,000 mm 2,0 UV-I 482 W/m 3,8 C 16,8 C 37,0 km/h (5 Bft) 97,14 %
22.04.2019 16:14 21,1 C 16,1 C 27,8 C 33 % 1006,6 hPa 0,0 l/m 25,3 km/h (4 Bft) O 83 2 min 0,000 mm 2,0 UV-I 477 W/m 4,2 C 16,8 C 33,8 km/h (5 Bft) 92,00 %
22.04.2019 16:16 21,1 C 16,1 C 27,2 C 31 % 1006,6 hPa 0,0 l/m 27,4 km/h (4 Bft) O 93 2 min 0,000 mm 1,9 UV-I 499 W/m 3,3 C 16,6 C 35,4 km/h (5 Bft) 94,00 %
22.04.2019 16:18 21,0 C 16,1 C 27,2 C 32 % 1006,5 hPa 0,0 l/m 27,9 km/h (4 Bft) O 97 2 min 0,000 mm 1,9 UV-I 517 W/m 3,7 C 16,4 C 37,0 km/h (5 Bft) 93,62 %
22.04.2019 16:20 21,0 C 16,1 C 27,8 C 32 % 1006,5 hPa 0,0 l/m 25,2 km/h (4 Bft) O 87 2 min 0,000 mm 1,9 UV-I 524 W/m 3,7 C 16,7 C 37,0 km/h (5 Bft) 95,74 %
22.04.2019 16:22 21,1 C 16,1 C 27,8 C 32 % 1006,6 hPa 0,0 l/m 24,8 km/h (4 Bft) O-NO 67 2 min 0,000 mm 1,8 UV-I 502 W/m 3,8 C 16,9 C 35,4 km/h (5 Bft) 95,74 %
22.04.2019 16:24 21,1 C 16,1 C 27,8 C 32 % 1006,5 hPa 0,0 l/m 24,0 km/h (4 Bft) O-NO 73 2 min 0,000 mm 1,8 UV-I 485 W/m 3,8 C 17,0 C 33,8 km/h (5 Bft) 93,62 %
22.04.2019 16:26 21,1 C 16,1 C 27,8 C 33 % 1006,5 hPa 0,0 l/m 23,3 km/h (4 Bft) O-SO 111 2 min 0,000 mm 1,7 UV-I 467 W/m 4,2 C 17,1 C 33,8 km/h (5 Bft) 96,00 %
22.04.2019 16:28 21,1 C 16,1 C 27,8 C 32 % 1006,4 hPa 0,0 l/m 18,2 km/h (3 Bft) NO 53 2 min 0,000 mm 1,7 UV-I 504 W/m 3,8 C 17,9 C 29,0 km/h (5 Bft) 95,12 %
22.04.2019 16:30 21,1 C 16,1 C 28,9 C 32 % 1006,5 hPa 0,0 l/m 23,6 km/h (4 Bft) O-SO 108 2 min 0,000 mm 1,7 UV-I 508 W/m 3,8 C 17,1 C 37,0 km/h (5 Bft) 95,74 %
22.04.2019 16:32 21,1 C 16,1 C 28,9 C 33 % 1006,5 hPa 0,0 l/m 24,1 km/h (4 Bft) O 93 2 min 0,000 mm 1,7 UV-I 480 W/m 4,2 C 17,0 C 32,2 km/h (5 Bft) 97,87 %
22.04.2019 16:34 21,1 C 16,1 C 28,3 C 33 % 1006,5 hPa 0,0 l/m 24,1 km/h (4 Bft) O 97 2 min 0,000 mm 1,6 UV-I 454 W/m 4,2 C 17,0 C 41,8 km/h (6 Bft) 97,87 %
22.04.2019 16:36 21,1 C 16,1 C 27,2 C 33 % 1006,3 hPa 0,0 l/m 24,7 km/h (4 Bft) O 86 2 min 0,000 mm 1,6 UV-I 431 W/m 4,2 C 16,9 C 38,6 km/h (5 Bft) 93,62 %
22.04.2019 16:38 21,1 C 16,1 C 27,2 C 34 % 1006,3 hPa 0,0 l/m 21,2 km/h (4 Bft) O 100 2 min 0,000 mm 1,5 UV-I 450 W/m 4,6 C 17,4 C 30,6 km/h (5 Bft) 95,74 %
22.04.2019 16:40 21,1 C 16,1 C 27,2 C 32 % 1006,3 hPa 0,0 l/m 24,6 km/h (4 Bft) O-NO 76 2 min 0,000 mm 1,5 UV-I 430 W/m 3,8 C 16,9 C 38,6 km/h (5 Bft) 97,87 %
22.04.2019 16:42 21,0 C 16,1 C 27,2 C 32 % 1006,2 hPa 0,0 l/m 24,1 km/h (4 Bft) O 92 2 min 0,000 mm 1,5 UV-I 425 W/m 3,7 C 16,9 C 37,0 km/h (5 Bft) 95,83 %
22.04.2019 16:44 21,0 C 16,1 C 27,2 C 33 % 1006,3 hPa 0,0 l/m 22,7 km/h (4 Bft) O 79 2 min 0,000 mm 1,5 UV-I 445 W/m 4,1 C 17,1 C 30,6 km/h (5 Bft) 95,74 %
22.04.2019 16:46 21,0 C 16,1 C 27,2 C 33 % 1006,2 hPa 0,0 l/m 20,2 km/h (4 Bft) O 84 2 min 0,000 mm 1,4 UV-I 434 W/m 4,1 C 17,5 C 30,6 km/h (5 Bft) 97,87 %
22.04.2019 16:48 21,1 C 16,1 C 27,2 C 34 % 1006,2 hPa 0,0 l/m 18,3 km/h (3 Bft) O 86 2 min 0,000 mm 1,4 UV-I 408 W/m 4,6 C 17,9 C 27,4 km/h (4 Bft) 95,74 %
22.04.2019 16:50 21,1 C 16,1 C 26,7 C 32 % 1006,2 hPa 0,0 l/m 23,3 km/h (4 Bft) O-NO 59 2 min 0,000 mm 1,3 UV-I 382 W/m 3,8 C 17,1 C 30,6 km/h (5 Bft) 97,87 %
22.04.2019 16:52 21,1 C 16,1 C 26,1 C 33 % 1006,2 hPa 0,0 l/m 22,8 km/h (4 Bft) O 87 2 min 0,000 mm 1,3 UV-I 354 W/m 4,2 C 17,2 C 29,0 km/h (5 Bft) 97,87 %
22.04.2019 16:54 20,9 C 16,1 C 25,6 C 31 % 1006,2 hPa 0,0 l/m 22,7 km/h (4 Bft) O-SO 104 2 min 0,000 mm 1,2 UV-I 342 W/m 3,1 C 16,9 C 30,6 km/h (5 Bft) 98,00 %
22.04.2019 16:56 20,9 C 16,1 C 26,1 C 32 % 1006,2 hPa 0,0 l/m 20,7 km/h (4 Bft) O 96 2 min 0,000 mm 1,2 UV-I 351 W/m 3,6 C 17,3 C 29,0 km/h (5 Bft) 97,87 %
22.04.2019 16:58 20,9 C 16,1 C 26,1 C 33 % 1006,2 hPa 0,0 l/m 21,8 km/h (4 Bft) O 99 2 min 0,000 mm 1,2 UV-I 357 W/m 4,0 C 17,1 C 32,2 km/h (5 Bft) 95,74 %
22.04.2019 17:00 20,8 C 16,1 C 26,1 C 33 % 1006,1 hPa 0,0 l/m 26,3 km/h (4 Bft) O 90 2 min 0,000 mm 1,2 UV-I 371 W/m 3,9 C 16,3 C 45,1 km/h (6 Bft) 97,14 %
22.04.2019 17:02 20,8 C 16,1 C 26,1 C 33 % 1006,2 hPa 0,0 l/m 24,6 km/h (4 Bft) O 85 2 min 0,482 mm 1,2 UV-I 352 W/m 3,9 C 16,5 C 35,4 km/h (5 Bft) 96,43 %
22.04.2019 17:04 20,8 C 16,1 C 26,1 C 33 % 1006,1 hPa 0,0 l/m 24,8 km/h (4 Bft) O 101 2 min 0,000 mm 1,2 UV-I 372 W/m 3,9 C 16,5 C 37,0 km/h (5 Bft) 100,00 %
22.04.2019 17:06 20,7 C 16,1 C 25,6 C 32 % 1006,1 hPa 0,0 l/m 27,2 km/h (4 Bft) O 100 2 min 0,000 mm 1,1 UV-I 354 W/m 3,4 C 16,0 C 38,6 km/h (5 Bft) 93,62 %
22.04.2019 17:08 20,7 C 16,1 C 25,6 C 33 % 1006,0 hPa 0,0 l/m 28,1 km/h (4 Bft) O-NO 74 2 min 0,000 mm 1,1 UV-I 356 W/m 3,9 C 15,9 C 38,6 km/h (5 Bft) 97,87 %
22.04.2019 17:10 20,7 C 16,1 C 25,6 C 34 % 1006,1 hPa 0,0 l/m 22,6 km/h (4 Bft) O 90 2 min 0,000 mm 1,1 UV-I 360 W/m 4,3 C 16,7 C 37,0 km/h (5 Bft) 93,62 %
22.04.2019 17:12 20,7 C 16,1 C 25,6 C 34 % 1006,1 hPa 0,0 l/m 27,8 km/h (4 Bft) O-NO 74 2 min 0,000 mm 1,0 UV-I 359 W/m 4,3 C 16,0 C 40,2 km/h (6 Bft) 93,75 %
22.04.2019 17:14 20,6 C 16,1 C 25,6 C 34 % 1006,1 hPa 0,0 l/m 23,9 km/h (4 Bft) O-SO 107 2 min 0,000 mm 1,0 UV-I 345 W/m 4,2 C 16,4 C 33,8 km/h (5 Bft) 96,36 %
22.04.2019 17:16 20,6 C 16,1 C 25,0 C 34 % 1006,0 hPa 0,0 l/m 29,2 km/h (5 Bft) O-SO 105 2 min 0,000 mm 0,9 UV-I 294 W/m 4,2 C 15,7 C 38,6 km/h (5 Bft) 95,74 %
22.04.2019 17:18 20,5 C 16,1 C 24,4 C 34 % 1006,0 hPa 0,0 l/m 24,8 km/h (4 Bft) O-SO 109 2 min 0,000 mm 0,9 UV-I 257 W/m 4,1 C 16,1 C 32,2 km/h (5 Bft) 94,87 %
22.04.2019 17:20 20,4 C 16,1 C 23,3 C 34 % 1006,0 hPa 0,0 l/m 29,1 km/h (5 Bft) O 88 0 min 0,000 mm 0,9 UV-I 232 W/m 4,0 C 15,4 C 41,8 km/h (6 Bft) 94,00 %
22.04.2019 17:22 20,3 C 16,1 C 22,8 C 34 % 1006,0 hPa 0,0 l/m 27,4 km/h (4 Bft) O-SO 109 0 min 0,000 mm 0,8 UV-I 215 W/m 3,9 C 15,5 C 40,2 km/h (6 Bft) 95,74 %
22.04.2019 17:24 20,3 C 16,1 C 22,2 C 35 % 1006,0 hPa 0,0 l/m 24,6 km/h (4 Bft) NO 54 0 min 0,000 mm 0,8 UV-I 197 W/m 4,3 C 15,8 C 37,0 km/h (5 Bft) 95,74 %
22.04.2019 17:26 20,2 C 16,1 C 22,2 C 36 % 1006,0 hPa 0,0 l/m 21,4 km/h (4 Bft) SO 124 0 min 0,000 mm 0,8 UV-I 192 W/m 4,7 C 16,2 C 27,4 km/h (4 Bft) 95,74 %
22.04.2019 17:28 20,1 C 16,1 C 21,7 C 35 % 1006,0 hPa 0,0 l/m 24,9 km/h (4 Bft) O 86 0 min 0,000 mm 0,7 UV-I 185 W/m 4,2 C 15,5 C 37,0 km/h (5 Bft) 97,87 %
22.04.2019 17:30 20,1 C 16,1 C 22,2 C 35 % 1006,0 hPa 0,0 l/m 22,3 km/h (4 Bft) O-SO 107 0 min 0,000 mm 0,7 UV-I 224 W/m 4,2 C 15,9 C 32,2 km/h (5 Bft) 98,00 %
22.04.2019 17:32 20,1 C 16,1 C 22,8 C 36 % 1006,0 hPa 0,0 l/m 15,2 km/h (3 Bft) O-SO 102 2 min 0,000 mm 0,8 UV-I 277 W/m 4,6 C 17,3 C 24,1 km/h (4 Bft) 100,00 %
22.04.2019 17:34 20,1 C 16,1 C 23,3 C 36 % 1006,0 hPa 0,0 l/m 25,2 km/h (4 Bft) O 90 2 min 0,000 mm 0,8 UV-I 290 W/m 4,6 C 15,5 C 37,0 km/h (5 Bft) 97,87 %
22.04.2019 17:36 20,1 C 16,1 C 23,9 C 35 % 1005,9 hPa 0,0 l/m 27,2 km/h (4 Bft) O 96 2 min 0,000 mm 0,8 UV-I 301 W/m 4,2 C 15,2 C 37,0 km/h (5 Bft) 95,74 %
22.04.2019 17:38 20,1 C 16,1 C 24,4 C 35 % 1006,0 hPa 0,0 l/m 25,4 km/h (4 Bft) O-NO 74 2 min 0,000 mm 0,7 UV-I 318 W/m 4,2 C 15,5 C 40,2 km/h (6 Bft) 94,00 %
22.04.2019 17:40 20,2 C 16,1 C 25,0 C 35 % 1005,9 hPa 0,0 l/m 27,0 km/h (4 Bft) O-NO 78 2 min 0,000 mm 0,7 UV-I 332 W/m 4,2 C 15,4 C 37,0 km/h (5 Bft) 95,74 %
22.04.2019 17:42 20,2 C 16,1 C 25,0 C 36 % 1005,9 hPa 0,0 l/m 23,9 km/h (4 Bft) O 84 2 min 0,000 mm 0,7 UV-I 326 W/m 4,7 C 15,8 C 35,4 km/h (5 Bft) 94,00 %
22.04.2019 17:44 20,3 C 16,1 C 25,0 C 35 % 1005,9 hPa 0,0 l/m 25,6 km/h (4 Bft) O 99 2 min 0,000 mm 0,7 UV-I 316 W/m 4,3 C 15,7 C 37,0 km/h (5 Bft) 95,74 %
22.04.2019 17:46 20,3 C 16,1 C 24,4 C 34 % 1005,9 hPa 0,0 l/m 26,1 km/h (4 Bft) O-SO 111 2 min 0,000 mm 0,7 UV-I 306 W/m 3,9 C 15,6 C 40,2 km/h (6 Bft) 95,74 %
22.04.2019 17:48 20,2 C 16,1 C 23,9 C 35 % 1005,9 hPa 0,0 l/m 25,8 km/h (4 Bft) O 92 2 min 0,000 mm 0,7 UV-I 308 W/m 4,2 C 15,5 C 40,2 km/h (6 Bft) 97,87 %
22.04.2019 17:50 20,2 C 16,1 C 23,9 C 35 % 1005,9 hPa 0,0 l/m 28,3 km/h (4 Bft) O-SO 120 2 min 0,000 mm 0,6 UV-I 289 W/m 4,2 C 15,2 C 45,1 km/h (6 Bft) 96,00 %
22.04.2019 17:52 20,2 C 16,1 C 23,9 C 35 % 1005,9 hPa 0,0 l/m 30,1 km/h (5 Bft) O-SO 109 2 min 0,000 mm 0,6 UV-I 289 W/m 4,2 C 15,0 C 40,2 km/h (6 Bft) 97,44 %
22.04.2019 17:54 20,2 C 16,1 C 23,9 C 34 % 1005,9 hPa 0,0 l/m 27,8 km/h (4 Bft) O 94 2 min 0,000 mm 0,6 UV-I 284 W/m 3,8 C 15,3 C 38,6 km/h (5 Bft) 96,15 %
22.04.2019 17:56 20,2 C 16,1 C 23,9 C 36 % 1005,9 hPa 0,0 l/m 23,2 km/h (4 Bft) O-SO 105 2 min 0,000 mm 0,6 UV-I 277 W/m 4,7 C 15,9 C 33,8 km/h (5 Bft) 95,74 %
22.04.2019 17:58 20,2 C 16,1 C 23,9 C 34 % 1005,9 hPa 0,0 l/m 25,7 km/h (4 Bft) O 87 2 min 0,000 mm 0,6 UV-I 271 W/m 3,8 C 15,6 C 37,0 km/h (5 Bft) 97,92 %
22.04.2019 18:00 20,2 C 16,1 C 23,3 C 35 % 1005,9 hPa 0,0 l/m 29,4 km/h (5 Bft) O 88 2 min 0,000 mm 0,6 UV-I 276 W/m 4,2 C 15,1 C 41,8 km/h (6 Bft) 95,74 %
22.04.2019 18:02 20,1 C 16,1 C 23,3 C 35 % 1005,9 hPa 0,0 l/m 25,4 km/h (4 Bft) O 84 2 min 0,407 mm 0,5 UV-I 281 W/m 4,2 C 15,5 C 35,4 km/h (5 Bft) 97,87 %
22.04.2019 18:04 20,1 C 16,1 C 22,8 C 35 % 1005,9 hPa 0,0 l/m 26,5 km/h (4 Bft) O 87 2 min 0,000 mm 0,5 UV-I 279 W/m 4,2 C 15,3 C 40,2 km/h (6 Bft) 100,00 %
22.04.2019 18:06 20,1 C 16,1 C 21,7 C 34 % 1005,9 hPa 0,0 l/m 29,4 km/h (5 Bft) O-NO 74 2 min 0,000 mm 0,5 UV-I 287 W/m 3,7 C 14,9 C 41,8 km/h (6 Bft) 100,00 %
22.04.2019 18:08 20,1 C 16,1 C 21,7 C 34 % 1005,8 hPa 0,0 l/m 24,5 km/h (4 Bft) O 94 2 min 0,000 mm 0,5 UV-I 284 W/m 3,7 C 15,6 C 38,6 km/h (5 Bft) 97,87 %
22.04.2019 18:10 20,0 C 16,1 C 21,7 C 34 % 1005,8 hPa 0,0 l/m 24,9 km/h (4 Bft) O-SO 103 2 min 0,000 mm 0,5 UV-I 272 W/m 3,7 C 15,4 C 37,0 km/h (5 Bft) 97,37 %
22.04.2019 18:12 20,0 C 16,1 C 21,1 C 34 % 1005,8 hPa 0,0 l/m 24,9 km/h (4 Bft) O 85 2 min 0,000 mm 0,4 UV-I 249 W/m 3,7 C 15,4 C 32,2 km/h (5 Bft) 97,87 %
22.04.2019 18:14 19,9 C 16,1 C 20,6 C 34 % 1005,8 hPa 0,0 l/m 24,1 km/h (4 Bft) O 96 2 min 0,000 mm 0,0 UV-I 227 W/m 3,6 C 15,4 C 35,4 km/h (5 Bft) 97,87 %
22.04.2019 18:16 19,9 C 16,1 C 20,6 C 35 % 1005,7 hPa 0,0 l/m 28,4 km/h (4 Bft) O-NO 63 2 min 0,000 mm 0,0 UV-I 225 W/m 4,0 C 14,8 C 35,4 km/h (5 Bft) 97,87 %
22.04.2019 18:18 19,8 C 16,1 C 20,0 C 34 % 1005,7 hPa 0,0 l/m 33,2 km/h (5 Bft) O-NO 59 2 min 0,000 mm 0,0 UV-I 189 W/m 3,5 C 14,1 C 46,7 km/h (6 Bft) 100,00 %
22.04.2019 18:20 19,8 C 16,1 C 19,4 C 34 % 1005,7 hPa 0,0 l/m 28,8 km/h (4 Bft) O-NO 78 2 min 0,000 mm 0,0 UV-I 174 W/m 3,5 C 14,6 C 38,6 km/h (5 Bft) 100,00 %
22.04.2019 18:22 19,7 C 16,1 C 19,4 C 34 % 1005,7 hPa 0,0 l/m 28,4 km/h (4 Bft) O-NO 65 2 min 0,000 mm 0,0 UV-I 176 W/m 3,4 C 14,5 C 37,0 km/h (5 Bft) 100,00 %
22.04.2019 18:24 19,6 C 16,1 C 19,4 C 35 % 1005,6 hPa 0,0 l/m 26,9 km/h (4 Bft) O-NO 75 2 min 0,000 mm 0,0 UV-I 193 W/m 3,7 C 14,6 C 40,2 km/h (6 Bft) 97,87 %
22.04.2019 18:26 19,6 C 16,1 C 19,4 C 35 % 1005,6 hPa 0,0 l/m 32,3 km/h (5 Bft) O 80 2 min 0,000 mm 0,0 UV-I 211 W/m 3,7 C 13,9 C 40,2 km/h (6 Bft) 100,00 %
22.04.2019 18:28 19,6 C 16,1 C 19,4 C 34 % 1005,6 hPa 0,0 l/m 33,2 km/h (5 Bft) O-NO 71 2 min 0,000 mm 0,0 UV-I 211 W/m 3,3 C 13,8 C 45,1 km/h (6 Bft) 100,00 %
22.04.2019 18:30 19,6 C 16,1 C 19,4 C 35 % 1005,6 hPa 0,0 l/m 27,6 km/h (4 Bft) O-NO 58 2 min 0,000 mm 0,0 UV-I 208 W/m 3,7 C 14,5 C 43,5 km/h (6 Bft) 100,00 %
22.04.2019 18:32 19,6 C 16,1 C 19,4 C 35 % 1005,5 hPa 0,0 l/m 30,9 km/h (5 Bft) O-NO 71 2 min 0,000 mm 0,0 UV-I 204 W/m 3,7 C 14,0 C 46,7 km/h (6 Bft) 97,87 %
22.04.2019 18:34 19,6 C 16,1 C 19,4 C 35 % 1005,6 hPa 0,0 l/m 30,7 km/h (5 Bft) NO 55 2 min 0,000 mm 0,0 UV-I 199 W/m 3,7 C 14,1 C 43,5 km/h (6 Bft) 100,00 %
22.04.2019 18:36 19,6 C 16,1 C 19,4 C 35 % 1005,5 hPa 0,0 l/m 35,4 km/h (5 Bft) O-NO 78 2 min 0,000 mm 0,0 UV-I 194 W/m 3,7 C 13,6 C 45,1 km/h (6 Bft) 97,87 %
22.04.2019 18:38 19,5 C 16,1 C 18,9 C 36 % 1005,5 hPa 0,0 l/m 33,2 km/h (5 Bft) O 80 2 min 0,000 mm 0,0 UV-I 189 W/m 4,0 C 13,6 C 41,8 km/h (6 Bft) 97,87 %
22.04.2019 18:40 19,4 C 16,1 C 18,9 C 36 % 1005,5 hPa 0,0 l/m 31,6 km/h (5 Bft) NO 41 2 min 0,000 mm 0,0 UV-I 183 W/m 3,9 C 13,7 C 43,5 km/h (6 Bft) 95,74 %
22.04.2019 18:42 19,4 C 16,1 C 18,9 C 36 % 1005,5 hPa 0,0 l/m 32,3 km/h (5 Bft) O-NO 69 2 min 0,000 mm 0,0 UV-I 176 W/m 3,9 C 13,6 C 48,3 km/h (6 Bft) 95,74 %
22.04.2019 18:44 19,4 C 16,1 C 18,9 C 36 % 1005,4 hPa 0,0 l/m 32,0 km/h (5 Bft) O-NO 70 2 min 0,000 mm 0,0 UV-I 169 W/m 3,9 C 13,6 C 45,1 km/h (6 Bft) 100,00 %
22.04.2019 18:46 19,3 C 16,1 C 18,9 C 37 % 1005,5 hPa 0,0 l/m 28,6 km/h (4 Bft) O-NO 71 2 min 0,000 mm 0,0 UV-I 164 W/m 4,2 C 13,9 C 41,8 km/h (6 Bft) 100,00 %
22.04.2019 18:48 19,3 C 16,1 C 18,9 C 37 % 1005,4 hPa 0,0 l/m 33,4 km/h (5 Bft) O-NO 68 2 min 0,000 mm 0,0 UV-I 159 W/m 4,2 C 13,3 C 41,8 km/h (6 Bft) 100,00 %
22.04.2019 18:50 19,2 C 16,1 C 18,9 C 36 % 1005,4 hPa 0,0 l/m 36,6 km/h (5 Bft) O-NO 64 2 min 0,000 mm 0,0 UV-I 153 W/m 3,8 C 12,9 C 46,7 km/h (6 Bft) 100,00 %
22.04.2019 18:52 19,2 C 16,1 C 18,3 C 37 % 1005,5 hPa 0,0 l/m 26,0 km/h (4 Bft) O-NO 69 2 min 0,000 mm 0,0 UV-I 147 W/m 4,2 C 14,1 C 37,0 km/h (5 Bft) 97,87 %
22.04.2019 18:54 19,2 C 16,1 C 18,3 C 37 % 1005,4 hPa 0,0 l/m 30,6 km/h (5 Bft) O 85 2 min 0,000 mm 0,0 UV-I 142 W/m 4,2 C 13,5 C 46,7 km/h (6 Bft) 100,00 %
22.04.2019 18:56 19,1 C 16,1 C 18,3 C 36 % 1005,4 hPa 0,0 l/m 31,9 km/h (5 Bft) O 86 2 min 0,000 mm 0,0 UV-I 137 W/m 3,7 C 13,2 C 40,2 km/h (6 Bft) 100,00 %
22.04.2019 18:58 19,1 C 16,1 C 18,3 C 37 % 1005,4 hPa 0,0 l/m 32,2 km/h (5 Bft) O-NO 67 2 min 0,000 mm 0,0 UV-I 131 W/m 4,1 C 13,2 C 46,7 km/h (6 Bft) 100,00 %
22.04.2019 19:00 19,1 C 16,1 C 18,3 C 37 % 1005,4 hPa 0,0 l/m 34,0 km/h (5 Bft) O-NO 62 2 min 0,000 mm 0,0 UV-I 126 W/m 4,1 C 13,0 C 48,3 km/h (6 Bft) 100,00 %
22.04.2019 19:02 19,0 C 16,1 C 18,3 C 37 % 1005,4 hPa 0,0 l/m 27,6 km/h (4 Bft) O-NO 71 2 min 0,381 mm 0,0 UV-I 121 W/m 4,0 C 13,6 C 37,0 km/h (5 Bft) 100,00 %
22.04.2019 19:04 18,9 C 16,1 C 18,3 C 37 % 1005,4 hPa 0,0 l/m 27,7 km/h (4 Bft) O-NO 70 2 min 0,000 mm 0,0 UV-I 116 W/m 3,9 C 13,5 C 38,6 km/h (5 Bft) 100,00 %
22.04.2019 19:06 18,9 C 16,1 C 18,3 C 37 % 1005,4 hPa 0,0 l/m 30,6 km/h (5 Bft) O 80 2 min 0,000 mm 0,0 UV-I 111 W/m 3,9 C 13,1 C 43,5 km/h (6 Bft) 97,96 %
22.04.2019 19:08 18,9 C 16,1 C 17,8 C 37 % 1005,4 hPa 0,0 l/m 26,1 km/h (4 Bft) O-NO 78 2 min 0,000 mm 0,0 UV-I 106 W/m 3,9 C 13,7 C 37,0 km/h (5 Bft) 93,75 %
22.04.2019 19:10 18,8 C 16,1 C 17,8 C 37 % 1005,4 hPa 0,0 l/m 26,9 km/h (4 Bft) O-NO 63 2 min 0,000 mm 0,0 UV-I 100 W/m 3,8 C 13,5 C 37,0 km/h (5 Bft) 95,74 %
22.04.2019 19:12 18,8 C 16,1 C 17,8 C 37 % 1005,4 hPa 0,0 l/m 25,6 km/h (4 Bft) O 80 2 min 0,000 mm 0,0 UV-I 97 W/m 3,8 C 13,7 C 37,0 km/h (5 Bft) 95,74 %
22.04.2019 19:14 18,7 C 16,1 C 17,8 C 37 % 1005,4 hPa 0,0 l/m 23,8 km/h (4 Bft) O 90 2 min 0,000 mm 0,0 UV-I 92 W/m 3,7 C 13,8 C 33,8 km/h (5 Bft) 96,00 %
22.04.2019 19:16 18,7 C 16,1 C 17,8 C 37 % 1005,4 hPa 0,0 l/m 25,7 km/h (4 Bft) O-NO 78 2 min 0,000 mm 0,0 UV-I 89 W/m 3,7 C 13,5 C 35,4 km/h (5 Bft) 95,74 %
22.04.2019 19:18 18,7 C 16,1 C 17,8 C 37 % 1005,3 hPa 0,0 l/m 26,7 km/h (4 Bft) O-NO 70 2 min 0,000 mm 0,0 UV-I 84 W/m 3,7 C 13,4 C 35,4 km/h (5 Bft) 93,62 %
22.04.2019 19:20 18,6 C 16,1 C 17,8 C 37 % 1005,3 hPa 0,0 l/m 28,6 km/h (4 Bft) O-NO 67 2 min 0,000 mm 0,0 UV-I 78 W/m 3,6 C 12,9 C 40,2 km/h (6 Bft) 96,00 %
22.04.2019 19:22 18,6 C 16,1 C 17,2 C 37 % 1005,4 hPa 0,0 l/m 24,2 km/h (4 Bft) O-NO 63 2 min 0,000 mm 0,0 UV-I 76 W/m 3,6 C 13,6 C 30,6 km/h (5 Bft) 95,74 %
22.04.2019 19:24 18,5 C 16,1 C 17,2 C 38 % 1005,4 hPa 0,0 l/m 25,2 km/h (4 Bft) O-NO 69 2 min 0,000 mm 0,0 UV-I 71 W/m 3,9 C 13,3 C 33,8 km/h (5 Bft) 94,74 %
22.04.2019 19:26 18,4 C 16,1 C 17,2 C 38 % 1005,4 hPa 0,0 l/m 29,8 km/h (5 Bft) O-NO 70 2 min 0,000 mm 0,0 UV-I 68 W/m 3,8 C 12,5 C 48,3 km/h (6 Bft) 95,74 %
22.04.2019 19:28 18,4 C 16,1 C 17,2 C 39 % 1005,4 hPa 0,0 l/m 20,9 km/h (4 Bft) O 97 2 min 0,000 mm 0,0 UV-I 64 W/m 4,2 C 14,0 C 27,4 km/h (4 Bft) 96,00 %
22.04.2019 19:30 18,3 C 15,6 C 17,2 C 38 % 1005,4 hPa 0,0 l/m 23,9 km/h (4 Bft) O-NO 62 2 min 0,000 mm 0,0 UV-I 60 W/m 3,7 C 13,3 C 38,6 km/h (5 Bft) 91,49 %
22.04.2019 19:32 18,3 C 15,6 C 17,2 C 38 % 1005,2 hPa 0,0 l/m 30,8 km/h (5 Bft) NO 50 2 min 0,000 mm 0,0 UV-I 55 W/m 3,7 C 12,2 C 46,7 km/h (6 Bft) 97,87 %
22.04.2019 19:34 18,3 C 15,6 C 17,2 C 39 % 1005,4 hPa 0,0 l/m 24,0 km/h (4 Bft) O-NO 65 2 min 0,000 mm 0,0 UV-I 52 W/m 4,1 C 13,2 C 38,6 km/h (5 Bft) 97,87 %
22.04.2019 19:36 18,2 C 15,6 C 16,7 C 39 % 1005,3 hPa 0,0 l/m 22,1 km/h (4 Bft) O 85 2 min 0,000 mm 0,0 UV-I 49 W/m 4,0 C 13,5 C 33,8 km/h (5 Bft) 95,45 %
22.04.2019 19:38 18,2 C 15,6 C 16,7 C 38 % 1005,3 hPa 0,0 l/m 24,7 km/h (4 Bft) NO 56 2 min 0,000 mm 0,0 UV-I 45 W/m 3,7 C 13,0 C 33,8 km/h (5 Bft) 95,74 %
22.04.2019 19:40 18,1 C 15,6 C 16,7 C 39 % 1005,3 hPa 0,0 l/m 27,2 km/h (4 Bft) O 96 2 min 0,000 mm 0,0 UV-I 42 W/m 3,9 C 12,5 C 37,0 km/h (5 Bft) 95,74 %
22.04.2019 19:42 18,1 C 15,6 C 16,7 C 39 % 1005,3 hPa 0,0 l/m 30,3 km/h (5 Bft) O-NO 67 2 min 0,000 mm 0,0 UV-I 39 W/m 3,9 C 12,0 C 48,3 km/h (6 Bft) 97,87 %
22.04.2019 19:44 18,1 C 15,6 C 16,7 C 38 % 1005,4 hPa 0,0 l/m 30,6 km/h (5 Bft) O-NO 71 2 min 0,000 mm 0,0 UV-I 34 W/m 3,6 C 12,0 C 41,8 km/h (6 Bft) 93,62 %
22.04.2019 19:46 18,1 C 15,6 C 16,7 C 39 % 1005,3 hPa 0,0 l/m 23,6 km/h (4 Bft) O 88 2 min 0,000 mm 0,0 UV-I 29 W/m 3,9 C 13,1 C 33,8 km/h (5 Bft) 100,00 %
22.04.2019 19:48 18,0 C 15,6 C 16,7 C 39 % 1005,3 hPa 0,0 l/m 27,3 km/h (4 Bft) O-NO 75 2 min 0,000 mm 0,0 UV-I 26 W/m 3,8 C 12,3 C 41,8 km/h (6 Bft) 97,87 %
22.04.2019 19:50 18,0 C 15,6 C 16,7 C 39 % 1005,3 hPa 0,0 l/m 25,8 km/h (4 Bft) O-NO 59 2 min 0,000 mm 0,0 UV-I 22 W/m 3,8 C 12,5 C 38,6 km/h (5 Bft) 100,00 %
22.04.2019 19:52 17,9 C 15,6 C 16,7 C 39 % 1005,3 hPa 0,0 l/m 26,3 km/h (4 Bft) O-NO 71 2 min 0,000 mm 0,0 UV-I 18 W/m 3,8 C 12,3 C 43,5 km/h (6 Bft) 100,00 %
22.04.2019 19:54 17,9 C 15,6 C 16,7 C 39 % 1005,4 hPa 0,0 l/m 24,5 km/h (4 Bft) O-NO 63 0 min 0,000 mm 0,0 UV-I 16 W/m 3,8 C 12,6 C 33,8 km/h (5 Bft) 100,00 %
22.04.2019 19:56 17,8 C 15,6 C 16,1 C 39 % 1005,3 hPa 0,0 l/m 26,3 km/h (4 Bft) O-NO 76 0 min 0,000 mm 0,0 UV-I 13 W/m 3,7 C 12,2 C 38,6 km/h (5 Bft) 98,00 %
22.04.2019 19:58 17,8 C 15,6 C 16,1 C 40 % 1005,3 hPa 0,0 l/m 21,8 km/h (4 Bft) O-NO 74 0 min 0,000 mm 0,0 UV-I 12 W/m 4,0 C 13,0 C 32,2 km/h (5 Bft) 100,00 %
22.04.2019 20:00 17,7 C 15,6 C 16,1 C 40 % 1005,4 hPa 0,0 l/m 23,3 km/h (4 Bft) O-SO 110 0 min 0,254 mm 0,0 UV-I 11 W/m 3,9 C 12,6 C 32,2 km/h (5 Bft) 100,00 %
22.04.2019 20:02 17,7 C 15,6 C 16,1 C 40 % 1005,3 hPa 0,0 l/m 28,3 km/h (4 Bft) O-NO 71 0 min 0,000 mm 0,0 UV-I 11 W/m 3,9 C 11,7 C 40,2 km/h (6 Bft) 100,00 %
22.04.2019 20:04 17,7 C 15,6 C 16,1 C 40 % 1005,4 hPa 0,0 l/m 25,5 km/h (4 Bft) O-NO 69 0 min 0,000 mm 0,0 UV-I 9 W/m 3,9 C 12,2 C 33,8 km/h (5 Bft) 97,87 %
22.04.2019 20:06 17,6 C 15,6 C 16,1 C 40 % 1005,4 hPa 0,0 l/m 28,4 km/h (4 Bft) O-NO 64 0 min 0,000 mm 0,0 UV-I 7 W/m 3,8 C 11,6 C 38,6 km/h (5 Bft) 100,00 %
22.04.2019 20:08 17,6 C 15,6 C 16,1 C 41 % 1005,3 hPa 0,0 l/m 30,6 km/h (5 Bft) O 80 0 min 0,000 mm 0,0 UV-I 7 W/m 4,2 C 11,3 C 54,7 km/h (7 Bft) 97,87 %
22.04.2019 20:10 17,6 C 15,6 C 16,1 C 41 % 1005,4 hPa 0,0 l/m 33,6 km/h (5 Bft) O 80 0 min 0,000 mm 0,0 UV-I 6 W/m 4,2 C 10,9 C 46,7 km/h (6 Bft) 100,00 %
22.04.2019 20:12 17,6 C 15,6 C 16,1 C 41 % 1005,4 hPa 0,0 l/m 28,5 km/h (4 Bft) O-NO 59 0 min 0,000 mm 0,0 UV-I 5 W/m 4,2 C 11,6 C 51,5 km/h (7 Bft) 100,00 %
22.04.2019 20:14 17,4 C 15,6 C 16,1 C 42 % 1005,4 hPa 0,0 l/m 22,0 km/h (4 Bft) O-NO 65 0 min 0,000 mm 0,0 UV-I 5 W/m 4,4 C 12,4 C 33,8 km/h (5 Bft) 100,00 %
22.04.2019 20:16 17,3 C 15,6 C 15,6 C 42 % 1005,4 hPa 0,0 l/m 30,3 km/h (5 Bft) O 84 0 min 0,000 mm 0,0 UV-I 5 W/m 4,3 C 10,9 C 41,8 km/h (6 Bft) 100,00 %
22.04.2019 20:18 17,2 C 15,6 C 15,6 C 43 % 1005,4 hPa 0,0 l/m 26,1 km/h (4 Bft) O-NO 65 0 min 0,000 mm 0,0 UV-I 1 W/m 4,5 C 11,4 C 38,6 km/h (5 Bft) 100,00 %
22.04.2019 20:20 17,1 C 15,6 C 15,6 C 43 % 1005,4 hPa 0,0 l/m 26,3 km/h (4 Bft) O 80 0 min 0,000 mm 0,0 UV-I 0 W/m 4,4 C 11,2 C 35,4 km/h (5 Bft) 97,87 %
22.04.2019 20:22 17,1 C 15,6 C 15,6 C 44 % 1005,4 hPa 0,0 l/m 26,6 km/h (4 Bft) NO 53 0 min 0,000 mm 0,0 UV-I 0 W/m 4,8 C 11,2 C 38,6 km/h (5 Bft) 97,87 %
22.04.2019 20:24 16,9 C 15,6 C 15,6 C 44 % 1005,5 hPa 0,0 l/m 26,1 km/h (4 Bft) O-NO 63 0 min 0,000 mm 0,0 UV-I 0 W/m 4,6 C 11,0 C 35,4 km/h (5 Bft) 100,00 %
22.04.2019 20:26 16,8 C 15,6 C 15,0 C 45 % 1005,5 hPa 0,0 l/m 24,1 km/h (4 Bft) O-NO 59 0 min 0,000 mm 0,0 UV-I 0 W/m 4,8 C 11,2 C 38,6 km/h (5 Bft) 100,00 %
22.04.2019 20:28 16,7 C 15,6 C 15,0 C 46 % 1005,4 hPa 0,0 l/m 20,1 km/h (4 Bft) O-NO 60 0 min 0,000 mm 0,0 UV-I 0 W/m 5,0 C 11,9 C 30,6 km/h (5 Bft) 98,11 %
22.04.2019 20:30 16,6 C 15,6 C 15,0 C 46 % 1005,5 hPa 0,0 l/m 20,1 km/h (4 Bft) O 86 0 min 0,000 mm 0,0 UV-I 0 W/m 4,9 C 11,8 C 30,6 km/h (5 Bft) 97,87 %
22.04.2019 20:32 16,6 C 15,6 C 15,0 C 46 % 1005,4 hPa 0,0 l/m 24,0 km/h (4 Bft) O-NO 59 0 min 0,000 mm 0,0 UV-I 0 W/m 4,9 C 11,0 C 38,6 km/h (5 Bft) 100,00 %
22.04.2019 20:34 16,4 C 15,6 C 15,0 C 47 % 1005,4 hPa 0,0 l/m 28,8 km/h (4 Bft) NO 55 0 min 0,000 mm 0,0 UV-I 0 W/m 5,1 C 9,8 C 43,5 km/h (6 Bft) 95,74 %
22.04.2019 20:36 16,4 C 15,6 C 15,0 C 47 % 1005,4 hPa 0,0 l/m 25,3 km/h (4 Bft) O-NO 62 0 min 0,000 mm 0,0 UV-I 0 W/m 5,1 C 10,4 C 33,8 km/h (5 Bft) 93,62 %
22.04.2019 20:39 16,3 C 15,6 C 14,4 C 48 % 1005,4 hPa 0,0 l/m 24,6 km/h (4 Bft) NO 43 0 min 0,000 mm 0,0 UV-I 0 W/m 5,3 C 10,4 C 35,4 km/h (5 Bft) 94,29 %
22.04.2019 20:40 16,2 C 15,6 C 14,4 C 48 % 1005,4 hPa 0,0 l/m 27,4 km/h (4 Bft) O-NO 71 0 min 0,000 mm 0,0 UV-I 0 W/m 5,2 C 9,8 C 33,8 km/h (5 Bft) 93,33 %
22.04.2019 20:42 16,2 C 15,6 C 14,4 C 48 % 1005,5 hPa 0,0 l/m 27,6 km/h (4 Bft) NO 47 0 min 0,000 mm 0,0 UV-I 0 W/m 5,2 C 9,8 C 41,8 km/h (6 Bft) 93,62 %
22.04.2019 20:44 16,2 C 15,6 C 14,4 C 48 % 1005,5 hPa 0,0 l/m 23,6 km/h (4 Bft) NO 48 0 min 0,000 mm 0,0 UV-I 0 W/m 5,2 C 10,5 C 33,8 km/h (5 Bft) 95,74 %
22.04.2019 20:46 16,2 C 15,6 C 14,4 C 49 % 1005,5 hPa 0,0 l/m 27,1 km/h (4 Bft) N-NO 28 0 min 0,000 mm 0,0 UV-I 0 W/m 5,5 C 9,9 C 38,6 km/h (5 Bft) 96,00 %
22.04.2019 20:48 16,1 C 15,6 C 14,4 C 49 % 1005,4 hPa 0,0 l/m 28,8 km/h (4 Bft) O-NO 66 0 min 0,000 mm 0,0 UV-I 0 W/m 5,4 C 9,4 C 40,2 km/h (6 Bft) 96,00 %
22.04.2019 20:50 16,1 C 15,6 C 14,4 C 49 % 1005,4 hPa 0,0 l/m 26,4 km/h (4 Bft) NO 53 0 min 0,000 mm 0,0 UV-I 0 W/m 5,4 C 9,8 C 33,8 km/h (5 Bft) 93,62 %
22.04.2019 20:52 16,0 C 15,6 C 14,4 C 49 % 1005,5 hPa 0,0 l/m 24,4 km/h (4 Bft) O-NO 74 0 min 0,000 mm 0,0 UV-I 0 W/m 5,3 C 10,1 C 30,6 km/h (5 Bft) 95,74 %
22.04.2019 20:54 15,9 C 15,6 C 14,4 C 50 % 1005,5 hPa 0,0 l/m 22,8 km/h (4 Bft) NO 55 0 min 0,000 mm 0,0 UV-I 0 W/m 5,5 C 10,3 C 32,2 km/h (5 Bft) 93,62 %
22.04.2019 20:56 15,9 C 15,6 C 14,4 C 50 % 1005,5 hPa 0,0 l/m 27,1 km/h (4 Bft) O-SO 102 0 min 0,000 mm 0,0 UV-I 0 W/m 5,5 C 9,4 C 38,6 km/h (5 Bft) 94,74 %
22.04.2019 20:58 15,8 C 15,6 C 14,4 C 50 % 1005,4 hPa 0,0 l/m 25,1 km/h (4 Bft) O-NO 66 0 min 0,000 mm 0,0 UV-I 0 W/m 5,4 C 9,7 C 35,4 km/h (5 Bft) 93,62 %
22.04.2019 21:00 15,8 C 15,6 C 14,4 C 50 % 1005,5 hPa 0,0 l/m 29,3 km/h (5 Bft) O-NO 77 0 min 0,000 mm 0,0 UV-I 0 W/m 5,4 C 8,9 C 40,2 km/h (6 Bft) 95,74 %
22.04.2019 21:02 15,8 C 15,6 C 14,4 C 50 % 1005,5 hPa 0,0 l/m 23,4 km/h (4 Bft) O-NO 78 0 min 0,178 mm 0,0 UV-I 0 W/m 5,4 C 10,0 C 37,0 km/h (5 Bft) 95,83 %
22.04.2019 21:04 15,8 C 15,6 C 14,4 C 50 % 1005,5 hPa 0,0 l/m 25,9 km/h (4 Bft) O-NO 70 0 min 0,000 mm 0,0 UV-I 0 W/m 5,4 C 9,5 C 32,2 km/h (5 Bft) 97,87 %
22.04.2019 21:06 15,7 C 15,6 C 14,4 C 50 % 1005,4 hPa 0,0 l/m 24,4 km/h (4 Bft) O 91 0 min 0,000 mm 0,0 UV-I 0 W/m 5,3 C 9,7 C 38,6 km/h (5 Bft) 96,00 %
22.04.2019 21:09 15,7 C 15,6 C 14,4 C 50 % 1005,3 hPa 0,0 l/m 24,4 km/h (4 Bft) NO 50 0 min 0,000 mm 0,0 UV-I 0 W/m 5,3 C 9,7 C 37,0 km/h (5 Bft) 97,14 %
22.04.2019 21:10 15,6 C 15,6 C 14,4 C 50 % 1005,3 hPa 0,0 l/m 26,3 km/h (4 Bft) O 80 0 min 0,000 mm 0,0 UV-I 0 W/m 5,2 C 9,2 C 41,8 km/h (6 Bft) 91,67 %
22.04.2019 21:12 15,6 C 15,6 C 14,4 C 50 % 1005,4 hPa 0,0 l/m 27,6 km/h (4 Bft) O-NO 76 0 min 0,000 mm 0,0 UV-I 0 W/m 5,2 C 8,9 C 40,2 km/h (6 Bft) 96,00 %
22.04.2019 21:14 15,6 C 15,6 C 14,4 C 51 % 1005,4 hPa 0,0 l/m 25,8 km/h (4 Bft) O-NO 73 0 min 0,000 mm 0,0 UV-I 0 W/m 5,5 C 9,3 C 35,4 km/h (5 Bft) 95,74 %
22.04.2019 21:16 15,6 C 15,6 C 14,4 C 51 % 1005,4 hPa 0,0 l/m 27,8 km/h (4 Bft) O-NO 75 0 min 0,000 mm 0,0 UV-I 0 W/m 5,5 C 8,9 C 40,2 km/h (6 Bft) 95,74 %
22.04.2019 21:18 15,5 C 15,6 C 14,4 C 51 % 1005,4 hPa 0,0 l/m 28,4 km/h (4 Bft) NO 52 0 min 0,000 mm 0,0 UV-I 0 W/m 5,4 C 8,7 C 38,6 km/h (5 Bft) 94,74 %
22.04.2019 21:20 15,5 C 15,6 C 14,4 C 51 % 1005,4 hPa 0,0 l/m 26,3 km/h (4 Bft) O-NO 61 0 min 0,000 mm 0,0 UV-I 0 W/m 5,4 C 9,0 C 48,3 km/h (6 Bft) 93,62 %
22.04.2019 21:22 15,6 C 15,6 C 14,4 C 51 % 1005,3 hPa 0,0 l/m 31,6 km/h (5 Bft) O-NO 72 0 min 0,000 mm 0,0 UV-I 0 W/m 5,5 C 8,3 C 45,1 km/h (6 Bft) 95,74 %
22.04.2019 21:24 15,5 C 15,6 C 14,4 C 51 % 1005,4 hPa 0,0 l/m 26,7 km/h (4 Bft) O 90 0 min 0,000 mm 0,0 UV-I 0 W/m 5,4 C 9,0 C 41,8 km/h (6 Bft) 93,62 %
22.04.2019 21:26 15,6 C 15,6 C 14,4 C 50 % 1005,3 hPa 0,0 l/m 32,6 km/h (5 Bft) O-NO 63 0 min 0,000 mm 0,0 UV-I 0 W/m 5,2 C 8,1 C 43,5 km/h (6 Bft) 95,74 %
22.04.2019 21:28 15,6 C 15,6 C 14,4 C 50 % 1005,3 hPa 0,0 l/m 34,7 km/h (5 Bft) O 84 0 min 0,000 mm 0,0 UV-I 0 W/m 5,2 C 7,8 C 49,9 km/h (6 Bft) 96,00 %
22.04.2019 21:30 15,6 C 15,6 C 14,4 C 50 % 1005,4 hPa 0,0 l/m 28,5 km/h (4 Bft) O-NO 62 0 min 0,000 mm 0,0 UV-I 0 W/m 5,2 C 8,8 C 40,2 km/h (6 Bft) 96,00 %
22.04.2019 21:32 15,4 C 15,6 C 13,9 C 51 % 1005,5 hPa 0,0 l/m 26,0 km/h (4 Bft) O 90 0 min 0,000 mm 0,0 UV-I 0 W/m 5,3 C 9,0 C 41,8 km/h (6 Bft) 95,74 %
22.04.2019 21:34 15,4 C 15,6 C 13,9 C 51 % 1005,3 hPa 0,0 l/m 28,8 km/h (4 Bft) O-NO 71 0 min 0,000 mm 0,0 UV-I 0 W/m 5,3 C 8,4 C 38,6 km/h (5 Bft) 95,74 %
22.04.2019 21:36 15,4 C 15,6 C 13,9 C 50 % 1005,2 hPa 0,0 l/m 31,9 km/h (5 Bft) NO 34 0 min 0,000 mm 0,0 UV-I 0 W/m 5,0 C 8,0 C 54,7 km/h (7 Bft) 94,44 %
22.04.2019 21:38 15,4 C 15,6 C 13,9 C 51 % 1005,4 hPa 0,0 l/m 26,2 km/h (4 Bft) O-NO 77 0 min 0,000 mm 0,0 UV-I 0 W/m 5,3 C 8,9 C 33,8 km/h (5 Bft) 92,00 %
22.04.2019 21:40 15,4 C 15,6 C 13,9 C 51 % 1005,2 hPa 0,0 l/m 31,4 km/h (5 Bft) O-NO 73 0 min 0,000 mm 0,0 UV-I 0 W/m 5,3 C 8,0 C 45,1 km/h (6 Bft) 93,62 %
22.04.2019 21:42 15,4 C 15,6 C 13,9 C 51 % 1005,2 hPa 0,0 l/m 31,2 km/h (5 Bft) O-NO 75 0 min 0,000 mm 0,0 UV-I 0 W/m 5,3 C 8,1 C 48,3 km/h (6 Bft) 96,00 %
22.04.2019 21:44 15,3 C 15,6 C 13,9 C 51 % 1005,1 hPa 0,0 l/m 27,8 km/h (4 Bft) O 97 0 min 0,000 mm 0,0 UV-I 0 W/m 5,2 C 8,5 C 40,2 km/h (6 Bft) 92,00 %
22.04.2019 21:46 15,3 C 15,6 C 14,4 C 51 % 1005,1 hPa 0,0 l/m 32,2 km/h (5 Bft) O-NO 69 0 min 0,000 mm 0,0 UV-I 0 W/m 5,2 C 7,8 C 45,1 km/h (6 Bft) 98,00 %
22.04.2019 21:48 15,3 C 15,6 C 14,4 C 50 % 1005,3 hPa 0,0 l/m 30,0 km/h (5 Bft) O 88 0 min 0,000 mm 0,0 UV-I 0 W/m 4,9 C 8,1 C 41,8 km/h (6 Bft) 94,74 %
22.04.2019 21:50 15,4 C 15,6 C 14,4 C 50 % 1005,3 hPa 0,0 l/m 32,7 km/h (5 Bft) O-SO 103 0 min 0,000 mm 0,0 UV-I 0 W/m 5,0 C 7,8 C 41,8 km/h (6 Bft) 100,00 %
22.04.2019 21:52 15,4 C 15,6 C 13,9 C 50 % 1005,3 hPa 0,0 l/m 31,0 km/h (5 Bft) O-NO 67 0 min 0,000 mm 0,0 UV-I 0 W/m 5,0 C 8,1 C 43,5 km/h (6 Bft) 100,00 %
22.04.2019 21:54 15,3 C 15,6 C 14,4 C 50 % 1005,1 hPa 0,0 l/m 37,4 km/h (5 Bft) O 92 0 min 0,000 mm 0,0 UV-I 0 W/m 4,9 C 7,1 C 53,1 km/h (7 Bft) 93,62 %
22.04.2019 21:56 15,3 C 15,6 C 13,9 C 50 % 1005,1 hPa 0,0 l/m 33,7 km/h (5 Bft) O 84 0 min 0,000 mm 0,0 UV-I 0 W/m 4,9 C 7,5 C 45,1 km/h (6 Bft) 97,87 %
22.04.2019 21:58 15,3 C 15,6 C 13,9 C 50 % 1005,1 hPa 0,0 l/m 28,6 km/h (4 Bft) O-NO 74 0 min 0,000 mm 0,0 UV-I 0 W/m 4,9 C 8,3 C 38,6 km/h (5 Bft) 100,00 %
22.04.2019 22:00 15,3 C 15,6 C 13,9 C 50 % 1005,2 hPa 0,0 l/m 27,2 km/h (4 Bft) O-NO 63 0 min 0,000 mm 0,0 UV-I 0 W/m 4,9 C 8,6 C 41,8 km/h (6 Bft) 100,00 %
22.04.2019 22:02 15,2 C 15,6 C 13,9 C 50 % 1005,1 hPa 0,0 l/m 30,1 km/h (5 Bft) O-NO 63 0 min 0,177 mm 0,0 UV-I 0 W/m 4,8 C 8,0 C 45,1 km/h (6 Bft) 98,15 %
22.04.2019 22:04 15,2 C 15,6 C 13,9 C 50 % 1005,0 hPa 0,0 l/m 30,9 km/h (5 Bft) O 96 0 min 0,000 mm 0,0 UV-I 0 W/m 4,8 C 7,8 C 45,1 km/h (6 Bft) 97,87 %
22.04.2019 22:06 15,2 C 15,6 C 13,9 C 50 % 1005,0 hPa 0,0 l/m 29,1 km/h (5 Bft) O-NO 62 0 min 0,000 mm 0,0 UV-I 0 W/m 4,8 C 8,1 C 41,8 km/h (6 Bft) 98,00 %
22.04.2019 22:08 15,2 C 15,6 C 13,9 C 50 % 1005,1 hPa 0,0 l/m 30,6 km/h (5 Bft) O-NO 69 0 min 0,000 mm 0,0 UV-I 0 W/m 4,8 C 7,9 C 43,5 km/h (6 Bft) 97,87 %
22.04.2019 22:10 15,1 C 15,6 C 13,9 C 50 % 1005,0 hPa 0,0 l/m 30,1 km/h (5 Bft) O-NO 57 0 min 0,000 mm 0,0 UV-I 0 W/m 4,8 C 7,8 C 40,2 km/h (6 Bft) 97,87 %
22.04.2019 22:12 15,1 C 15,0 C 13,9 C 50 % 1005,0 hPa 0,0 l/m 36,3 km/h (5 Bft) O-NO 63 0 min 0,000 mm 0,0 UV-I 0 W/m 4,8 C 6,9 C 49,9 km/h (6 Bft) 97,37 %
22.04.2019 22:14 15,1 C 15,0 C 13,9 C 50 % 1005,1 hPa 0,0 l/m 36,4 km/h (5 Bft) O-NO 70 0 min 0,000 mm 0,0 UV-I 0 W/m 4,8 C 6,9 C 45,1 km/h (6 Bft) 97,87 %
22.04.2019 22:16 15,1 C 15,0 C 13,9 C 50 % 1005,1 hPa 0,0 l/m 37,9 km/h (5 Bft) O 95 0 min 0,000 mm 0,0 UV-I 0 W/m 4,8 C 6,7 C 51,5 km/h (7 Bft) 97,87 %
22.04.2019 22:18 15,1 C 15,0 C 13,9 C 50 % 1005,0 hPa 0,0 l/m 30,3 km/h (5 Bft) O-NO 78 0 min 0,000 mm 0,0 UV-I 0 W/m 4,8 C 7,8 C 46,7 km/h (6 Bft) 93,75 %
22.04.2019 22:20 15,0 C 15,0 C 13,9 C 50 % 1005,0 hPa 0,0 l/m 35,4 km/h (5 Bft) O-NO 76 0 min 0,000 mm 0,0 UV-I 0 W/m 4,7 C 6,9 C 53,1 km/h (7 Bft) 95,74 %
22.04.2019 22:22 15,0 C 15,0 C 13,9 C 50 % 1005,0 hPa 0,0 l/m 32,8 km/h (5 Bft) NO 50 0 min 0,000 mm 0,0 UV-I 0 W/m 4,7 C 7,2 C 46,7 km/h (6 Bft) 98,00 %
22.04.2019 22:24 14,9 C 15,0 C 13,9 C 50 % 1005,1 hPa 0,0 l/m 33,3 km/h (5 Bft) NO 49 0 min 0,000 mm 0,0 UV-I 0 W/m 4,6 C 7,0 C 49,9 km/h (6 Bft) 97,87 %
22.04.2019 22:26 14,8 C 15,0 C 13,9 C 51 % 1005,1 hPa 0,0 l/m 28,6 km/h (4 Bft) O-NO 59 0 min 0,000 mm 0,0 UV-I 0 W/m 4,8 C 7,6 C 46,7 km/h (6 Bft) 100,00 %
22.04.2019 22:28 14,8 C 15,0 C 13,3 C 51 % 1004,9 hPa 0,0 l/m 33,0 km/h (5 Bft) O 98 0 min 0,000 mm 0,0 UV-I 0 W/m 4,8 C 6,9 C 48,3 km/h (6 Bft) 100,00 %
22.04.2019 22:30 14,8 C 15,0 C 13,3 C 51 % 1005,0 hPa 0,0 l/m 32,2 km/h (5 Bft) O 79 0 min 0,000 mm 0,0 UV-I 0 W/m 4,8 C 7,1 C 49,9 km/h (6 Bft) 100,00 %
22.04.2019 22:32 14,7 C 15,0 C 13,3 C 51 % 1005,0 hPa 0,0 l/m 33,2 km/h (5 Bft) O 84 0 min 0,000 mm 0,0 UV-I 0 W/m 4,7 C 6,8 C 45,1 km/h (6 Bft) 100,00 %
22.04.2019 22:34 14,7 C 15,0 C 13,3 C 51 % 1004,9 hPa 0,0 l/m 29,5 km/h (5 Bft) O-NO 70 0 min 0,000 mm 0,0 UV-I 0 W/m 4,7 C 7,4 C 40,2 km/h (6 Bft) 100,00 %
22.04.2019 22:36 14,6 C 15,0 C 13,3 C 51 % 1004,9 hPa 0,0 l/m 32,9 km/h (5 Bft) O-NO 75 0 min 0,000 mm 0,0 UV-I 0 W/m 4,6 C 6,7 C 48,3 km/h (6 Bft) 96,23 %
22.04.2019 22:38 14,6 C 15,0 C 13,3 C 51 % 1005,0 hPa 0,0 l/m 32,9 km/h (5 Bft) O 94 0 min 0,000 mm 0,0 UV-I 0 W/m 4,6 C 6,7 C 43,5 km/h (6 Bft) 100,00 %
22.04.2019 22:40 14,5 C 15,0 C 13,3 C 51 % 1004,9 hPa 0,0 l/m 33,5 km/h (5 Bft) O-NO 59 0 min 0,000 mm 0,0 UV-I 0 W/m 4,5 C 6,4 C 54,7 km/h (7 Bft) 98,00 %
22.04.2019 22:42 14,5 C 15,0 C 13,3 C 51 % 1005,0 hPa 0,0 l/m 32,1 km/h (5 Bft) O-NO 78 0 min 0,000 mm 0,0 UV-I 0 W/m 4,5 C 6,6 C 45,1 km/h (6 Bft) 100,00 %
22.04.2019 22:44 14,5 C 15,0 C 13,3 C 52 % 1005,0 hPa 0,0 l/m 28,6 km/h (4 Bft) SO 130 0 min 0,000 mm 0,0 UV-I 0 W/m 4,8 C 7,2 C 40,2 km/h (6 Bft) 100,00 %
22.04.2019 22:46 14,4 C 15,0 C 13,3 C 52 % 1004,9 hPa 0,0 l/m 27,4 km/h (4 Bft) O-NO 71 0 min 0,000 mm 0,0 UV-I 0 W/m 4,7 C 7,3 C 41,8 km/h (6 Bft) 100,00 %
22.04.2019 22:48 14,4 C 15,0 C 12,8 C 52 % 1004,9 hPa 0,0 l/m 29,5 km/h (5 Bft) O 98 0 min 0,000 mm 0,0 UV-I 0 W/m 4,7 C 6,9 C 40,2 km/h (6 Bft) 100,00 %
22.04.2019 22:50 14,3 C 15,0 C 12,8 C 52 % 1004,9 hPa 0,0 l/m 28,3 km/h (4 Bft) O-NO 73 0 min 0,000 mm 0,0 UV-I 0 W/m 4,6 C 7,0 C 40,2 km/h (6 Bft) 100,00 %
22.04.2019 22:52 14,3 C 15,0 C 12,8 C 52 % 1005,0 hPa 0,0 l/m 31,6 km/h (5 Bft) O-SO 103 0 min 0,000 mm 0,0 UV-I 0 W/m 4,6 C 6,4 C 41,8 km/h (6 Bft) 97,92 %
22.04.2019 22:54 14,3 C 15,0 C 13,3 C 53 % 1004,9 hPa 0,0 l/m 32,9 km/h (5 Bft) O-NO 67 0 min 0,000 mm 0,0 UV-I 0 W/m 4,9 C 6,2 C 46,7 km/h (6 Bft) 100,00 %
22.04.2019 22:56 14,3 C 15,0 C 12,8 C 53 % 1004,8 hPa 0,0 l/m 29,9 km/h (5 Bft) O-NO 65 0 min 0,000 mm 0,0 UV-I 0 W/m 4,9 C 6,7 C 49,9 km/h (6 Bft) 97,87 %
22.04.2019 22:58 14,2 C 15,0 C 12,8 C 53 % 1004,9 hPa 0,0 l/m 26,9 km/h (4 Bft) O 89 0 min 0,000 mm 0,0 UV-I 0 W/m 4,8 C 7,1 C 35,4 km/h (5 Bft) 100,00 %
22.04.2019 23:00 14,2 C 15,0 C 12,8 C 53 % 1004,8 hPa 0,0 l/m 29,4 km/h (5 Bft) O-NO 61 0 min 0,000 mm 0,0 UV-I 0 W/m 4,8 C 6,7 C 38,6 km/h (5 Bft) 100,00 %
22.04.2019 23:02 14,1 C 15,0 C 12,8 C 53 % 1004,8 hPa 0,0 l/m 35,1 km/h (5 Bft) O 99 0 min 0,178 mm 0,0 UV-I 0 W/m 4,7 C 5,6 C 53,1 km/h (7 Bft) 100,00 %
22.04.2019 23:04 14,1 C 15,0 C 12,8 C 53 % 1004,9 hPa 0,0 l/m 33,0 km/h (5 Bft) O-SO 119 0 min 0,000 mm 0,0 UV-I 0 W/m 4,7 C 5,9 C 46,7 km/h (6 Bft) 100,00 %
22.04.2019 23:06 14,2 C 15,0 C 12,8 C 53 % 1004,8 hPa 0,0 l/m 30,4 km/h (5 Bft) NO 51 0 min 0,000 mm 0,0 UV-I 0 W/m 4,8 C 6,5 C 41,8 km/h (6 Bft) 100,00 %
22.04.2019 23:08 14,1 C 15,0 C 12,8 C 53 % 1004,7 hPa 0,0 l/m 33,5 km/h (5 Bft) O-NO 71 0 min 0,000 mm 0,0 UV-I 0 W/m 4,7 C 5,9 C 45,1 km/h (6 Bft) 97,87 %
22.04.2019 23:10 14,1 C 15,0 C 12,8 C 53 % 1004,8 hPa 0,0 l/m 30,3 km/h (5 Bft) O-NO 61 0 min 0,000 mm 0,0 UV-I 0 W/m 4,7 C 6,4 C 41,8 km/h (6 Bft) 97,87 %
22.04.2019 23:12 14,0 C 15,0 C 12,8 C 54 % 1004,9 hPa 0,0 l/m 27,1 km/h (4 Bft) O 97 0 min 0,000 mm 0,0 UV-I 0 W/m 4,8 C 6,8 C 35,4 km/h (5 Bft) 97,37 %
22.04.2019 23:14 13,9 C 15,0 C 12,8 C 54 % 1004,9 hPa 0,0 l/m 28,6 km/h (4 Bft) O 84 0 min 0,000 mm 0,0 UV-I 0 W/m 4,7 C 6,4 C 40,2 km/h (6 Bft) 93,62 %
22.04.2019 23:16 13,9 C 15,0 C 12,8 C 54 % 1004,9 hPa 0,0 l/m 37,9 km/h (5 Bft) O-NO 68 0 min 0,000 mm 0,0 UV-I 0 W/m 4,7 C 4,9 C 49,9 km/h (6 Bft) 95,74 %
22.04.2019 23:18 13,9 C 15,0 C 12,8 C 54 % 1005,0 hPa 0,0 l/m 26,3 km/h (4 Bft) NO 54 0 min 0,000 mm 0,0 UV-I 0 W/m 4,7 C 6,8 C 38,6 km/h (5 Bft) 96,00 %
22.04.2019 23:20 13,9 C 15,0 C 12,8 C 54 % 1004,9 hPa 0,0 l/m 32,8 km/h (5 Bft) O 92 0 min 0,000 mm 0,0 UV-I 0 W/m 4,7 C 5,7 C 49,9 km/h (6 Bft) 95,74 %
22.04.2019 23:22 13,9 C 15,0 C 12,8 C 55 % 1004,9 hPa 0,0 l/m 28,5 km/h (4 Bft) O-NO 71 0 min 0,000 mm 0,0 UV-I 0 W/m 5,0 C 6,4 C 37,0 km/h (5 Bft) 95,74 %
22.04.2019 23:24 13,8 C 15,0 C 12,8 C 55 % 1004,8 hPa 0,0 l/m 31,6 km/h (5 Bft) O-NO 62 0 min 0,000 mm 0,0 UV-I 0 W/m 4,9 C 5,7 C 46,7 km/h (6 Bft) 97,87 %
22.04.2019 23:26 13,8 C 15,0 C 12,8 C 55 % 1004,8 hPa 0,0 l/m 34,2 km/h (5 Bft) O 82 0 min 0,000 mm 0,0 UV-I 0 W/m 4,9 C 5,3 C 46,7 km/h (6 Bft) 95,74 %
22.04.2019 23:28 13,8 C 15,0 C 12,8 C 55 % 1004,8 hPa 0,0 l/m 33,1 km/h (5 Bft) O 83 0 min 0,000 mm 0,0 UV-I 0 W/m 4,9 C 5,5 C 41,8 km/h (6 Bft) 93,62 %
22.04.2019 23:30 13,7 C 15,0 C 12,8 C 55 % 1004,8 hPa 0,0 l/m 36,0 km/h (5 Bft) O-NO 76 0 min 0,000 mm 0,0 UV-I 0 W/m 4,8 C 4,9 C 48,3 km/h (6 Bft) 95,74 %
22.04.2019 23:32 13,7 C 15,0 C 12,8 C 55 % 1004,7 hPa 0,0 l/m 32,8 km/h (5 Bft) O 86 0 min 0,000 mm 0,0 UV-I 0 W/m 4,8 C 5,4 C 45,1 km/h (6 Bft) 95,74 %
22.04.2019 23:34 13,7 C 15,0 C 12,8 C 56 % 1004,7 hPa 0,0 l/m 31,9 km/h (5 Bft) O-NO 60 0 min 0,000 mm 0,0 UV-I 0 W/m 5,1 C 5,5 C 38,6 km/h (5 Bft) 95,24 %
22.04.2019 23:36 13,7 C 15,0 C 12,2 C 56 % 1004,8 hPa 0,0 l/m 28,1 km/h (4 Bft) O-NO 60 0 min 0,000 mm 0,0 UV-I 0 W/m 5,1 C 6,2 C 48,3 km/h (6 Bft) 96,00 %
22.04.2019 23:38 13,6 C 15,0 C 12,8 C 56 % 1004,6 hPa 0,0 l/m 34,9 km/h (5 Bft) O-NO 62 0 min 0,000 mm 0,0 UV-I 0 W/m 5,0 C 4,9 C 45,1 km/h (6 Bft) 92,00 %
22.04.2019 23:40 13,6 C 15,0 C 12,8 C 56 % 1004,6 hPa 0,0 l/m 31,7 km/h (5 Bft) O-NO 76 0 min 0,000 mm 0,0 UV-I 0 W/m 5,0 C 5,4 C 40,2 km/h (6 Bft) 94,00 %
22.04.2019 23:42 13,6 C 15,0 C 12,8 C 56 % 1004,6 hPa 0,0 l/m 30,5 km/h (5 Bft) NO 52 0 min 0,000 mm 0,0 UV-I 0 W/m 5,0 C 5,6 C 40,2 km/h (6 Bft) 100,00 %
22.04.2019 23:44 13,6 C 15,0 C 12,8 C 56 % 1004,7 hPa 0,0 l/m 30,3 km/h (5 Bft) O-NO 71 0 min 0,000 mm 0,0 UV-I 0 W/m 5,0 C 5,7 C 41,8 km/h (6 Bft) 94,00 %
22.04.2019 23:46 13,6 C 15,0 C 12,8 C 56 % 1004,6 hPa 0,0 l/m 33,1 km/h (5 Bft) O 94 0 min 0,000 mm 0,0 UV-I 0 W/m 5,0 C 5,2 C 48,3 km/h (6 Bft) 98,00 %
22.04.2019 23:49 13,5 C 15,0 C 12,2 C 56 % 1004,6 hPa 0,0 l/m 28,1 km/h (4 Bft) O-NO 65 0 min 0,000 mm 0,0 UV-I 0 W/m 4,9 C 5,9 C 40,2 km/h (6 Bft) 97,26 %
22.04.2019 23:50 13,5 C 15,0 C 12,2 C 57 % 1004,6 hPa 0,0 l/m 32,3 km/h (5 Bft) O 83 0 min 0,000 mm 0,0 UV-I 0 W/m 5,2 C 5,2 C 38,6 km/h (5 Bft) 100,00 %
22.04.2019 23:52 13,4 C 15,0 C 12,2 C 57 % 1004,6 hPa 0,0 l/m 32,8 km/h (5 Bft) O 95 0 min 0,000 mm 0,0 UV-I 0 W/m 5,1 C 5,0 C 45,1 km/h (6 Bft) 98,00 %
22.04.2019 23:54 13,4 C 15,0 C 12,2 C 57 % 1004,6 hPa 0,0 l/m 29,2 km/h (5 Bft) O-NO 69 0 min 0,000 mm 0,0 UV-I 0 W/m 5,1 C 5,6 C 43,5 km/h (6 Bft) 100,00 %
22.04.2019 23:56 13,4 C 15,0 C 12,2 C 57 % 1004,6 hPa 0,0 l/m 32,3 km/h (5 Bft) O-NO 67 0 min 0,000 mm 0,0 UV-I 0 W/m 5,1 C 5,0 C 43,5 km/h (6 Bft) 97,87 %
22.04.2019 23:58 13,4 C 15,0 C 12,2 C 57 % 1004,5 hPa 0,0 l/m 29,1 km/h (5 Bft) O-NO 59 0 min 0,000 mm 0,0 UV-I 0 W/m 5,1 C 5,6 C 40,2 km/h (6 Bft) 100,00 %
_ Min-Zeit 05:30 03:30 06:06 14:06 23:58 - 02:06 - - - - - - 02:58 05:30 02:06 00:40
Minimum _ 4,3 C 14,4 C 0,0 C 31 % 1004,5 hPa - 0,0 km/h (0 Bft) - - - - - - -0,7 C 4,3 C 0,0 km/h (0 Bft) 89,36 %
_ Max-Zeit 14:40 14:56 12:44 05:50 00:00 00:00 22:16 - - 06:51 14:00 13:08 13:22 12:46 14:56 20:08 00:00
Maximum _ 21,4 C 16,1 C 32,8 C 74 % 1015,0 hPa 0,0 l/m 37,9 km/h
O (5 Bft)
- - 3 min 0,661 mm 4,3 UV-I 840 W/m 6,3 C 18,0 C 54,7 km/h
O-NO (7 Bft)
100,00 %
Durchschnitt _ 14,3 C 15,2 C 16,0 C 48 % 1009,5 hPa #0,0 l/m 16,6 km/h (3 Bft) O-NO - #13:18 h #6,426 mm 2,5 UV-I 451 W/m 2,9 C 11,0 C 23,8 km/h (4 Bft) 97,10 %